[[{"header":{"parameterUnit":"m.s-1","parameterCategory":1,"la1":30.6,"la2":29.2853,"lo1":-89.7004,"lo2":-87.6739,"dy":0.0162,"dx":0.0183,"nx":112,"ny":82,"refTime":"2024-06-21T12:00:00:Z","depth":0,"parameterNumber":2,"parameterNumberName":"U-component_of_WINDS"},"data":[0.0,0.0,0.0,0.0,0.0,0.0,0.0,0.0,0.0,0.0,0.0,0.0,0.0,0.0,0.0,0.0,0.0,0.0,0.0,0.0,0.0,0.0,0.0,0.0,0.0,0.0,0.0,0.0,0.0,0.0,0.0,0.0,0.0,0.0,0.0,0.0,0.0,0.0,0.0,0.0,0.0,0.0,0.0,0.0,0.0,0.0,0.0,0.0,0.0,0.0,0.0,0.0,0.0,0.0,0.0,0.0,0.0,0.0,0.0,0.0,0.0,0.0,0.0,0.0,0.0,0.0,0.0,0.0,0.0,0.0,0.0,0.0,0.0,0.0,0.0,0.0,0.0,0.0,0.0,0.0,0.0,0.0,0.0,0.0,0.0,0.0,0.0,0.0,0.0,0.0,-4.0641,-4.164,-4.2853,-4.3568,-4.3462,-4.2814,-4.1439,-3.915,0.0,0.0,0.0,0.0,0.0,0.0,0.0,0.0,0.0,0.0,0.0,0.0,0.0,0.0,0.0,0.0,0.0,0.0,0.0,0.0,0.0,0.0,0.0,0.0,0.0,0.0,0.0,0.0,0.0,0.0,0.0,0.0,0.0,0.0,0.0,0.0,0.0,0.0,0.0,0.0,0.0,0.0,0.0,0.0,0.0,0.0,0.0,0.0,0.0,0.0,0.0,0.0,0.0,0.0,0.0,0.0,0.0,0.0,0.0,0.0,0.0,0.0,0.0,0.0,0.0,0.0,0.0,0.0,0.0,0.0,0.0,0.0,0.0,0.0,0.0,0.0,0.0,0.0,0.0,0.0,0.0,0.0,0.0,0.0,0.0,0.0,0.0,0.0,0.0,0.0,0.0,0.0,0.0,0.0,0.0,0.0,0.0,0.0,0.0,0.0,0.0,0.0,0.0,0.0,-4.0431,-4.2986,-4.3466,-4.3372,-4.2803,-4.208,-4.0526,-3.7865,0.0,0.0,0.0,0.0,0.0,0.0,0.0,0.0,0.0,0.0,0.0,0.0,0.0,0.0,0.0,0.0,0.0,0.0,0.0,0.0,0.0,0.0,0.0,0.0,0.0,0.0,0.0,0.0,0.0,0.0,0.0,0.0,0.0,0.0,0.0,0.0,0.0,0.0,0.0,0.0,0.0,0.0,0.0,0.0,0.0,0.0,0.0,0.0,0.0,0.0,0.0,0.0,0.0,0.0,0.0,0.0,0.0,0.0,0.0,0.0,0.0,0.0,0.0,0.0,0.0,0.0,0.0,0.0,0.0,0.0,0.0,0.0,0.0,0.0,0.0,0.0,0.0,0.0,0.0,0.0,0.0,0.0,0.0,0.0,0.0,0.0,0.0,0.0,0.0,0.0,0.0,0.0,0.0,0.0,0.0,0.0,0.0,0.0,0.0,0.0,0.0,0.0,0.0,-3.9487,-4.0845,-4.3317,-4.3265,-4.2943,-4.2617,-4.1247,-3.9566,-3.7526,-3.5107,0.0,0.0,0.0,0.0,0.0,0.0,0.0,0.0,0.0,0.0,0.0,0.0,0.0,0.0,0.0,0.0,0.0,0.0,0.0,0.0,0.0,0.0,0.0,0.0,0.0,0.0,0.0,0.0,0.0,0.0,0.0,0.0,0.0,0.0,0.0,0.0,0.0,0.0,0.0,0.0,0.0,0.0,0.0,0.0,0.0,0.0,0.0,0.0,0.0,0.0,0.0,0.0,0.0,0.0,0.0,0.0,0.0,0.0,0.0,0.0,0.0,0.0,0.0,0.0,0.0,0.0,0.0,0.0,0.0,0.0,0.0,0.0,0.0,0.0,0.0,0.0,0.0,0.0,0.0,0.0,0.0,0.0,0.0,0.0,0.0,0.0,0.0,0.0,0.0,0.0,0.0,0.0,0.0,0.0,0.0,0.0,0.0,0.0,0.0,0.0,0.0,0.0,-4.0767,-4.1346,-4.3174,-4.2741,-4.2285,-4.2126,-4.036,-3.8579,-3.7045,-3.3999,0.0,0.0,0.0,0.0,0.0,0.0,0.0,0.0,0.0,0.0,0.0,0.0,0.0,0.0,0.0,0.0,0.0,0.0,0.0,0.0,0.0,0.0,0.0,0.0,0.0,0.0,0.0,0.0,0.0,0.0,0.0,0.0,0.0,0.0,0.0,0.0,0.0,0.0,0.0,0.0,0.0,0.0,0.0,0.0,0.0,0.0,0.0,0.0,0.0,0.0,0.0,0.0,0.0,0.0,0.0,0.0,0.0,0.0,0.0,0.0,0.0,0.0,0.0,0.0,0.0,0.0,0.0,0.0,0.0,0.0,0.0,0.0,0.0,0.0,0.0,0.0,0.0,0.0,0.0,0.0,0.0,0.0,0.0,0.0,0.0,0.0,0.0,0.0,0.0,0.0,0.0,0.0,0.0,0.0,0.0,0.0,0.0,0.0,0.0,0.0,0.0,0.0,-4.0582,-4.174,-4.2598,-4.2013,-4.1327,-4.0703,-3.9378,-3.7726,-3.5774,-3.3081,0.0,0.0,0.0,0.0,0.0,0.0,0.0,0.0,0.0,0.0,0.0,0.0,0.0,0.0,0.0,0.0,0.0,0.0,0.0,0.0,0.0,0.0,0.0,0.0,0.0,0.0,0.0,0.0,0.0,0.0,0.0,0.0,0.0,0.0,0.0,0.0,0.0,0.0,0.0,0.0,0.0,0.0,0.0,0.0,0.0,0.0,0.0,0.0,0.0,0.0,0.0,0.0,0.0,0.0,0.0,0.0,0.0,0.0,0.0,0.0,0.0,0.0,0.0,0.0,0.0,0.0,0.0,0.0,0.0,0.0,0.0,0.0,0.0,0.0,0.0,0.0,0.0,0.0,0.0,0.0,0.0,0.0,0.0,0.0,0.0,0.0,0.0,0.0,0.0,0.0,0.0,0.0,0.0,0.0,0.0,0.0,0.0,0.0,0.0,0.0,0.0,0.0,-3.9498,-4.0577,-4.1789,-4.1294,-4.0771,-4.0512,-3.8842,-3.7153,-3.5594,0.0,0.0,0.0,0.0,0.0,0.0,0.0,0.0,0.0,0.0,0.0,0.0,0.0,0.0,0.0,0.0,0.0,0.0,0.0,0.0,0.0,0.0,0.0,0.0,0.0,0.0,0.0,0.0,0.0,0.0,0.0,0.0,0.0,0.0,0.0,0.0,0.0,0.0,0.0,0.0,0.0,0.0,0.0,0.0,0.0,0.0,0.0,0.0,0.0,0.0,0.0,0.0,0.0,0.0,0.0,0.0,0.0,0.0,0.0,0.0,0.0,0.0,0.0,0.0,0.0,0.0,0.0,0.0,0.0,0.0,0.0,0.0,0.0,0.0,0.0,0.0,0.0,0.0,0.0,0.0,0.0,0.0,0.0,0.0,0.0,0.0,0.0,0.0,0.0,0.0,0.0,0.0,0.0,0.0,0.0,0.0,0.0,0.0,0.0,0.0,0.0,0.0,-3.7834,-3.8683,-3.9549,-4.1039,-4.0615,-4.0216,-4.0146,-3.8318,-3.6618,-3.5265,0.0,0.0,0.0,0.0,0.0,0.0,0.0,0.0,0.0,0.0,0.0,0.0,0.0,0.0,0.0,0.0,0.0,0.0,0.0,0.0,0.0,0.0,0.0,0.0,0.0,0.0,0.0,0.0,0.0,0.0,0.0,0.0,0.0,0.0,0.0,0.0,0.0,0.0,0.0,0.0,0.0,0.0,0.0,0.0,0.0,0.0,0.0,0.0,0.0,0.0,0.0,0.0,0.0,0.0,0.0,0.0,0.0,0.0,0.0,0.0,0.0,0.0,0.0,0.0,0.0,0.0,0.0,0.0,0.0,0.0,0.0,0.0,0.0,0.0,0.0,0.0,0.0,0.0,0.0,0.0,0.0,0.0,0.0,0.0,0.0,0.0,0.0,0.0,0.0,0.0,0.0,0.0,0.0,0.0,0.0,0.0,0.0,0.0,0.0,0.0,0.0,0.0,-3.781,-3.8309,-3.8936,-4.0339,-4.0021,-3.961,-3.9409,-3.774,-3.6092,0.0,0.0,0.0,0.0,0.0,0.0,0.0,0.0,0.0,0.0,0.0,0.0,0.0,0.0,0.0,0.0,0.0,0.0,0.0,0.0,0.0,0.0,0.0,0.0,0.0,0.0,0.0,0.0,0.0,0.0,0.0,0.0,0.0,0.0,0.0,0.0,0.0,0.0,0.0,0.0,0.0,0.0,0.0,0.0,0.0,0.0,0.0,0.0,0.0,0.0,0.0,0.0,0.0,0.0,0.0,0.0,0.0,0.0,0.0,0.0,0.0,0.0,0.0,0.0,0.0,0.0,0.0,0.0,0.0,0.0,0.0,0.0,0.0,0.0,0.0,0.0,0.0,0.0,0.0,0.0,0.0,0.0,0.0,0.0,0.0,0.0,0.0,0.0,0.0,0.0,0.0,0.0,0.0,0.0,0.0,0.0,0.0,0.0,0.0,0.0,0.0,0.0,0.0,-3.614,-3.7764,-3.9102,-4.0039,-4.0031,-3.9889,-3.9818,-3.8241,-3.652,-3.4827,0.0,0.0,0.0,0.0,0.0,0.0,0.0,0.0,0.0,0.0,0.0,0.0,0.0,0.0,0.0,0.0,0.0,0.0,0.0,0.0,0.0,0.0,0.0,0.0,0.0,0.0,0.0,0.0,0.0,0.0,0.0,0.0,0.0,0.0,0.0,0.0,0.0,0.0,0.0,0.0,0.0,0.0,0.0,0.0,0.0,0.0,0.0,0.0,0.0,0.0,0.0,0.0,0.0,0.0,0.0,0.0,0.0,0.0,0.0,0.0,0.0,0.0,0.0,0.0,0.0,0.0,0.0,0.0,0.0,0.0,0.0,0.0,0.0,0.0,0.0,0.0,0.0,0.0,0.0,0.0,0.0,0.0,0.0,0.0,0.0,0.0,0.0,0.0,0.0,0.0,0.0,0.0,0.0,0.0,0.0,0.0,0.0,0.0,0.0,0.0,0.0,0.0,-3.545,-3.7231,-3.8766,-3.9894,-4.0066,-4.0031,-3.9783,-3.8421,-3.6697,-3.4622,0.0,0.0,0.0,0.0,0.0,0.0,0.0,0.0,0.0,0.0,0.0,0.0,0.0,0.0,0.0,0.0,0.0,0.0,0.0,0.0,0.0,0.0,0.0,0.0,0.0,0.0,0.0,0.0,0.0,0.0,0.0,0.0,0.0,0.0,0.0,0.0,0.0,0.0,0.0,0.0,0.0,0.0,0.0,0.0,0.0,0.0,0.0,0.0,0.0,0.0,0.0,0.0,0.0,0.0,0.0,0.0,0.0,0.0,0.0,0.0,0.0,0.0,0.0,0.0,0.0,0.0,0.0,0.0,0.0,0.0,0.0,0.0,0.0,0.0,0.0,0.0,0.0,0.0,0.0,0.0,0.0,0.0,0.0,0.0,0.0,0.0,0.0,0.0,0.0,0.0,0.0,0.0,0.0,0.0,0.0,0.0,0.0,0.0,0.0,0.0,0.0,0.0,-3.5377,-3.6717,-3.8112,-3.9703,-4.0005,-3.9854,-3.9284,-3.8182,-3.6495,-3.407,0.0,0.0,0.0,0.0,0.0,0.0,0.0,0.0,0.0,0.0,0.0,0.0,0.0,0.0,0.0,0.0,0.0,0.0,0.0,0.0,0.0,0.0,0.0,0.0,0.0,0.0,0.0,0.0,0.0,0.0,0.0,0.0,0.0,0.0,0.0,0.0,0.0,0.0,0.0,0.0,0.0,0.0,0.0,0.0,0.0,0.0,0.0,0.0,0.0,0.0,0.0,0.0,0.0,0.0,0.0,0.0,0.0,0.0,0.0,0.0,-3.7203,-3.6148,0.0,0.0,0.0,0.0,0.0,0.0,0.0,0.0,0.0,0.0,0.0,0.0,0.0,0.0,0.0,0.0,0.0,0.0,0.0,0.0,0.0,0.0,0.0,0.0,0.0,0.0,0.0,0.0,0.0,0.0,0.0,0.0,0.0,0.0,0.0,0.0,0.0,0.0,0.0,0.0,-3.4452,-3.6144,-3.7669,-3.8905,-3.8599,-3.8273,-3.8144,-3.6891,-3.5278,-3.333,-3.1763,0.0,0.0,0.0,0.0,0.0,0.0,0.0,0.0,0.0,0.0,0.0,0.0,0.0,0.0,0.0,0.0,0.0,0.0,0.0,0.0,0.0,0.0,0.0,0.0,0.0,0.0,0.0,0.0,0.0,0.0,0.0,0.0,0.0,0.0,0.0,0.0,0.0,0.0,0.0,0.0,0.0,0.0,0.0,0.0,0.0,0.0,0.0,0.0,0.0,0.0,0.0,0.0,0.0,0.0,0.0,0.0,0.0,0.0,0.0,-3.9186,-3.8223,0.0,0.0,0.0,0.0,0.0,0.0,0.0,0.0,0.0,0.0,0.0,0.0,0.0,0.0,0.0,0.0,0.0,0.0,0.0,0.0,0.0,0.0,0.0,0.0,0.0,0.0,0.0,0.0,0.0,0.0,0.0,0.0,0.0,0.0,0.0,0.0,0.0,0.0,0.0,0.0,-3.4234,-3.5863,-3.7373,-3.8649,-3.8509,-3.8097,-3.7608,-3.6579,-3.5288,-3.3616,-3.2011,0.0,0.0,0.0,0.0,0.0,0.0,0.0,0.0,0.0,0.0,0.0,0.0,0.0,0.0,0.0,0.0,0.0,0.0,0.0,0.0,0.0,0.0,0.0,0.0,0.0,0.0,0.0,0.0,0.0,0.0,0.0,0.0,0.0,0.0,0.0,0.0,0.0,0.0,0.0,0.0,0.0,0.0,0.0,0.0,0.0,0.0,0.0,0.0,0.0,0.0,0.0,0.0,0.0,-4.1569,-4.1652,-4.2409,-4.2244,-4.2518,-4.2982,-4.1193,-4.0492,-4.0486,-3.8609,0.0,0.0,0.0,0.0,0.0,0.0,0.0,0.0,0.0,0.0,0.0,0.0,0.0,0.0,0.0,0.0,0.0,0.0,0.0,0.0,0.0,0.0,-3.6183,-3.6578,-3.6686,-3.6428,-3.5411,0.0,0.0,0.0,0.0,0.0,0.0,0.0,0.0,0.0,0.0,0.0,-3.4241,-3.5702,-3.7077,-3.8355,-3.8384,-3.7995,-3.7155,-3.6404,-3.5443,-3.4131,-3.2522,-3.1056,0.0,0.0,0.0,0.0,0.0,0.0,0.0,0.0,0.0,0.0,0.0,0.0,0.0,0.0,0.0,0.0,0.0,0.0,0.0,0.0,0.0,0.0,0.0,0.0,0.0,0.0,0.0,0.0,0.0,0.0,0.0,0.0,-3.2872,-3.3253,0.0,0.0,0.0,0.0,0.0,0.0,0.0,0.0,0.0,0.0,0.0,0.0,0.0,-4.1763,-4.1283,-4.2884,-4.3955,-4.4454,-4.4882,-4.5135,-4.5265,-4.5218,-4.5268,-4.5351,-4.5052,0.0,-4.1472,-4.1034,0.0,0.0,0.0,0.0,0.0,0.0,0.0,0.0,0.0,0.0,0.0,0.0,0.0,0.0,0.0,0.0,0.0,0.0,0.0,0.0,0.0,0.0,-3.8278,-3.7187,-3.7038,-3.7086,-3.6937,-3.5307,-3.3443,-3.1959,-3.1298,-3.0846,0.0,0.0,0.0,0.0,0.0,0.0,-3.3951,-3.5461,-3.6623,-3.7179,-3.6769,-3.6415,-3.6269,-3.5305,-3.4484,-3.3882,-3.2762,-3.1613,-3.0495,-2.9755,0.0,0.0,0.0,0.0,0.0,0.0,0.0,0.0,0.0,0.0,0.0,0.0,0.0,0.0,0.0,0.0,0.0,0.0,0.0,0.0,0.0,0.0,0.0,0.0,0.0,0.0,0.0,0.0,0.0,-3.3084,-3.3997,-3.3753,-3.5128,-3.5345,0.0,0.0,0.0,0.0,0.0,0.0,0.0,0.0,0.0,-4.0831,-4.2373,-4.3333,-4.3666,-4.4498,-4.5235,-4.5851,-4.5753,-4.595,-4.6411,-4.6411,-4.6643,-4.7007,-4.6593,-4.5775,-4.4597,-4.2775,-4.1702,-4.1028,0.0,0.0,0.0,0.0,-3.8273,-3.845,-3.8837,-3.8624,-3.8027,-3.7193,0.0,0.0,0.0,0.0,0.0,0.0,0.0,-3.5913,-3.6537,-3.7208,-3.757,-3.6947,-3.7165,-3.721,-3.6275,-3.5508,-3.4681,-3.3502,-3.3141,-3.251,-3.0953,-3.0509,0.0,0.0,0.0,-3.2919,-3.4333,-3.5624,-3.6533,-3.6961,-3.674,-3.6483,-3.6131,-3.5376,-3.4745,-3.439,-3.3245,-3.2482,-3.2222,-3.1221,-3.0132,0.0,0.0,0.0,0.0,0.0,0.0,0.0,0.0,0.0,0.0,0.0,0.0,0.0,0.0,0.0,0.0,0.0,0.0,0.0,0.0,0.0,0.0,0.0,0.0,0.0,0.0,0.0,0.0,-3.4495,-3.5257,-3.4927,-3.6788,-3.7053,0.0,0.0,0.0,0.0,0.0,0.0,-4.0811,-4.2107,-4.2883,-4.2985,-4.4117,-4.5012,-4.5634,-4.5815,-4.6273,-4.6946,-4.6434,-4.6563,-4.7173,-4.7173,-4.7487,-4.7968,-4.7421,-4.7121,-4.6851,-4.4354,-4.3346,-4.319,-4.0994,-4.0536,-4.0984,-3.9962,-3.964,-3.981,-4.02,-4.0255,-3.9903,-3.8463,-3.7377,-3.6305,-3.4648,0.0,0.0,0.0,0.0,-3.5997,-3.6585,-3.6613,-3.6484,-3.6418,-3.6733,-3.6723,-3.5475,-3.5522,-3.5614,-3.4842,-3.4435,-3.3697,-3.1925,-3.1528,0.0,-3.1244,-3.2057,-3.3125,-3.4325,-3.5563,-3.6438,-3.6813,-3.6972,-3.6926,-3.6537,-3.5774,-3.5249,-3.5118,-3.3922,-3.3298,-3.3503,-3.2542,-3.1642,-3.0859,0.0,0.0,0.0,0.0,0.0,0.0,0.0,0.0,0.0,0.0,0.0,0.0,0.0,0.0,0.0,0.0,0.0,0.0,0.0,0.0,0.0,0.0,0.0,0.0,0.0,0.0,0.0,0.0,0.0,-3.7689,-3.8953,0.0,0.0,0.0,0.0,-3.9913,-4.1649,-4.2758,-4.2749,-4.474,-4.5642,-4.516,-4.6684,-4.721,-4.6634,-4.7276,-4.7688,-4.7951,-4.7918,-4.7918,-4.7934,-4.7934,-4.7968,-4.8001,-4.7968,-4.7537,-4.6825,-4.598,-4.5709,-4.5799,-4.5512,-4.5433,-4.5301,-4.3876,-4.3317,-4.3234,-4.2576,-4.1898,-4.1345,-4.1474,-3.9451,-3.6813,-3.6532,-3.5172,0.0,0.0,-3.5944,-3.5674,-3.6319,-3.6231,-3.5881,-3.5633,-3.5436,-3.5291,-3.5216,-3.5459,-3.5507,-3.482,-3.3762,-3.3035,-3.3264,0.0,-3.2062,-3.1872,-3.2925,-3.3644,-3.3424,-3.4978,-3.6193,-3.6424,-3.6949,-3.7327,-3.7491,-3.6388,-3.5733,-3.5921,-3.4741,-3.3879,-3.3518,-3.3445,-3.2806,-3.1466,-3.0814,0.0,0.0,0.0,0.0,0.0,0.0,0.0,0.0,0.0,0.0,0.0,0.0,0.0,0.0,0.0,0.0,0.0,0.0,0.0,0.0,0.0,0.0,0.0,0.0,0.0,0.0,0.0,0.0,-3.9818,-4.1745,0.0,-3.9887,-4.116,-4.2058,-4.1893,-4.3432,-4.4582,-4.5129,-4.6419,-4.7043,-4.6832,-4.7523,-4.777,-4.7522,-4.777,-4.7935,-4.8001,-4.8001,-4.8001,-4.8001,-4.8001,-4.8001,-4.8001,-4.8001,-4.7852,-4.7587,-4.7322,-4.6956,-4.6489,-4.5481,-4.5086,-4.4953,-4.3962,-4.33,-4.289,-4.2807,-4.2004,-4.0805,-3.9563,-3.8364,-3.7443,-3.7707,-3.7147,-3.6561,-3.7051,-3.7314,-3.7192,-3.6084,-3.6317,-3.6692,-3.5918,-3.5674,-3.561,-3.5822,-3.5429,-3.5067,-3.5136,-3.4629,-3.3987,-3.3382,-3.2924,-3.2568,-3.2388,-3.3093,-3.3782,-3.4037,-3.5121,-3.5861,-3.5935,-3.6134,-3.6299,-3.6373,-3.5603,-3.5025,-3.4784,-3.3998,-3.3522,-3.3518,-3.3503,-3.3064,-3.2147,-3.1526,-3.029,0.0,0.0,0.0,0.0,0.0,0.0,0.0,0.0,0.0,0.0,0.0,0.0,0.0,0.0,0.0,0.0,0.0,0.0,0.0,0.0,0.0,0.0,0.0,0.0,0.0,-3.9102,-4.059,-4.1346,-4.3473,-4.4019,-4.1705,-4.3213,-4.4274,-4.4164,-4.5293,-4.6209,-4.6815,-4.7391,-4.7737,-4.7787,-4.7935,-4.8001,-4.8001,-4.8001,-4.8001,-4.8001,-4.8001,-4.8001,-4.8001,-4.8001,-4.8001,-4.8001,-4.8001,-4.8001,-4.8001,-4.8001,-4.7719,-4.7173,-4.6195,-4.5798,-4.5715,-4.5003,-4.4393,-4.3932,-4.3629,-4.2457,-4.0896,-3.9544,-3.8647,-3.8163,-3.8412,-3.8235,-3.7857,-3.7673,-3.7895,-3.7897,-3.6445,-3.6746,-3.7266,-3.6629,-3.6339,-3.6163,-3.6107,-3.5569,-3.51,-3.5082,-3.4787,-3.437,-3.3829,-3.3442,-3.3172,-3.2968,-3.337,-3.3831,-3.4172,-3.4911,-3.5439,-3.5497,-3.5683,-3.5812,-3.5899,-3.5346,-3.4885,-3.4542,-3.3753,-3.3357,-3.3503,-3.33,-3.2948,-3.2495,-3.1403,-3.0089,-2.8573,0.0,0.0,0.0,0.0,0.0,0.0,0.0,0.0,0.0,0.0,0.0,0.0,0.0,0.0,0.0,0.0,0.0,0.0,0.0,0.0,0.0,0.0,0.0,-3.8112,-4.064,-4.2367,-4.2417,-4.4187,-4.488,-4.3652,-4.5447,-4.6683,-4.665,-4.7309,-4.7704,-4.7704,-4.7721,-4.782,-4.8034,-4.8067,-4.8084,-4.8067,-4.805,-4.8034,-4.8034,-4.8017,-4.8001,-4.8001,-4.8001,-4.8001,-4.8001,-4.8001,-4.8001,-4.8001,-4.8001,-4.8001,-4.8001,-4.8001,-4.7984,-4.7885,-4.7156,-4.6891,-4.6659,-4.5187,-4.3422,-4.1819,-4.1754,-4.0502,-3.897,-3.8797,-3.8295,-3.7733,-3.7578,-3.7661,-3.7748,-3.7499,-3.7514,-3.7612,-3.7718,-3.7312,-3.6753,-3.6123,-3.5927,-3.5614,-3.4627,-3.4171,-3.4068,-3.4597,-3.4259,-3.3827,-3.364,-3.3793,0.0,-3.364,-3.4305,-3.4853,-3.507,-3.5582,-3.6028,-3.6207,-3.5677,-3.5363,-3.5334,-3.4157,-3.3474,-3.3503,-3.2861,-3.2495,-3.2478,-3.055,-2.9147,-2.8333,0.0,0.0,0.0,0.0,0.0,0.0,0.0,0.0,0.0,0.0,0.0,0.0,0.0,0.0,0.0,0.0,0.0,0.0,0.0,0.0,0.0,-3.7947,-4.0067,-4.0464,-4.2096,-4.3746,-4.5092,-4.6306,-4.6799,-4.6192,-4.6848,-4.7308,-4.7408,-4.7589,-4.7737,-4.7886,-4.8431,-4.8729,-4.8812,-4.9326,-4.954,-4.937,-4.8994,-4.8729,-4.8579,-4.8183,-4.8001,-4.8001,-4.8001,-4.8001,-4.8001,-4.8001,-4.8001,-4.8001,-4.8001,-4.8001,-4.8001,-4.8001,-4.7669,-4.7173,-4.6974,-4.656,-4.5904,-4.4397,-4.3223,-4.2185,-4.1131,-4.0132,-3.9424,-3.9998,-3.9666,-3.928,-3.9854,-4.0147,-3.997,-3.8552,-3.8983,-3.957,-3.8472,-3.7988,-3.7733,-3.754,-3.6645,-3.5815,-3.5536,-3.4821,-3.4312,-3.4462,-3.4157,-3.3896,-3.3827,-3.3951,-3.404,-3.3971,-3.4286,-3.4539,-3.4607,-3.4752,-3.4868,-3.4936,-3.4777,-3.4472,-3.4055,-3.3224,-3.2977,-3.3474,-3.2861,-3.2443,-3.2364,-3.089,-2.9778,0.0,0.0,0.0,0.0,0.0,0.0,0.0,0.0,0.0,0.0,0.0,0.0,0.0,0.0,0.0,0.0,0.0,0.0,0.0,0.0,0.0,0.0,-3.9901,-4.2158,-4.3115,-4.4257,-4.5373,-4.6485,-4.7342,-4.7754,-4.7554,-4.7637,-4.7737,-4.782,-4.782,-4.7985,-4.8332,-4.8829,-4.9209,-4.944,-4.992,-5.0135,-5.0032,-4.9722,-4.9341,-4.8909,-4.8597,-4.8299,-4.8001,-4.8001,-4.8001,-4.8001,-4.8001,-4.8001,-4.8001,-4.8001,-4.8001,0.0,0.0,0.0,0.0,0.0,-4.6389,-4.5587,-4.4418,-4.3167,-4.1991,-4.1209,-4.0477,-4.0034,-4.0643,-4.0761,-4.0761,-4.1286,-4.1574,-4.1443,-4.0257,-4.0531,-4.0821,-3.9859,-3.9254,-3.8842,-3.8542,-3.7466,-3.6456,-3.6189,-3.531,0.0,-3.4601,-3.4346,-3.4088,-3.402,-3.4108,-3.4196,-3.4128,-3.4264,-3.4414,-3.4414,-3.4414,-3.4414,-3.4414,-3.4414,0.0,0.0,0.0,-3.2962,-3.3064,-3.2716,0.0,0.0,0.0,0.0,0.0,0.0,0.0,0.0,-2.8436,-2.8812,0.0,0.0,0.0,0.0,0.0,0.0,0.0,0.0,0.0,0.0,0.0,0.0,0.0,0.0,0.0,0.0,-4.1475,-4.3595,-4.5632,-4.656,-4.7023,-4.6991,-4.7603,-4.8001,-4.7968,-4.8001,-4.8001,-4.8001,-4.8051,-4.8299,-4.8809,-4.9159,0.0,0.0,0.0,-5.0418,-5.0418,-5.0269,-4.9888,-4.9309,-4.906,-4.868,-4.8133,-4.8034,-4.8001,-4.8001,-4.8001,-4.8001,-4.8001,-4.8001,-4.8001,-4.8001,-4.8001,-4.8001,-4.7886,-4.7118,-4.6372,-4.5721,-4.4871,0.0,0.0,-4.1672,-4.125,-4.0779,-4.1037,-4.1505,-4.1923,-4.2225,-4.2337,-4.2401,-4.2217,-4.1949,-4.1658,-4.1372,-4.066,-3.9864,-3.9241,-3.8239,-3.7308,-3.6723,-3.5689,-3.4902,-3.4902,-3.4635,-3.4346,-3.4162,-3.4312,-3.4346,-3.4162,-3.4312,-3.4414,-3.4414,0.0,0.0,-3.4414,-3.4414,-3.4414,-3.4414,-3.3891,-3.3282,-3.2643,-3.2669,-3.2227,-3.1216,-3.1229,-3.0781,-2.988,-3.0382,-3.067,-3.0758,-2.9202,-2.9681,0.0,0.0,0.0,0.0,0.0,0.0,0.0,0.0,0.0,0.0,0.0,0.0,0.0,0.0,0.0,-4.1888,-4.3833,-4.5516,-4.6527,-4.7322,-4.772,-4.7556,-4.7803,-4.7935,-4.777,-4.7886,-4.8001,-4.8001,-4.8398,-4.8777,-4.9027,-5.0048,-5.0742,-5.103,-5.1645,-5.1888,-5.171,-5.0696,-5.0367,-5.0606,-4.8994,0.0,-4.8879,-4.8266,-4.8001,-4.8001,-4.8001,-4.8001,-4.8001,-4.8001,-4.8001,-4.8001,-4.8001,-4.8001,-4.7886,-4.7118,-4.673,-4.6394,-4.5002,-4.401,-4.3164,-4.2065,-4.1364,-4.1088,-4.1818,-4.166,0.0,-4.3538,-4.3615,-4.3127,-4.326,-4.2858,-4.2279,-4.1689,-4.0942,-4.0285,-3.9899,-3.8793,-3.7748,-3.7323,-3.5967,-3.4902,-3.4902,-3.4635,-3.438,-3.4346,-3.438,-3.438,-3.4346,-3.438,-3.4414,-3.4414,-3.4414,-3.4414,-3.4414,-3.4414,-3.4414,-3.4414,-3.4298,-3.3949,-3.3344,-3.3775,-3.334,-3.1933,-3.1911,-3.1413,-3.0457,-3.057,-3.106,-3.1888,-3.111,-3.1263,0.0,0.0,0.0,0.0,0.0,0.0,0.0,0.0,0.0,0.0,0.0,-3.7695,-3.8761,0.0,-4.2584,-4.4045,-4.5445,-4.6609,-4.7355,-4.7769,-4.7968,-4.7853,-4.7935,-4.7968,-4.7853,-4.7935,-4.8001,-4.8001,-4.8497,-4.9007,-4.9488,-5.0441,-5.1215,-5.1685,-5.2156,-5.2172,-5.1685,-5.108,-5.0517,-5.005,-4.901,-4.8547,-4.8547,-4.8166,-4.8001,-4.8001,-4.8001,-4.8001,-4.8001,-4.8001,-4.8001,-4.7968,-4.7555,-4.7404,-4.7303,-4.655,-4.5989,-4.5483,-4.4465,-4.3747,-4.3113,-4.2271,-4.1845,-4.1681,-4.1899,-4.1862,-4.2117,-4.3657,-4.3796,-4.3536,-4.3987,-4.334,-4.2525,-4.2186,-4.1258,-4.0455,-4.0296,-3.9467,-3.854,-3.782,-3.6626,-3.5537,-3.4994,-3.4635,-3.4414,-3.4414,-3.4414,-3.4414,-3.4414,-3.4414,-3.4414,-3.4414,-3.4414,-3.4414,-3.4414,-3.4414,-3.4414,-3.4414,-3.4414,-3.4086,-3.3368,-3.3654,-3.3087,-3.1526,-3.1769,-3.1445,-3.062,-3.116,-3.1687,-3.2215,-3.2227,-3.2378,0.0,0.0,0.0,0.0,0.0,0.0,0.0,-3.399,-3.5473,-3.6746,-3.8168,-3.9555,-4.0846,-4.2597,-4.4337,-4.5827,-4.6542,-4.7156,-4.7901,-4.8001,-4.8001,-4.8001,-4.8001,-4.8001,-4.8001,-4.8001,-4.8067,-4.8199,-4.8579,-4.9187,-5.0129,-5.0721,-5.1345,-5.2142,-5.2318,-5.2061,-5.1315,-5.1166,-5.0485,-4.9326,-4.9028,-4.8647,-4.8216,-4.8067,-4.8001,-4.8001,-4.8001,-4.8001,-4.8001,-4.8001,-4.8001,-4.7951,-4.7186,-4.6777,-4.6604,-4.5789,-4.511,-4.4488,-4.3934,-4.3421,-4.2962,-4.2618,-4.2423,-4.2297,-4.192,-4.2078,-4.2556,-4.3202,-4.3424,-4.3578,-4.424,-4.3402,-4.2448,-4.2586,-4.1504,-4.0489,-4.0489,-3.9967,-3.9223,-3.8299,-3.7216,-3.6189,-3.5156,-3.4668,-3.4414,-3.4414,-3.4414,-3.4414,-3.4414,-3.4414,-3.4414,-3.4414,-3.4414,-3.4414,-3.4414,-3.4414,-3.4472,-3.4588,-3.4603,-3.4358,-3.3839,-3.3649,-3.2885,-3.1499,-3.1717,-3.1538,-3.0922,-3.1788,-3.2277,-3.239,-3.2855,-3.3124,-2.9341,-2.9836,-3.0474,-3.1686,-3.2044,-3.2845,0.0,-3.6816,-3.775,-3.956,-4.1183,-4.2549,-4.3352,-4.4171,-4.5236,-4.6714,-4.692,-4.7156,-4.7901,-4.8001,-4.8001,-4.8001,-4.8001,-4.8001,-4.8001,-4.8001,-4.8266,-4.8945,-4.8876,-4.9486,-5.1047,-5.1055,-5.1416,-5.2321,-5.239,-5.2061,-5.1315,-5.0651,-5.0253,-5.0071,-4.8763,-4.8431,-4.8961,-4.8299,-4.8001,-4.8001,-4.8001,-4.8001,-4.8001,-4.8001,-4.8049,-4.8098,-4.7354,-4.6742,-4.6166,-4.5243,-4.4849,-4.4715,-4.4151,-4.4043,-4.4029,-4.338,-4.2895,-4.255,-4.2509,-4.2125,-4.1848,-4.2525,-4.2709,-4.2863,-4.3547,-4.2709,-4.1863,-4.2463,-4.1504,-4.0489,-4.0489,-3.9967,-3.9275,-3.8565,-3.7397,-3.6256,-3.5487,-3.482,-3.4414,-3.4414,-3.4414,-3.4414,-3.4414,-3.4414,-3.4414,-3.4414,-3.4414,-3.4414,-3.4414,-3.4414,-3.4646,-3.5261,-3.529,-3.5503,-3.5912,-3.52,-3.4413,-3.3574,-3.2868,-3.2323,-3.2039,-3.2152,-3.2478,-3.298,-3.3056,-3.3124,-2.9973,-3.0577,-3.1147,-3.1755,-3.271,-3.3911,-3.5533,-3.6874,-3.8322,-4.023,-4.1361,-4.2588,-4.4613,-4.5227,-4.5908,-4.7385,-4.7569,-4.7653,-4.7968,-4.8001,-4.8001,-4.8001,-4.8001,-4.8001,-4.8001,-4.8001,-4.8315,-4.9044,-4.8909,-4.9337,-5.0601,-5.0478,-5.0808,-5.1711,-5.133,-5.0966,-5.0651,-4.9939,-4.9359,-4.8912,-4.8299,-4.8166,-4.8465,-4.815,-4.8001,-4.8001,-4.8001,-4.8001,-4.8001,-4.8001,-4.8033,-4.8017,-4.7371,-4.6689,-4.6005,-4.5243,-4.4715,-4.4328,-4.4205,-4.4243,-4.4213,-4.3637,-4.335,-4.3033,-4.2248,-4.1817,-4.1663,-4.194,-4.2017,-4.2171,-4.2833,-4.2309,-4.1678,-4.1955,-4.1247,-4.0489,-4.0489,-4.0274,-3.9717,-3.8442,-3.7782,-3.6905,-3.538,-3.4887,-3.4635,-3.4448,-3.4414,-3.4414,-3.4414,-3.4414,-3.4414,-3.4414,-3.4414,-3.4559,-3.4936,-3.4965,-3.5241,-3.5865,-3.5909,-3.5619,-3.4948,-3.456,-3.375,-3.2488,-3.2382,-3.2295,-3.2215,-3.2554,-3.2842,-3.3124,-3.3124,-3.3124,-3.0819,-3.131,-3.1732,-3.2014,-3.3175,-3.4421,-3.5269,-3.6765,-3.8412,-4.0121,-4.1128,-4.2435,-4.4771,-4.5533,-4.6212,-4.7487,-4.7868,-4.8001,-4.8001,-4.8001,-4.8001,-4.8001,-4.8001,-4.8001,-4.8001,-4.8001,-4.8315,-4.9044,-4.8778,-4.9059,-5.012,-4.9868,-5.0083,-5.0966,-5.0485,-5.0121,-4.9906,-4.9375,-4.873,-4.8001,-4.8001,-4.8001,-4.8001,-4.8001,-4.8001,-4.8001,-4.8001,-4.8001,-4.8001,-4.8001,-4.8066,-4.8082,-4.7438,-4.6793,-4.6127,-4.5515,-4.4768,-4.4089,-4.432,-4.4396,-4.432,-4.3965,-4.3762,-4.3393,-4.2217,-4.1755,-4.1555,-4.1355,-4.1309,-4.1463,-4.2155,-4.1817,-4.1355,-4.1555,-4.1047,-4.0489,-4.0489,-4.0489,-4.0082,-3.8681,-3.8336,-3.7642,-3.5689,-3.5267,-3.5007,-3.4477,-3.4414,-3.4414,-3.4414,-3.4414,-3.4414,-3.4414,-3.4574,-3.4864,-3.5363,-3.5552,-3.5894,-3.6548,-3.6346,-3.5781,-3.4766,-3.4263,-3.3489,-3.225,-3.2365,-3.2453,-3.2453,-3.2867,-3.3124,-3.3124,-3.3124,-3.3124,-3.194,-3.2166,-3.2521,-3.3183,-3.3398,-3.3926,-3.5754,-3.7115,-3.8341,-3.9487,-4.1177,-4.2704,-4.3515,-4.4837,-4.6046,-4.6808,-4.7537,-4.8001,-4.8001,-4.8001,-4.8001,-4.8001,-4.8001,-4.8001,-4.8001,-4.8001,-4.8315,-4.9044,-4.8448,-4.8663,-5.0137,-4.9541,-4.9475,-5.022,-5.022,-4.9872,-4.9144,-4.9127,-4.873,-4.8001,-4.8001,-4.8001,-4.8001,-4.8001,-4.8001,-4.8001,-4.8001,-4.8001,-4.8001,-4.8001,-4.8179,-4.842,-4.7671,-4.7152,-4.6673,-4.5933,-4.5104,-4.432,-4.4511,-4.4572,-4.4572,-4.4594,-4.4132,-4.3485,-4.2771,-4.2125,-4.1447,-4.072,-4.052,-4.0689,-4.1447,-4.1093,-4.0705,-4.1432,-4.1047,-4.0489,-4.0489,-4.0489,-4.029,-3.9582,-3.9173,-3.844,-3.6727,-3.6134,-3.5521,-3.4535,-3.4414,-3.4414,-3.4414,-3.4414,-3.4414,-3.4414,-3.4965,-3.5378,-3.5392,-3.5923,-3.6562,-3.723,-3.6475,-3.6262,-3.6774,-3.5251,-3.4345,-3.4304,-3.3488,-3.3056,-3.3056,-3.3111,-3.3124,-3.3124,-3.3124,-3.3124,-3.1925,-3.2117,-3.2552,-3.3229,-3.3398,-3.3702,-3.4818,-3.6203,-3.7504,-3.8398,-3.9923,-4.1624,-4.3284,-4.4514,-4.5637,-4.6724,-4.7601,-4.8115,-4.8001,-4.8001,-4.8001,-4.8001,-4.8001,-4.8001,-4.8001,-4.8001,-4.8315,-4.9044,-4.8431,-4.8431,-4.9425,-4.8779,-4.8713,-4.9458,-4.9011,-4.8862,-4.911,-4.8614,-4.8249,-4.8001,-4.8001,-4.8001,-4.8001,-4.8001,-4.8001,-4.8001,-4.8001,-4.8001,-4.8001,-4.8001,-4.8115,-4.826,-4.7655,-4.7067,-4.6518,-4.5897,-4.5179,-4.4511,-4.4587,-4.461,-4.461,-4.461,-4.4163,-4.3485,-4.2802,-4.214,-4.1447,-4.0689,-4.0489,-4.0551,-4.0832,-4.0674,-4.0551,-4.0797,-4.0674,-4.0489,-4.0489,-4.0858,-4.1032,-4.029,-4.0466,-4.01,-3.8097,-3.7306,-3.6378,-3.4675,-3.4414,-3.4414,-3.4414,-3.4777,-3.5072,-3.5072,-3.5604,-3.617,-3.662,-3.6852,-3.7244,-3.7868,-3.7063,-3.644,-3.6068,-3.4978,-3.4105,-3.3539,-3.324,-3.3124,-3.3124,-3.3124,-3.3124,-3.3124,-3.3124,-3.3124,-3.2327,-3.2319,-3.2518,-3.2992,-3.3072,-3.3229,-3.3921,-3.5237,-3.6541,-3.7431,-3.9019,-4.075,-4.2489,-4.3839,-4.5077,-4.6293,-4.7234,-4.7863,-4.8,-4.8001,-4.8001,-4.8001,-4.8233,-4.8398,-4.8398,-4.863,-4.8879,-4.9094,-4.8663,-4.8597,-4.9077,-4.8398,-4.8216,-4.8696,-4.8249,-4.8233,-4.8713,-4.8249,-4.8001,-4.8001,-4.8001,-4.8001,-4.8001,-4.8001,-4.8001,-4.8001,-4.8001,-4.8001,-4.8001,-4.8001,-4.8115,-4.8292,-4.7918,-4.7304,-4.6569,-4.6218,-4.5458,-4.461,-4.461,-4.461,-4.461,-4.461,-4.4163,-4.3485,-4.2802,-4.214,-4.1447,-4.0689,-4.0489,-4.0489,-4.0489,-4.0489,-4.0489,-4.0489,-4.0489,-4.0489,-4.0489,-4.1093,-4.1463,-4.1001,-4.1172,-4.0827,-3.9073,-3.7828,-3.6532,-3.4976,-3.4951,-3.5009,-3.4777,-3.5145,-3.5479,-3.5712,-3.6272,-3.6838,-3.7273,-3.7506,-3.7796,-3.8188,-3.7078,-3.6188,-3.5615,-3.4524,-3.3654,-3.3124,-3.3124,-3.3124,-3.3124,-3.3124,-3.3124,-3.3124,-3.3124,-3.3124,-3.3102,-3.2726,-3.2425,-3.2551,-3.2496,-3.2567,-3.3198,-3.4307,-3.5508,-3.661,-3.8432,-4.0135,-4.117,-4.286,-4.4449,-4.5562,-4.6568,-4.7364,-4.7934,-4.8001,-4.8017,-4.805,-4.868,-4.9127,-4.916,-4.9839,-4.9988,-4.9276,-4.9144,-4.911,-4.911,-4.8398,-4.8001,-4.8001,-4.8001,-4.8001,-4.8001,-4.8001,-4.8001,-4.8001,-4.8001,-4.8001,-4.8001,-4.8001,-4.8001,-4.8001,-4.8001,-4.8001,-4.8001,-4.8001,-4.8179,-4.8483,-4.8452,-4.7754,-4.6777,-4.6742,-4.5841,-4.461,-4.461,-4.461,-4.461,-4.461,-4.4132,-4.3439,-4.2802,-4.2109,-4.1401,-4.0689,-4.0489,-4.0489,-4.0489,-4.0489,-4.0489,-4.0489,-4.0489,-4.0489,-4.0489,-4.1093,-4.1601,-4.1566,-4.1229,-4.0604,-3.9616,-3.7693,-3.6141,-3.5552,-3.5923,-3.6083,-3.5479,-3.545,-3.5726,-3.6286,-3.6954,-3.736,-3.736,-3.7883,-3.8165,-3.8127,-3.6543,-3.5574,-3.5534,-3.3953,-3.3124,-3.3124,-3.3124,-3.3124,-3.3124,-3.3124,-3.3124,-3.3124,-3.3124,-3.3124,-3.2295,-3.2257,-3.2425,-3.2425,-3.2425,-3.2444,-3.2613,-3.3979,-3.5366,-3.5954,-3.7598,-3.9268,-4.0442,-4.2539,-4.4278,-4.4882,-4.6745,-4.8107,-4.8,-4.8001,-4.8199,-4.8763,-4.8995,-4.9326,-4.9889,-5.0585,-5.0932,-5.0734,-4.9723,-4.911,-4.911,-4.8398,-4.8001,-4.8001,-4.8001,-4.8001,-4.8001,-4.8001,-4.8001,-4.8001,-4.8001,-4.8001,-4.8001,-4.8001,-4.8001,-4.8001,-4.8001,-4.8001,-4.8001,-4.8001,-4.8115,-4.8227,-4.7853,-4.7237,-4.6518,-4.6111,-4.5384,-4.461,-4.461,-4.461,-4.461,-4.461,-4.3802,-4.2817,-4.2663,-4.1771,-4.0735,-4.0551,-4.0489,-4.0489,-4.0489,-4.0489,-4.0489,-4.0489,-4.0489,-4.0489,-4.0489,-4.1093,-4.1515,-4.1214,-4.0603,-4.001,-3.9758,-3.8238,-3.6823,-3.617,-3.6199,-3.6083,-3.5479,-3.6249,-3.6867,-3.7041,-3.7607,-3.797,-3.797,-3.8115,-3.7924,-3.7246,-3.6188,-3.5305,-3.4744,-3.3683,-3.3124,-3.3124,-3.3124,-3.3124,-3.3124,-3.3124,-3.3124,-3.3124,-3.3124,-3.3124,-3.2302,-3.2269,-3.2425,-3.2453,-3.2425,-3.2398,-3.2398,-3.3439,-3.4595,-3.5262,-3.681,-3.8346,-3.9385,-4.1603,-4.3558,-4.431,-4.6168,-4.7669,-4.8032,-4.8033,-4.8266,-4.9011,-4.9325,-4.977,-5.0601,-5.1276,-5.1655,-5.1655,-5.0683,-5.0055,-5.0055,-4.9061,-4.8481,-4.8481,-4.8166,-4.8001,-4.8001,-4.8001,-4.8001,-4.8001,-4.8001,-4.8001,-4.8001,-4.8001,-4.8001,-4.8001,-4.8001,-4.8001,-4.8001,-4.8001,-4.8082,-4.8163,-4.7853,-4.7237,-4.6448,-4.6147,-4.5458,-4.461,-4.461,-4.461,-4.461,-4.461,-4.3679,-4.2602,-4.2602,-4.1632,-4.0489,-4.0489,-4.0489,-4.0489,-4.0489,-4.0489,-4.0489,-4.0489,-4.0489,-4.0489,-4.0489,-4.1093,-4.1444,-4.0837,-4.0457,-4.0071,-3.9639,-3.8745,-3.7912,-3.7244,-3.7143,-3.6925,-3.6286,-3.6852,-3.7404,-3.768,-3.7999,-3.8202,-3.8202,-3.7848,-3.7414,-3.6936,-3.5762,-3.4855,-3.4439,-3.3569,-3.3124,-3.3124,-3.3124,-3.3124,-3.3124,-3.3124,-3.3124,-3.3124,-3.3124,-3.3124,-3.2741,-3.2619,-3.2564,-3.269,-3.2619,-3.249,-3.2305,-3.29,-3.3746,-3.4579,-3.6066,-3.748,-3.8328,-4.0464,-4.254,-4.3817,-4.5293,-4.675,-4.7995,-4.8082,-4.8315,-4.916,-4.9636,-5.0294,-5.1312,-5.1795,-5.2066,-5.2066,-5.1636,-5.138,-5.128,-4.9988,-4.926,-4.926,-4.863,-4.8249,-4.815,-4.8249,-4.8199,-4.8001,-4.81,-4.81,-4.8001,-4.8001,-4.8001,-4.8001,-4.8001,-4.8001,-4.8001,-4.8001,-4.8017,-4.8065,-4.8081,-4.7372,-4.6343,-4.6378,-4.5624,-4.461,-4.461,-4.461,-4.461,-4.461,-4.3741,-4.2725,-4.2633,-4.1709,-4.0612,-4.052,-4.0489,-4.0489,-4.0489,-4.0489,-4.0489,-4.0489,-4.0489,-4.0489,-4.0489,-4.0981,-4.1179,-4.0521,-4.0456,-4.0274,-3.947,-3.9247,-3.9,-3.842,-3.8333,-3.8115,-3.7506,-3.7433,-3.7622,-3.8144,-3.8202,-3.8165,-3.8037,-3.7323,-3.6819,-3.657,-3.5196,-3.4356,-3.423,-3.3484,-3.3124,-3.3124,-3.3124,-3.3124,-3.3124,-3.3124,-3.3124,-3.3124,-3.3124,-3.3124,-3.3103,-3.3257,-3.3229,-3.3257,-3.3257,-3.2936,-3.184,-3.2858,-3.4067,-3.4063,-3.55,-3.7072,-3.8218,-3.9878,-4.1636,-4.3398,-4.5143,-4.6689,-4.785,-4.8001,-4.8514,-4.9856,-4.9949,-5.0422,-5.1809,-5.1911,-5.1851,-5.1851,-5.1898,-5.1677,-5.1067,-5.0382,-5.0021,-5.0021,-4.9906,-4.9541,-4.8928,-4.9525,-4.9226,-4.8017,-4.863,-4.8597,-4.8001,-4.8001,-4.8001,-4.8001,-4.8001,0.0,-4.8001,-4.8001,-4.7737,-4.7321,-4.7471,-4.6759,-4.5608,-4.5805,-4.5311,-4.461,-4.461,-4.461,-4.461,-4.461,-4.4086,-4.331,-4.2771,-4.2048,-4.1294,-4.0659,-4.0489,-4.0489,-4.0489,-4.0489,-4.0489,-4.0489,-4.0489,-4.0489,-4.0489,-4.0388,-4.0294,-4.0321,-3.9661,-3.9318,-3.9848,-3.9523,-3.916,-3.9044,-3.903,-3.8797,-3.813,-3.8043,-3.8086,-3.8188,-3.8202,-3.7924,-3.7169,-3.6975,-3.6294,-3.4909,-3.4551,-3.4076,-3.3368,-3.3167,-3.3124,-3.3124,-3.3124,-3.3124,-3.3124,-3.3124,-3.3124,-3.3124,-3.3124,-3.3124,-3.3213,-3.3152,-3.2952,-3.3306,-3.3136,-3.2705,-3.2059,-3.2617,-3.3383,-3.3803,-3.4901,-3.6107,-3.7244,-3.8966,-4.0799,-4.2528,-4.4052,-4.5657,-4.7349,-4.7502,-4.8117,-4.9988,-4.9928,-5.0347,-5.1971,-5.1831,-5.1647,-5.1647,-5.1831,-5.1829,-5.1592,-5.1059,-5.0601,-5.022,-5.022,-4.9856,-4.911,-4.9458,-4.9094,-4.8001,-4.8365,-4.8349,-4.8001,-4.8001,-4.8001,-4.8001,-4.8001,-4.8001,-4.8001,-4.8001,-4.782,-4.7555,-4.7337,-4.6689,-4.5841,-4.5624,-4.5126,-4.461,-4.461,-4.461,-4.461,-4.461,-4.3895,-4.3017,-4.2709,-4.1878,-4.0935,-4.0597,-4.0489,-4.0489,-4.0489,-4.0489,-4.0489,-4.0489,-4.0489,-4.0489,-4.0489,-4.0242,-4.0016,-4.0139,-3.9705,-3.9429,-3.987,-3.9547,-3.9305,-3.9625,-3.9407,-3.9088,-3.8768,-3.8725,-3.8594,-3.8246,-3.8202,-3.7848,-3.6975,-3.6478,-3.5682,-3.4481,-3.3979,-3.3539,-3.3124,-3.3124,-3.3124,-3.3124,-3.3124,-3.3124,-3.3124,-3.3124,-3.3124,-3.3124,-3.3124,-3.3124,-3.3213,-3.3013,-3.2782,-3.346,-3.3229,-3.2752,-3.2432,-3.2588,-3.2944,-3.3518,-3.4297,-3.5263,-3.6523,-3.8086,-3.9845,-4.1858,-4.2996,-4.4464,-4.6814,-4.7003,-4.7669,-4.9723,-4.9795,-5.0211,-5.1668,-5.1639,-5.1462,-5.1424,-5.1668,-5.1904,-5.2102,-5.1721,-5.1264,-5.0701,-5.0518,-5.0088,-4.9342,-4.9342,-4.8895,-4.8001,-4.8166,-4.815,-4.8001,-4.8001,-4.8001,-4.8001,-4.8001,-4.8001,-4.8001,-4.8001,-4.7919,-4.7754,-4.7152,-4.6585,-4.6036,-4.5458,-4.4955,-4.461,-4.461,-4.461,-4.461,-4.461,-4.3879,-4.2971,-4.2694,-4.1848,-4.0874,-4.0566,-4.0489,-4.0489,-4.0489,-4.0489,-4.0489,-4.0489,-4.0489,-4.0489,-4.0489,-4.0296,-4.0066,-3.991,-3.9792,-3.9712,-3.9671,-3.9396,-3.9363,-3.9842,-3.961,-3.9291,-3.903,-3.9117,-3.8942,-3.8275,-3.8202,-3.7758,-3.6727,-3.5989,-3.5196,-3.4189,-3.3496,-3.3124,-3.3124,-3.3124,-3.3124,-3.3124,-3.3124,-3.3124,-3.3124,-3.3124,-3.3124,-3.3124,-3.3124,-3.3124,-3.3213,-3.3352,-3.3475,-3.4227,-3.4351,-3.3923,-3.2538,-3.3177,-3.3783,-3.2892,-3.3688,-3.5103,-3.6904,-3.7378,-3.8619,-4.1913,-4.2663,-4.3772,-4.6525,-4.6891,-4.7471,-4.9028,-4.9619,-5.0103,-5.0749,-5.1218,-5.1424,-5.1221,-5.1594,-5.1904,-5.2102,-5.2217,-5.2293,-5.2175,-5.1564,-5.0833,-5.0121,-5.0121,-4.9409,-4.8017,-4.868,-4.8647,-4.8001,-4.8001,-4.8001,-4.8001,-4.8001,-4.8001,0.0,-4.8001,-4.7671,-4.7118,-4.6601,-4.602,-4.5405,-4.488,-4.4648,-4.461,-4.461,-4.461,-4.461,-4.461,-4.4533,-4.4172,-4.2971,-4.2525,-4.2155,-4.0843,-4.0489,-4.0489,-4.0489,-4.0489,-4.0489,-4.0489,-4.0489,-4.0489,-4.0489,-4.0489,-4.0246,-3.9595,-3.946,-3.9408,-3.9279,-3.9242,-3.9218,-3.9276,-3.9697,-3.9596,-3.8449,-3.8826,-3.8942,-3.8275,-3.8202,-3.7515,-3.5855,-3.5669,-3.491,-3.3326,-3.3154,-3.3124,-3.3124,-3.3124,-3.3124,-3.3124,-3.3124,-3.3124,-3.3124,-3.3124,-3.3124,-3.3124,-3.3124,-3.3124,-3.3008,-3.3021,-3.3031,-3.4051,-3.4079,-3.3662,-3.2953,-3.3283,-3.3552,-3.2972,-3.3822,-3.5184,-3.676,-3.7535,-3.8878,-4.1677,-4.2116,-4.2924,-4.5249,-4.5947,-4.6792,-4.8266,-4.9306,-5.0157,-5.081,-5.1368,-5.1647,-5.1557,-5.1421,-5.1355,-5.1443,-5.2035,-5.2409,-5.2409,-5.1696,-5.0932,-5.022,-4.9773,-4.9028,-4.8001,-4.8299,-4.8282,-4.8001,-4.8001,-4.8001,-4.8001,-4.8001,-4.8001,0.0,-4.8001,-4.7621,-4.705,-4.6496,-4.5913,-4.5332,-4.4783,-4.461,-4.461,-4.461,-4.461,-4.461,-4.461,-4.461,-4.4363,-4.3002,-4.2325,-4.1801,-4.0766,-4.0489,-4.0489,-4.0489,-4.0489,-4.0489,-4.0489,-4.0489,-4.042,-4.0226,-4.0207,-4.0051,-3.9487,-3.9184,-3.9017,-3.8964,-3.8745,-3.8739,-3.9146,-3.9407,-3.9509,-3.9363,-3.9262,-3.9102,-3.8826,-3.8449,-3.7477,-3.5735,-3.5615,-3.4869,-3.3197,-3.3124,-3.3124,-3.3124,-3.3124,-3.3124,-3.3124,-3.3124,-3.3124,-3.3124,-3.3124,-3.3124,-3.3124,-3.3124,-3.3124,-3.2907,-3.2905,-3.2874,-3.4133,-3.4191,-3.3836,-3.3464,-3.3519,-3.3591,-3.3419,-3.4091,-3.5245,-3.7023,-3.7908,-3.9051,-4.1186,-4.1577,-4.2335,-4.442,-4.5317,-4.6344,-4.7819,-4.8778,-4.97,-5.0587,-5.1346,-5.1733,-5.1467,-5.1172,-5.09,-5.0686,-5.1357,-5.1744,-5.1744,-5.1015,-5.0386,-4.9889,-4.9144,-4.8514,-4.8001,-4.8001,-4.8001,-4.8001,-4.8001,-4.8001,-4.8001,-4.8001,-4.8001,0.0,-4.8001,-4.7737,-4.7303,-4.6566,-4.6036,-4.5588,-4.4858,-4.461,-4.461,-4.461,-4.461,-4.461,-4.461,-4.461,-4.4363,-4.3002,-4.2279,-4.1709,-4.0751,-4.0489,-4.0489,-4.0489,-4.0489,-4.0489,-4.0489,-4.0489,-4.0436,-4.0207,-4.0137,-4.0016,-3.9487,-3.9184,-3.8892,-3.8671,-3.8389,-3.8362,-3.8826,-3.9073,-3.9276,-3.9509,-3.9334,-3.9117,-3.8928,-3.8236,-3.7193,-3.5735,-3.5386,-3.4635,-3.3197,-3.3124,-3.3124,-3.3124,-3.3124,-3.3124,-3.3124,-3.3124,-3.3124,-3.3124,-3.3124,-3.3124,-3.3124,-3.3124,-3.3124,-3.3016,-3.3084,-3.3331,-3.4668,-3.511,-3.4927,-3.4001,-3.4,-3.4214,-3.4274,-3.4387,-3.5289,-3.789,-3.8273,-3.8718,-4.0357,-4.1061,-4.217,-4.4373,-4.5317,-4.6344,-4.7819,-4.8017,-4.8531,-4.978,-5.1051,-5.1483,-5.0762,-5.0892,-5.0686,-4.9961,-5.0117,-5.0237,-5.0237,-4.9525,-4.9127,-4.9127,-4.8382,-4.8017,-4.8001,-4.8001,-4.8001,-4.8001,-4.8001,-4.8001,-4.8001,-4.8001,-4.8001,0.0,-4.8001,-4.8001,-4.7902,-4.6756,-4.6301,-4.6143,-4.5008,-4.461,-4.461,-4.461,-4.461,-4.461,-4.461,-4.461,-4.4363,-4.3002,-4.2602,-4.2309,-4.0874,-4.0489,-4.0489,-4.0489,-4.0489,-4.0489,-4.0489,-4.0489,-4.0489,-4.0505,-4.0489,-4.0281,-3.9544,-3.94,-3.9147,-3.8352,-3.8202,-3.8202,-3.8217,-3.8783,-3.8971,-3.8304,-3.8797,-3.8942,-3.8275,-3.7414,-3.657,-3.5655,-3.4855,-3.4021,-3.3167,-3.3124,-3.3124,-3.3124,-3.3124,-3.3124,-3.3124,-3.3124,-3.3124,-3.3124,-3.3124,-3.3124,-3.3124,-3.3124,-3.3124,-3.1528,-3.2256,-3.306,-3.3351,-3.3925,-3.4152,-3.3231,-3.3576,-3.4069,-3.4029,-3.4757,-3.5921,-3.7676,-3.8655,-3.9847,-4.1733,-4.1793,-4.2518,-4.51,-4.5649,-4.6146,-4.7123,-4.815,-4.911,-5.0002,-5.0479,-5.0626,-5.0395,-4.9951,-4.9588,-4.9357,-4.8945,-4.9177,-5.0187,-4.9491,-4.911,-4.911,-4.8365,-4.8001,-4.8001,-4.8001,-4.8001,-4.8001,-4.8001,-4.8001,-4.8001,-4.8001,-4.8001,-4.8001,-4.8001,-4.7737,-4.7337,-4.6981,-4.6375,-4.5624,-4.5274,-4.4918,-4.461,-4.461,-4.461,-4.461,-4.461,-4.4302,-4.3762,-4.2863,-4.2602,-4.2325,-4.0889,-4.0489,-4.0489,-4.0489,-4.0489,-4.0489,-4.0489,-4.0489,-4.0436,-4.0207,-4.0172,-4.0016,-3.9487,-3.9184,-3.8892,-3.8634,-3.8389,-3.8202,-3.8202,-3.8376,-3.8609,-3.8855,-3.8667,-3.8609,-3.8855,-3.7175,-3.5909,-3.5615,-3.4855,-3.4021,-3.3167,-3.3124,-3.3124,-3.3124,-3.3124,-3.3124,-3.3124,-3.3124,-3.3124,-3.3124,-3.3124,-3.3124,-3.3124,-3.3124,-3.3124,-3.1466,-3.2145,-3.2839,-3.2961,-3.3457,-3.3758,-3.3105,-3.3645,-3.4364,-3.4703,-3.563,-3.6788,-3.819,-3.9063,-4.0071,-4.1649,-4.1743,-4.2373,-4.4638,-4.545,-4.6063,-4.6808,-4.8199,-4.9177,-4.9359,-4.9889,-5.0104,-4.9823,-4.9375,-4.8978,-4.8713,-4.8249,-4.8431,-4.9342,-4.8928,-4.8696,-4.8696,-4.8233,-4.8001,-4.8001,-4.8001,-4.8001,-4.8001,-4.8001,-4.8001,-4.8001,-4.8001,-4.8001,0.0,-4.8001,-4.7787,-4.7421,-4.7186,-4.655,-4.5697,-4.5478,-4.5067,-4.461,-4.461,-4.461,-4.4579,-4.4317,-4.3608,-4.2756,-4.2355,-4.2048,-4.1612,-4.0735,-4.0489,-4.0489,-4.0489,-4.0489,-4.0489,-4.0489,-4.0489,-4.042,-4.0226,-4.0101,-3.9889,-3.9487,-3.9075,-3.8745,-3.8598,-3.8352,-3.8202,-3.8202,-3.8202,-3.8362,-3.8768,-3.8183,-3.7878,-3.8294,-3.6436,-3.5156,-3.5156,-3.4384,-3.3696,-3.3111,-3.3124,-3.3124,-3.3124,-3.3124,-3.3124,-3.3124,-3.3124,-3.3124,-3.3124,-3.3124,-3.3124,-3.3124,-3.3124,-3.3124,0.0,-3.2556,-3.2647,-3.3215,-3.3517,-3.3638,-3.338,-3.4037,0.0,-3.5991,-3.681,-3.7785,-3.9286,-3.9462,-3.9717,-4.0646,-4.1194,-4.2026,-4.3598,-4.5069,-4.6195,-4.6891,-4.8199,-4.8729,-4.8034,-4.9209,-4.9739,-4.9044,-4.9028,-4.873,-4.8034,-4.8001,-4.8001,-4.8001,-4.8001,-4.8001,-4.8001,-4.8001,-4.8001,-4.8001,-4.8001,-4.8001,-4.8001,-4.8001,-4.8001,-4.8001,-4.8001,-4.8001,-4.8001,-4.8001,-4.8001,-4.7919,-4.7371,-4.6811,-4.6205,-4.5618,-4.5032,-4.4509,-4.4471,-4.4471,-4.4363,-4.3685,-4.2638,-4.1586,-4.154,-4.1063,-4.0489,-4.0489,-4.0489,-4.0489,-4.0489,-4.0489,-4.0489,-4.0489,-4.0489,-4.0489,-4.0455,-4.0226,-3.9889,-3.9487,-3.9075,-3.8671,-3.8315,-3.8202,-3.8202,-3.8202,-3.8202,-3.8202,-3.8202,-3.7453,-3.6897,-3.6897,-3.5386,-3.4397,-3.4397,-3.3611,-3.3124,-3.3124,-3.3124,-3.3124,-3.3124,-3.3124,-3.3124,-3.3124,-3.3124,-3.3124,-3.3124,-3.3124,-3.3124,-3.3124,-3.3124,-3.3124,-3.1719,0.0,-3.2392,-3.2049,-3.2377,-3.2796,0.0,-3.363,-3.4843,-3.6105,-3.6932,-3.8014,-3.9841,-4.0242,-4.0868,-4.2597,-4.2535,-4.3135,-4.5765,-4.6908,-4.7554,-4.7719,-4.7902,-4.7968,-4.7803,-4.81,-4.8232,-4.8051,-4.8183,-4.8183,-4.8017,-4.7853,-4.7853,-4.8001,-4.7853,-4.7853,-4.8001,-4.8001,-4.8001,-4.8001,-4.8001,-4.8001,-4.8001,-4.8001,-4.8001,-4.8001,-4.8001,-4.8001,-4.8001,-4.8001,-4.8001,-4.8001,-4.7853,-4.7127,-4.61,-4.552,-4.4575,-4.3546,-4.3194,-4.3063,-4.2956,-4.2279,-4.1848,-4.1494,-4.094,-4.0628,-4.0489,-4.0489,-4.0489,-4.0489,-4.0489,-4.0489,-4.0489,-4.0489,-4.0489,-4.0436,-4.0172,-4.0066,-3.9889,-3.9487,-3.9075,-3.8745,-3.8686,-3.8412,-3.8202,-3.8202,-3.8202,-3.8202,-3.8202,-3.7453,-3.6897,-3.6897,-3.5386,-3.4397,-3.4397,-3.3611,-3.3124,-3.3124,-3.3124,-3.3124,-3.3124,-3.3124,-3.3124,-3.3124,-3.3124,-3.3124,-3.3124,-3.3124,-3.3124,-3.3124,-3.3124,-3.3124,-3.1511,-3.2198,-3.2886,-3.2497,-3.2706,-3.3186,-3.407,-3.4541,-3.5304,-3.6892,-3.7791,-3.8749,-4.0139,-4.0464,-4.1061,-4.2816,-4.3035,-4.3913,-4.6527,-4.7239,-4.762,-4.7968,-4.7886,-4.782,-4.7704,-4.7704,-4.7704,-4.7704,-4.7787,-4.7886,-4.8001,-4.7902,-4.7737,-4.7504,-4.739,-4.7555,-4.8001,-4.8001,-4.8001,-4.8001,-4.8001,-4.8001,-4.8001,-4.8001,-4.8001,-4.8001,-4.8001,-4.8001,-4.8001,-4.8001,-4.7802,-4.7504,-4.7504,-4.67,-4.5554,-4.5288,-4.4373,-4.3275,-4.3023,-4.2566,-4.2094,-4.1724,-4.137,-4.1032,-4.0612,-4.0489,-4.0489,-4.0489,-4.0489,-4.0489,-4.0489,-4.0489,-4.0489,-4.0489,-4.0385,-4.0226,-4.0046,-3.9696,-3.9394,-3.9162,-3.8782,-3.8523,-3.8523,-3.8352,-3.8202,-3.8202,-3.8202,-3.8202,-3.8202,-3.713,-3.6334,-3.632,-3.4814,-3.3823,-3.3823,-3.3368,-3.3124,-3.3124,-3.3124,-3.3124,-3.3124,-3.3124,-3.3124,-3.3124,-3.3124,-3.3124,-3.3124,-3.3124,-3.3124,-3.3124,-3.3124,-3.3124,-3.175,-3.2796,-3.3724,-3.3425,-3.3576,-3.4228,-3.581,0.0,0.0,0.0,0.0,-3.9564,-4.0409,-4.063,-4.1177,-4.2618,-4.3532,-4.4771,-4.6643,-4.699,-4.7305,-4.7934,-4.7968,-4.7886,-4.7704,-4.7704,-4.7704,-4.7704,-4.7737,-4.777,-4.7835,-4.7802,-4.7455,-4.6742,-4.6693,-4.6991,-4.7653,-4.7669,-4.7669,-4.7669,-4.7785,-4.7835,-4.7835,-4.7951,-4.7934,-4.7835,-4.7835,0.0,-4.7669,-4.7669,-4.7305,-4.6725,-4.6725,-4.6008,-4.4934,-4.487,-4.4166,-4.3239,-4.3066,-4.2288,-4.1432,-4.1432,-4.1032,-4.0489,-4.0489,-4.0489,-4.0489,-4.0489,-4.0489,-4.0489,-4.0489,-4.0489,-4.0489,-4.0489,-4.0226,-3.996,-3.9925,-3.9322,-3.8782,-3.8708,-3.8427,-3.8202,-3.8202,-3.8202,-3.8202,-3.8202,-3.8202,-3.8121,-3.7907,-3.6593,-3.5574,-3.5292,-3.3985,-3.3124,-3.3124,-3.3124,-3.3124,-3.3124,-3.3124,-3.3124,-3.3124,-3.3124,-3.3124,-3.3124,-3.3124,-3.3124,-3.3124,-3.3124,-3.3124,-3.3124,-3.3124,-3.3124,-3.2886,-3.4173,-3.4786,-3.3095,-3.3879,-3.5185,-3.5473,-3.6302,0.0,0.0,0.0,0.0,-4.1011,-4.1773,-4.2667,-4.4108,-4.55,-4.651,-4.6841,-4.7438,-4.7868,-4.7984,-4.7853,-4.7737,-4.7704,-4.7704,-4.7704,-4.7704,-4.7853,-4.7687,-4.7106,-4.6928,-4.6549,-4.598,-4.5821,-4.5839,-4.6129,-4.6129,-4.6129,-4.6146,-4.6775,-4.7073,-4.709,-4.7719,-4.7653,-4.7073,0.0,-4.6709,-4.6129,-4.6129,-4.6063,-4.5963,-4.5963,-4.5485,-4.47,-4.4246,-4.3603,-4.2831,-4.1938,-4.1202,-4.0659,-4.0659,-4.0582,-4.0489,-4.0489,-4.0489,-4.0489,-4.0489,-4.0489,-4.0489,-4.0489,-4.0489,-4.0489,-4.0489,-4.0226,-3.9925,-3.9559,-3.9126,-3.8708,-3.8352,-3.824,-3.8202,-3.8202,-3.8202,-3.8202,-3.8202,-3.8202,-3.7774,-3.6576,-3.5963,-3.5157,-3.395,-3.3389,-3.3124,-3.3124,-3.3124,-3.3124,-3.3124,-3.3124,-3.3124,-3.3124,-3.3124,-3.3124,-3.3124,-3.3124,-3.3124,-3.3124,-3.3124,-3.3124,-3.3124,-3.3124,-3.3124,-3.2243,-3.3664,-3.4726,-3.3799,-3.5055,-3.6658,-3.7396,-3.7758,-3.8242,0.0,0.0,-4.0746,-4.1806,-4.2589,-4.3698,-4.5582,-4.646,-4.704,-4.7438,-4.7785,-4.8001,-4.8001,-4.7935,-4.782,-4.7704,-4.7704,-4.7539,-4.7144,-4.7193,-4.6977,-4.6344,-4.6231,-4.5884,-4.5218,-4.5123,-4.491,-4.4622,-4.4622,-4.5019,-4.5798,-4.6129,-4.6295,-4.6311,-4.6659,-4.6626,-4.6295,0.0,-4.6096,-4.5798,-4.5798,-4.5566,-4.5202,-4.5202,-4.4754,-4.4048,-4.3542,-4.2987,-4.2349,-4.1588,-4.0953,-4.0489,-4.0489,-4.0489,-4.0489,-4.0489,-4.0489,-4.0489,-4.0489,-4.0489,-4.0489,-4.0489,-4.0489,-4.0489,-4.0489,-4.0071,-3.9646,-3.9451,-3.8892,-3.8427,-3.824,-3.8202,-3.8202,-3.8202,-3.8202,-3.8202,-3.8202,-3.8202,-3.7785,-3.6672,-3.5983,-3.5076,-3.3642,-3.2986,-3.2491,-3.219,-3.2164,-3.229,-3.2591,-3.2604,-3.2478,-3.2177,-3.2453,-3.2604,-3.2604,-3.2918,-3.3124,-3.3124,-3.3124,-3.3124,-3.3124,-3.3124,-3.3124,-3.1884,-3.3095,-3.4385,-3.4811,-3.6177,-3.7719,-3.9097,-3.9157,-3.9285,-4.0409,-4.1196,-4.1839,-4.239,-4.3383,-4.4787,-4.6825,-4.7156,-4.7355,-4.7918,-4.8001,-4.8001,-4.8001,-4.8001,-4.7869,-4.7539,-4.7523,-4.7226,-4.6484,-4.6418,-4.6168,-4.5566,-4.5533,-4.5202,-4.4456,-4.444,-4.4175,-4.3598,-4.3598,-4.4161,-4.5284,-4.5388,-4.5439,-4.5408,-4.5511,-4.5463,-4.5314,-4.5314,-4.523,-4.5175,-4.5175,-4.4922,-4.45,-4.45,-4.4198,-4.3687,-4.3328,-4.2836,-4.2317,-4.1737,-4.1174,-4.0715,-4.0558,-4.0489,-4.0489,-4.0489,-4.0489,-4.0489,-4.0489,-4.0489,-4.0489,-4.0489,-4.0489,-4.0489,-4.0401,-3.9879,-3.9364,-3.9292,-3.8708,-3.8202,-3.8202,-3.8202,-3.8202,-3.8202,-3.8202,-3.8202,-3.8202,-3.8202,-3.7753,-3.657,-3.5946,-3.4942,-3.3203,-3.253,-3.1989,-3.1436,-3.1386,-3.1524,-3.1825,-3.1951,-3.1838,-3.1411,-3.1788,-3.2077,-3.2215,-3.2641,-3.2943,-3.3124,-3.3124,-3.3124,-3.3124,-3.3124,-3.3124,-3.3021,-3.3455,-3.3998,-3.5736,-3.6723,-3.7669,-3.9082,-3.9856,-4.0466,-4.1177,-4.192,-4.2423,-4.2473,-4.4224,-4.6129,-4.7669,-4.7918,-4.7934,-4.8001,-4.8001,-4.8001,-4.8001,-4.8001,-4.7736,-4.704,-4.6942,-4.6659,-4.5914,-4.5864,-4.5549,-4.4804,-4.4771,-4.444,-4.3698,-4.3664,-4.3648,-4.3598,-4.3598,-4.3648,-4.3747,-4.4151,-4.4307,-4.4324,-4.4707,-4.4513,-4.3831,-4.3831,-4.3647,-4.3291,-4.3291,-4.3564,-4.3981,-4.3981,-4.3989,-4.4068,-4.401,-4.3667,-4.3125,-4.2475,-4.1884,-4.1343,-4.0715,-4.0489,-4.0489,-4.0489,-4.0489,-4.0489,-4.0489,-4.0489,-4.0489,-4.0489,-4.0489,-4.0436,-4.0101,-3.9717,-3.9292,-3.8929,-3.8486,-3.8202,-3.8202,-3.8202,-3.8202,-3.8202,-3.8202,-3.8202,-3.8202,-3.8202,-3.7429,-3.5221,-3.5315,-3.458,-3.1835,-3.1942,-3.1989,-3.1436,-3.1386,-3.1198,-3.0758,-3.1185,-3.1436,-3.1386,-3.1436,-3.1687,-3.2202,-3.2252,-3.2541,-3.3124,-3.3124,-3.3124,-3.3124,-3.3124,-3.3124,-3.2108,-3.317,-3.4359,-3.5462,-3.6875,0.0,-3.9718,-4.0926,-4.2113,-4.3265,-4.4078,-4.4556,-4.4556,-4.5616,-4.6659,-4.7222,-4.7703,-4.8001,-4.8001,-4.8001,-4.7835,-4.7371,-4.7322,-4.7023,-4.6278,-4.6212,-4.5897,-4.5152,-4.5102,-4.4787,-4.4075,-4.4026,-4.388,-4.3598,-4.3598,-4.3492,-4.3295,-4.3295,-4.3174,-4.2974,-4.3344,-4.343,-4.3195,-4.3377,-4.3281,-4.3022,-4.3022,-4.3033,-4.3113,-4.3113,-4.3325,-4.3734,-4.3868,-4.3969,-4.4097,-4.4097,-4.3772,-4.3216,-4.2522,-4.1949,-4.1393,-4.0715,-4.0489,-4.0489,-4.0489,-4.0489,-4.0489,-4.0489,-4.0489,-4.0489,-4.0489,-4.0331,-4.0172,-4.0031,-3.9502,-3.9002,-3.8819,-3.8486,-3.8202,-3.8202,-3.8202,-3.8202,-3.8202,-3.8202,-3.8202,-3.8202,-3.8202,-3.7506,-3.5555,-3.5479,-3.4526,-3.1703,-3.0984,-3.062,-3.0419,-3.0394,-3.0319,-3.0118,-3.0608,-3.0746,-3.0419,-3.0733,-3.1009,-3.121,-3.1537,-3.1976,-3.2541,-3.2541,-3.2717,-3.3124,-3.3124,-3.3124,-3.1809,-3.2976,-3.439,-3.5156,0.0,0.0,-4.0658,-4.2026,-4.3241,-4.4496,-4.511,-4.5582,-4.6063,-4.6361,-4.6709,-4.7173,-4.7487,-4.7653,-4.7653,-4.7454,-4.7123,-4.6609,-4.6543,-4.6245,-4.5516,-4.5433,-4.5135,-4.4406,-4.4357,-4.4141,-4.3615,-4.3598,-4.3598,-4.3598,-4.3492,-4.3342,-4.3113,-4.2756,-4.2538,-4.2444,-4.2189,-4.2189,-4.2444,-4.2333,-4.2269,-4.2269,-4.2269,-4.2459,-4.2789,-4.2789,-4.3082,-4.3568,-4.3894,-4.4068,-4.4184,-4.4241,-4.3993,-4.3532,-4.2849,-4.2237,-4.1624,-4.0972,-4.0627,-4.0489,-4.0489,-4.0489,-4.0489,-4.0489,-4.0436,-4.0331,-4.0331,-4.0172,-3.996,-3.9839,-3.9271,-3.8745,-3.8634,-3.8375,-3.8202,-3.8202,-3.8202,-3.8202,-3.8202,-3.8202,-3.8202,-3.8202,-3.8202,-3.7553,-3.5815,-3.5452,-3.426,-3.1451,-3.0331,-2.9792,-2.9792,-2.9792,-2.9792,-2.9792,-3.0143,-3.0181,-2.9817,-3.0156,-3.0432,-3.062,-3.0972,-3.1499,-3.2215,-3.2215,-3.2503,-3.3124,-3.3124,-3.3124,-3.2497,-3.2991,-3.3803,-3.5003,-3.6406,-3.8414,-4.1814,-4.3113,-4.3814,-4.4497,-4.4701,-4.5168,-4.6626,-4.6295,-4.6295,-4.7752,-4.7371,-4.6891,-4.6891,-4.6262,-4.5798,-4.5781,-4.5781,-4.5483,-4.4754,-4.4702,-4.439,-4.3648,-4.3598,-4.3598,-4.3598,-4.3598,-4.3598,-4.3598,-4.3265,-4.3113,-4.3066,-4.2013,-4.1673,-4.2029,-4.0507,-4.0576,-4.2077,-4.172,-4.1588,-4.1588,-4.1588,-4.1785,-4.2109,-4.2109,-4.2618,-4.3462,-4.4064,-4.4293,-4.4338,-4.4514,-4.4468,-4.4207,-4.3515,-4.288,-4.219,-4.1507,-4.0919,-4.0489,-4.0489,-4.0489,-4.0489,-4.0489,-4.0261,-4.0011,-4.0011,-3.9996,-3.9889,-3.9487,-3.9075,-3.8671,-3.8277,-3.8202,-3.8202,-3.8202,-3.8202,-3.8202,-3.8202,-3.8202,-3.8202,-3.8188,-3.8188,-3.7553,-3.5802,-3.5086,-3.37,-3.092,-3.0118,-2.9792,-2.9792,-2.9792,-2.9792,-2.9792,-2.9792,-2.9792,-2.9792,-2.9792,-3.0043,-3.0595,-3.0608,-3.1135,-3.219,-3.2202,-3.2503,-3.3056,-3.3111,-3.3124,-3.1914,-3.2976,-3.4405,-3.5156,-3.7497,-4.0141,-4.2124,-4.352,-4.4875,-4.665,-4.6995,-4.699,-4.6908,-4.7156,-4.7322,-4.7239,-4.704,-4.6891,-4.6891,-4.6262,-4.5599,-4.5086,-4.5019,-4.4738,-4.4009,-4.3943,-4.383,-4.3615,-4.3598,-4.3598,-4.3598,-4.3598,-4.3598,-4.3598,-4.3492,-4.2743,-4.1293,-4.142,-4.0845,-3.9501,-3.9456,-3.9964,-4.0956,-4.0274,-4.0274,-4.082,-4.082,-4.1292,-4.2109,-4.2349,-4.282,-4.3402,-4.3611,-4.3877,-4.4184,-4.4212,-4.4212,-4.4051,-4.3399,-4.2772,-4.219,-4.1507,-4.0919,-4.0489,-4.0489,-4.0489,-4.0489,-4.0489,-4.0261,-4.0011,-4.0011,-3.9589,-3.9126,-3.9002,-3.8671,-3.8352,-3.824,-3.8202,-3.8202,-3.8202,-3.8202,-3.8202,-3.8202,-3.8202,-3.8057,-3.7636,-3.7089,-3.5969,-3.382,-3.258,-3.1533,-3.0685,-3.0118,-2.9792,-2.9792,-2.9792,-2.9792,-2.9792,-2.9792,-2.9792,-2.9792,-2.9792,-2.9867,-3.003,-3.0043,-3.0382,-3.1085,-3.1449,-3.1725,-3.1913,-3.2747,-3.2855,-3.305,-3.4173,-3.5514,-3.6368,-3.8555,-4.109,-4.3298,-4.475,-4.603,-4.7669,-4.7537,-4.7073,-4.6924,-4.6775,-4.6626,-4.6493,-4.6212,-4.6013,-4.6013,-4.5384,-4.4771,-4.4324,-4.4257,-4.4092,-4.3631,-4.3598,-4.3598,-4.3598,-4.3598,-4.3492,-4.3204,-4.3462,-4.327,-4.2519,-4.2425,-4.1543,-3.9849,-3.957,-3.8979,-3.8027,-3.778,-3.8356,-3.9649,-3.9733,-4.0045,-4.0512,-4.0786,-4.1307,-4.1916,-4.2254,-4.2664,-4.3099,-4.3312,-4.3658,-4.4027,-4.4068,-4.4085,-4.3923,-4.3325,-4.271,-4.211,-4.1507,-4.0919,-4.0489,-4.0489,-4.0489,-4.0455,-4.0331,-4.0051,-3.9732,-3.9538,-3.9053,-3.8598,-3.8745,-3.8486,-3.8202,-3.8202,-3.8202,-3.8202,-3.8202,-3.8202,-3.8202,-3.8202,-3.7999,-3.7597,-3.6925,-3.5623,-3.419,-3.2606,-3.134,-3.0532,-3.0306,-2.9993,-2.9792,-2.9792,-2.9792,-2.9792,-2.9792,-2.9792,-2.9792,-2.9792,-2.9792,-2.9792,-2.9792,-2.9792,-3.0068,-3.062,-3.0934,-3.1185,-3.1411,-3.2089,-3.234,-3.5055,-3.5893,-3.6701,-3.7988,-3.9488,-4.1532,-4.4773,-4.6176,-4.7023,-4.7835,-4.6874,-4.6096,-4.6775,-4.5748,-4.5003,-4.5682,-4.5168,-4.4688,-4.4688,-4.4075,-4.3598,-4.3598,-4.3598,-4.3598,-4.3598,-4.3568,-4.3539,-4.3492,-4.3462,-4.3141,-4.2488,-4.3015,-4.2502,-4.0706,-4.0468,-3.9786,-3.8535,-3.7094,-3.6637,-3.7167,-3.5863,-3.6215,-3.8167,-3.958,-4.0313,-4.0547,-4.1274,-4.1588,-4.1621,-4.1916,-4.2238,-4.2602,-4.3113,-4.3539,-4.3868,-4.3998,-4.3969,-4.3793,-4.3295,-4.2695,-4.2013,-4.1522,-4.0987,-4.0489,-4.0489,-4.0489,-4.0401,-4.0101,-3.9681,-3.9256,-3.8892,-3.8501,-3.8277,-3.8649,-3.8464,-3.8202,-3.8202,-3.8202,-3.8202,-3.8202,-3.8202,-3.8188,-3.813,-3.7665,-3.695,-3.5982,-3.4018,-3.2411,-3.1784,-3.102,-3.0357,-2.9842,-2.9792,-2.9792,-2.9792,-2.9792,-2.9792,-2.9792,-2.9792,-2.9792,-2.9792,-2.9792,-2.9792,-2.9792,-2.9792,-3.0043,-3.0545,-3.0595,-3.0834,-3.1248,-3.1348,-3.1637,-3.4472,-3.519,-3.6028,-3.73,-3.992,-4.2482,-4.3767,-4.5065,-4.6411,-4.7736,-4.7289,-4.6709,-4.6874,-4.6162,-4.5616,-4.5765,-4.5168,-4.4688,-4.4688,-4.4075,-4.3598,-4.3598,-4.3598,-4.3598,-4.3598,-4.3267,-4.2976,-4.282,-4.2428,-4.1885,-4.123,-4.1166,-4.0673,-3.9677,-3.9424,-3.841,-3.654,-3.664,-3.6093,-3.4911,-3.5097,-3.543,-3.5925,-3.7295,-3.8861,-4.0547,-4.1274,-4.1588,-4.1621,-4.1687,-4.1916,-4.2238,-4.2633,-4.2974,-4.3295,-4.3598,-4.3687,-4.3658,-4.3539,-4.2867,-4.2077,-4.198,-4.129,-4.0489,-4.0489,-4.0331,-4.0101,-4.0031,-3.9466,-3.8892,-3.8819,-3.8501,-3.824,-3.8315,-3.8277,-3.8202,-3.8202,-3.8202,-3.8202,-3.8202,-3.8202,-3.8057,-3.7578,-3.7404,-3.6487,-3.4024,-3.2847,-3.1761,-3.042,-3.0084,-2.993,-2.9804,-2.9792,-2.9792,-2.9792,-2.9792,-2.9792,-2.9792,-2.9792,-2.9792,-2.9792,-2.9792,-2.9792,-2.9792,-2.9792,-2.9854,-2.9967,-3.0407,-3.0457,-3.0156,-3.0997,-3.1235,-3.4696,-3.5684,-3.6806,-3.8437,-4.0484,-4.2297,-4.295,-4.4258,-4.5552,-4.6323,-4.6122,-4.5847,-4.5847,-4.5235,-4.4754,-4.4754,-4.4423,-4.4175,-4.4175,-4.383,-4.3466,-4.3118,-4.2875,-4.2624,-4.2295,-4.1827,-4.1522,-4.1397,-4.1132,-4.0658,-3.9833,-3.9897,-3.9296,-3.7872,-3.7617,-3.6709,-3.5063,-3.5105,-3.4681,-3.3768,-3.4126,-3.4638,-3.5354,-3.6645,-3.8068,-3.9606,-4.0662,-4.1114,-4.1146,-4.1462,-4.1785,-4.2109,-4.2285,-4.2664,-4.3113,-4.3312,-4.3312,-4.3237,-4.2959,-4.2349,-4.1671,-4.1423,-4.0953,-4.0489,-4.0489,-4.0366,-4.0156,-3.9803,-3.9415,-3.9002,-3.8598,-3.8352,-3.8202,-3.8202,-3.8202,-3.8202,-3.8202,-3.8202,-3.8115,-3.7839,-3.7781,-3.7578,-3.6939,-3.6273,-3.5099,-3.2905,-3.1971,-3.1108,-2.9934,-2.9792,-2.9792,-2.9792,-2.9792,-2.9792,-2.9792,-2.9792,-2.9792,-2.9792,-2.9792,-2.9792,-2.9792,-2.9792,-2.9792,-2.9792,-2.9792,-2.9792,-2.9792,-3.008,-3.0068,-2.9804,-3.0369,-3.062,-3.4966,-3.6342,-3.7838,-3.9619,-4.073,-4.1533,-4.2022,-4.3248,-4.4235,-4.4235,-4.4474,-4.4688,-4.4688,-4.4108,-4.3598,-4.3598,-4.3482,-4.34,-4.34,-4.33,-4.2956,-4.2286,-4.1865,-4.1368,-4.0739,-4.0226,-3.9952,-3.9906,-3.9752,-3.9235,-3.8328,-3.8507,-3.7761,-3.5895,-3.5642,-3.5025,-3.3948,-3.3507,-3.329,-3.329,-3.329,-3.3916,-3.5065,-3.6256,-3.7409,-3.8558,-3.9717,-4.0307,-4.0451,-4.1004,-4.1388,-4.1694,-4.1917,-4.2361,-4.2872,-4.3094,-4.3068,-4.2837,-4.2381,-4.1818,-4.1223,-4.0783,-4.0558,-4.0489,-4.0385,-4.0239,-3.9958,-3.9236,-3.893,-3.8661,-3.798,-3.7831,-3.7883,-3.7883,-3.7883,-3.7912,-3.8028,-3.8043,-3.7868,-3.7259,-3.7041,-3.6794,-3.6243,-3.5061,-3.3738,-3.2336,-3.1526,-3.0809,-2.9895,-2.9792,-2.9792,-2.9792,-2.9792,-2.9792,-2.9792,-2.9792,-2.9792,-2.9792,-2.9792,-2.9792,-2.9792,-2.9792,-2.9792,-2.9792,-2.9792,-2.9792,-2.9792,-2.9792,-2.9792,-2.9792,-2.9792,-3.0043,-3.4262,0.0,-3.7614,0.0,-3.9666,-4.0666,-4.0759,-4.1375,-4.1942,-4.1942,-4.3424,-4.4688,-4.4688,-4.4108,-4.3598,-4.3598,-4.3052,-4.2638,-4.2638,-4.2092,-4.1531,-4.1072,-4.0985,-4.0729,-4.0242,-3.9737,-3.9346,-3.9156,-3.8282,-3.7454,-3.6733,-3.6215,-3.5429,-3.4399,-3.418,-3.3842,-3.3417,-3.3361,-3.329,-3.329,-3.329,-3.3403,-3.3614,-3.4374,-3.6086,-3.8494,-3.87,-3.9121,-3.9645,-3.974,-3.9819,-3.996,-4.1175,-4.1711,-4.1929,-4.3111,-4.3251,-4.2899,-4.2837,-4.2142,-4.129,-4.1223,-4.0885,-4.042,-3.993,-3.9219,-3.8365,-3.7754,-3.7041,-3.644,-3.6331,-3.6404,-3.6562,-3.6562,-3.6562,-3.6722,-3.7302,-3.7433,-3.723,-3.6577,-3.5996,-3.5625,-3.5537,-3.4882,-3.3856,-3.234,-3.2001,-3.1429,-2.9972,-2.9792,-2.9792,-2.9792,-2.9792,-2.9792,-2.9792,-2.9792,-2.9792,-2.9792,-2.9792,-2.9792,-2.9792,-2.9792,-2.9792,-2.9792,-2.9792,-2.9792,-2.9792,-2.9792,-2.9792,-2.9792,-2.9792,-2.9829,-3.4307,-3.5505,-3.6638,0.0,-3.8742,-3.9429,-3.9788,-4.0443,-4.0873,-4.0638,-4.1649,-4.2655,-4.2864,-4.2254,-4.1821,-4.2045,-4.19,-4.1739,-4.1612,-4.1376,-4.0978,-4.0273,-3.9736,-3.9171,-3.8532,-3.8012,-3.767,-3.7607,-3.6888,-3.6262,-3.5863,-3.5097,-3.4456,-3.3928,-3.3667,-3.3452,-3.329,-3.329,-3.329,-3.329,-3.329,-3.329,-3.3326,-3.3597,-3.485,-3.6823,-3.7594,-3.8324,-3.8981,-3.9345,-3.9503,-3.9566,-4.0179,-4.0646,-4.1075,-4.1654,-4.1768,-4.1618,-4.1375,-4.0769,-4.0031,-3.9488,-3.9118,-3.8827,-3.8292,-3.7803,-3.737,-3.6872,-3.6525,-3.6286,-3.6072,-3.6158,-3.6301,-3.6301,-3.6301,-3.6286,-3.6228,-3.6504,-3.6562,-3.5909,-3.527,-3.4718,-3.426,-3.3927,-3.3192,-3.1659,-3.1415,-3.102,-2.9934,-2.9792,-2.9792,-2.9792,-2.9792,-2.9792,-2.9792,-2.9792,-2.9792,-2.9792,-2.9792,-2.9792,-2.9792,-2.9792,-2.9792,-2.9792,-2.9792,-2.9792,-2.9792,-2.9792,-2.9792,-2.9792,-2.9792,-2.9792,0.0,0.0,-3.5559,-3.6828,-3.7703,-3.835,0.0,0.0,-3.9834,0.0,-3.9773,-4.0182,-4.0588,-4.0458,-4.0377,-4.0699,-4.0725,-4.0649,-4.0484,-4.0306,-3.9897,-3.9062,-3.8216,-3.7421,-3.677,-3.6321,-3.6085,-3.6085,-3.5591,-3.5252,-3.5073,-3.4308,-3.3825,-3.3681,-3.3417,-3.329,-3.329,-3.329,-3.329,-3.329,-3.329,-3.329,-3.329,-3.329,-3.3962,-3.5187,-3.6444,-3.7358,-3.8026,-3.8714,-3.8981,-3.9013,-3.9264,-3.9665,-4.0148,-4.0415,-4.048,-4.0421,-4.0028,-3.9424,-3.8755,-3.7965,-3.7628,-3.7375,-3.6842,-3.6549,-3.6362,-3.5883,-3.5853,-3.5842,-3.5525,-3.5645,-3.5822,-3.5822,-3.5822,-3.5735,-3.5465,-3.5604,-3.5677,-3.5247,-3.4582,-3.3894,-3.3297,-3.3038,-3.2456,-3.1106,-3.0895,-3.062,-2.9895,-2.9792,-2.9792,-2.9792,-2.9792,-2.9792,-2.9792,-2.9792,-2.9792,-2.9792,-2.9792,-2.9792,-2.9792,-2.9792,-2.9792,-2.9792,-2.9792,-2.9792,-2.9792,-2.9792,-2.9792,-2.9792,-2.9792,-2.9792,0.0,-3.3574,0.0,-3.4971,-3.6453,-3.7767,0.0,0.0,-3.83,-3.8277,-3.8014,-3.7901,-3.83,-3.9424,-4.0309,-4.0343,-3.9754,-3.9305,-3.9305,-3.8361,-3.751,-3.6997,-3.6418,-3.5832,-3.5365,-3.5121,-3.4975,-3.4975,-3.4476,-3.4172,-3.4172,-3.3632,-3.3347,-3.3326,-3.3326,-3.329,-3.329,-3.329,-3.329,-3.329,-3.329,-3.329,-3.329,-3.329,-3.3687,-3.4413,-3.5154,-3.591,-3.6585,-3.7304,-3.7605,-3.7714,-3.8661,-3.9035,-3.9205,-4.0146,-4.0224,-3.9813,-3.9596,-3.8884,-3.8029,-3.7778,-3.734,-3.6842,-3.6243,-3.5645,-3.5078,-3.4483,-3.4193,-3.4017,-3.4017,-3.4243,-3.4516,-3.4516,-3.4516,-3.4661,-3.5276,-3.4922,-3.4501,-3.4472,-3.3805,-3.3262,-3.3213,-3.2613,-3.1856,-3.1044,-3.0895,-3.062,-2.9895,-2.9792,-2.9792,-2.9792,-2.9792,-2.9792,-2.9792,-2.9792,-2.9792,-2.9792,-2.9792,-2.9792,-2.9792,-2.9792,-2.9792,-2.9792,-2.9792,-2.9792,-2.9792,-2.9792,-2.9792,-2.9792,-2.9792,-2.9792,-3.1412,0.0,0.0,-3.4085,-3.5093,-3.6001,-3.6324,-3.7018,-3.7593,-3.7445,-3.7613,-3.7787,-3.7801,-3.8121,-3.8473,-3.873,-3.8771,-3.8695,-3.8572,-3.8182,-3.7766,-3.7471,-3.6503,-3.5781,-3.561,-3.516,-3.4909,-3.4909,-3.4409,-3.4104,-3.4104,-3.3612,-3.329,-3.329,-3.329,-3.329,-3.329,-3.329,-3.329,-3.329,-3.329,-3.329,-3.329,-3.329,-3.3437,-3.3722,-3.4909,-3.5785,-3.6461,-3.718,-3.751,-3.7496,-3.737,-3.772,-3.8302,-3.8213,-3.8187,-3.8157,-3.7762,-3.7107,-3.6336,-3.5621,-3.5263,-3.5004,-3.444,-3.4122,-3.3903,-3.3684,-3.374,-3.3896,-3.3896,-3.4157,-3.4414,-3.4414,-3.4414,-3.4472,-3.4704,-3.4574,-3.4414,-3.4414,-3.3742,-3.3038,-3.2577,-3.1856,-3.1057,-3.0317,-3.0203,-3.0101,-2.983,-2.9792,-2.9792,-2.9792,-2.9792,-2.9792,-2.9792,-2.9792,-2.9792,-2.9792,-2.9792,-2.9792,-2.9792,-2.9792,-2.9792,-2.9792,-2.9507,-2.9507,-2.9792,-2.9792,-2.9792,-2.9792,-2.9792,-2.9636,-3.076,-3.1412,0.0,0.0,-3.385,-3.4263,-3.5025,-3.5745,-3.6279,-3.637,-3.6705,-3.7025,-3.7063,-3.6859,-3.6921,-3.7677,-3.8014,-3.8142,-3.8028,-3.7776,-3.7586,-3.7441,-3.6393,-3.5581,-3.5363,-3.4936,-3.4588,-3.437,-3.4031,-3.3825,-3.3825,-3.3472,-3.329,-3.329,-3.329,-3.329,-3.329,-3.329,-3.329,-3.329,-3.329,-3.329,-3.329,-3.329,-3.329,-3.3382,-3.4776,-3.5657,-3.6134,-3.7119,-3.751,-3.7421,-3.6693,-3.6952,-3.7653,-3.6753,-3.6661,-3.6904,-3.6291,-3.5693,-3.5047,-3.4327,-3.3982,-3.3756,-3.3417,-3.329,-3.329,-3.329,-3.3605,-3.3896,-3.3896,-3.4157,-3.4414,-3.4414,-3.4414,-3.4414,-3.4414,-3.4414,-3.4414,-3.4414,-3.3742,-3.2982,-3.228,-3.1452,-3.0655,-2.9973,-2.982,-2.9792,-2.9792,-2.9792,-2.9792,-2.9792,-2.9792,-2.9792,-2.9792,-2.9792,-2.9792,-2.9792,-2.9792,-2.9792,-2.9792,-2.9792,-2.9714,-2.9585,-2.926,-2.926,-2.9546,-2.9429,-2.9429,-2.9585,-2.9585,-2.9468,0.0,0.0,0.0,-3.2545,0.0,0.0,-3.3473,0.0,-3.4287,-3.4978,-3.5156,-3.5353,-3.5958,-3.5741,-3.5941,-3.7329,-3.7582,-3.7596,-3.761,-3.7096,-3.671,-3.6725,-3.5969,-3.5212,-3.4604,-3.4339,-3.395,-3.3361,-3.329,-3.329,-3.329,-3.329,-3.329,-3.329,-3.329,-3.329,-3.329,-3.329,-3.329,-3.329,-3.329,-3.329,-3.329,-3.329,-3.3326,-3.3417,-3.4791,-3.54,-3.5529,-3.6922,-3.751,-3.7405,-3.6662,-3.6815,-3.7315,-3.5881,-3.5785,-3.6228,-3.537,-3.4714,-3.4245,-3.4104,-3.3736,-3.329,-3.329,-3.329,-3.329,-3.329,-3.3605,-3.3896,-3.3896,-3.4157,-3.4414,-3.4414,-3.4414,-3.4414,-3.4414,-3.4414,-3.4414,-3.4414,-3.3742,-3.2982,-3.2378,-3.1523,-3.0712,-3.0066,-2.9859,-2.9792,-2.9792,-2.9792,-2.9792,-2.9792,-2.9792,-2.9792,-2.9792,-2.9792,-2.9792,-2.9792,-2.9792,-2.9792,-2.9792,-2.9792,-2.9585,-2.9131,-2.9091,-2.9091,-2.9091,-2.8697,-2.8749,-2.9131,-2.9091,-2.9339,-2.8939,0.0,0.0,0.0,0.0,0.0,0.0,0.0,-3.2481,-3.3362,-3.3929,-3.4383,-3.4786,-3.5045,-3.549,-3.6294,-3.6862,-3.7374,-3.7956,-3.7771,-3.7519,-3.7368,-3.6608,-3.6019,-3.57,-3.4759,-3.4133,0.0,-3.3543,-3.329,-3.329,-3.329,-3.329,-3.329,-3.329,-3.329,-3.329,-3.329,-3.329,-3.329,-3.329,-3.329,-3.329,-3.329,-3.3563,-3.4056,-3.4993,-3.5689,-3.6196,-3.7119,-3.751,-3.7375,-3.6134,-3.6117,-3.6523,-3.5109,-3.4714,-3.4846,-3.4599,-3.4104,-3.3563,-3.3542,-3.3417,-3.329,-3.329,-3.329,-3.329,-3.329,-3.3605,-3.3965,-3.4191,-3.4346,-3.4414,-3.4414,-3.4414,-3.4414,-3.4414,-3.4414,-3.4414,-3.4414,-3.3742,-3.2842,-3.1743,-3.1198,-3.0525,-2.9376,-2.953,-2.9792,-2.9792,-2.9792,-2.9792,-2.9792,-2.9792,-2.9792,-2.9792,-2.9792,-2.9792,-2.9792,-2.9792,-2.9792,-2.9792,-2.9792,-2.9753,-2.9624,-2.8986,-2.8669,-2.8669,-2.8855,-2.9182,-2.9585,-2.926,-2.917,-2.8464,-2.8693,-2.9088,-2.9421,0.0,0.0,-3.0018,-3.0512,-3.1118,0.0,-3.2792,-3.3202,-3.3696,-3.3777,-3.3948,-3.4579,-3.5504,-3.6531,-3.778,-3.7853,-3.7701,-3.7495,-3.6977,-3.6513,-3.6131,-3.5419,-3.4787,-3.4245,-3.3866,-3.3557,-3.329,-3.329,-3.329,-3.329,-3.329,-3.329,-3.329,-3.329,-3.329,-3.329,-3.329,-3.329,-3.329,-3.329,-3.3652,-3.4346,-3.5091,-3.5785,-3.6461,-3.718,-3.751,-3.7345,-3.5944,-3.5817,-3.6212,-3.4495,-3.4056,-3.4245,-3.3968,-3.3632,-3.329,-3.329,-3.329,-3.329,-3.329,-3.329,-3.329,-3.329,-3.3536,-3.3848,-3.4122,-3.4244,-3.4264,-3.4264,-3.4346,-3.4414,-3.4414,-3.4414,-3.4414,-3.4414,-3.3742,-3.2877,-3.1896,-3.1083,-3.0225,-2.9154,-2.9239,-2.9428,-2.9428,-2.9641,-2.9792,-2.9792,-2.9792,-2.9792,-2.9792,-2.9792,-2.9792,-2.9792,-2.9624,-2.9507,-2.9507,-2.9351,-2.9194,-2.8998,-2.8522,-2.8243,-2.8243,-2.8299,-2.855,-2.8998,-2.8907,-2.8855,-2.8568,-2.8455,-2.8569,-2.9854,-2.9159,0.0,-2.9735,-2.9811,-2.9984,0.0,-3.1522,-3.1721,-3.2415,-3.2097,-3.1936,-3.2597,-3.3825,-3.5353,-3.7153,-3.7539,-3.7534,-3.7303,-3.7148,-3.6845,-3.6272,-3.6145,-3.5653,-3.4483,-3.4273,-3.3936,-3.3319,-3.329,-3.329,-3.329,-3.329,-3.329,-3.329,-3.329,-3.329,-3.329,-3.329,-3.329,-3.329,-3.322,-3.3587,-3.4311,-3.502,-3.5711,-3.6446,-3.7178,-3.745,-3.7255,-3.5913,-3.5721,-3.5944,-3.3997,-3.3687,-3.409,-3.3507,-3.329,-3.329,-3.329,-3.329,-3.329,-3.329,-3.329,-3.329,-3.3326,-3.3466,-3.364,-3.3862,-3.4005,-3.4094,-3.4094,-3.423,-3.4414,-3.4414,-3.4414,-3.4366,-3.4264,-3.3707,-3.2961,-3.2207,-3.1011,-2.9944,-2.9201,-2.8993,-2.8913,-2.8976,-2.9365,-2.9628,-2.9691,-2.9641,-2.9603,-2.9603,-2.9666,-2.9691,-2.9653,-2.9302,-2.9091,-2.9052,-2.8709,-2.8311,-2.7962,-2.7921,-2.7893,-2.7812,-2.7516,-2.7557,-2.7973,-2.8311,-2.8471,-2.8397,-2.8437,-2.8443,-2.7725,-2.7797,0.0,-2.7726,-2.8111,-2.8611,0.0,-2.9087,-2.9317,-3.0099,-3.0441,-3.0795,-3.1427,-3.3049,-3.4665,-3.5961,-3.6982,-3.7534,-3.7303,-3.7419,-3.7299,-3.6863,-3.6513,-3.6156,-3.5766,-3.4801,-3.3936,-3.3319,-3.329,-3.329,-3.329,-3.329,-3.329,-3.329,-3.329,-3.329,-3.329,-3.329,-3.329,-3.3262,-3.2806,-3.3135,-3.4162,-3.4511,-3.5263,-3.6305,-3.7139,-3.715,-3.6523,-3.5721,-3.5124,-3.4581,-3.3632,-3.3382,-3.3472,-3.3347,-3.329,-3.329,-3.329,-3.329,-3.329,-3.329,-3.329,-3.3326,-3.3501,-3.357,-3.364,-3.3862,-3.4005,-3.4094,-3.4094,-3.423,-3.4414,-3.4414,-3.4414,-3.4196,-3.3555,-3.3297,-3.2632,-3.0851,-3.0658,-3.0319,-2.9124,-2.8925,-2.9101,-2.9566,-2.8925,-2.8612,-2.9013,-2.8699,-2.8436,-2.8436,-2.8837,-2.895,-2.8606,-2.8897,-2.8934,-2.863,-2.855,-2.8471,-2.8391,-2.8042,-2.7719,-2.7353,-2.795,-2.8311,-2.8391,-2.8471,-2.8311,-2.8618,-2.857,-2.8565,-2.8006,-2.7909,0.0,0.0,-2.7796,-2.8053,-2.8843,-2.8756,-2.8741,-2.9479,-2.9537,-2.968,-3.0225,-3.1619,-3.2819,-3.3359,-3.5368,-3.6705,-3.6532,-3.657,-3.666,-3.6692,-3.6528,-3.6179,-3.5681,-3.4759,-3.3936,-3.3319,-3.329,-3.329,-3.329,-3.329,-3.315,-3.2862,-3.2862,-3.2707,-3.2412,-3.2412,-3.2412,-3.2398,-3.2089,-3.2622,-3.3764,-3.3825,-3.4744,-3.6234,-3.6684,-3.6413,-3.5738,-3.5482,-3.496,-3.4211,-3.3542,-3.329,-3.329,-3.329,-3.329,-3.329,-3.329,-3.329,-3.329,-3.329,-3.329,-3.3326,-3.3431,-3.3466,-3.3466,-3.357,-3.3813,-3.4005,-3.4005,-3.421,-3.4414,-3.4414,-3.4414,-3.4147,-3.3367,-3.2897,-3.2195,-3.075,-3.0156,-2.9667,-2.9001,-2.8662,-2.8624,-2.8913,-2.8461,-2.8136,-2.8201,-2.7953,-2.7717,-2.7582,-2.8,-2.8231,-2.8001,-2.8328,-2.8391,-2.8203,-2.799,-2.7869,-2.7869,-2.7626,-2.7435,-2.719,-2.7626,-2.7869,-2.7869,-2.7869,-2.7748,-2.9012,-2.8872,-2.8832,-2.8758,-2.8478,-2.8196,0.0,0.0,0.0,-2.887,-2.8666,-2.8507,0.0,0.0,0.0,-2.9002,0.0,0.0,0.0,-3.3269,0.0,-3.5146,-3.5389,-3.5709,-3.6046,-3.6102,-3.5815,-3.5159,-3.4403,-3.379,-3.3375,-3.3234,-3.3199,-3.329,-3.329,-3.3031,-3.2412,-3.2412,-3.2103,-3.1485,-3.1485,-3.1485,-3.1485,-3.1458,-3.2057,-3.3109,-3.3169,-3.4136,-3.5725,-3.579,-3.5447,-3.4946,-3.5275,-3.4861,-3.4036,-3.3507,-3.329,-3.329,-3.329,-3.329,-3.329,-3.329,-3.329,-3.329,-3.329,-3.329,-3.329,-3.329,-3.3326,-3.3361,-3.3361,-3.364,-3.3951,-3.3951,-3.4176,-3.4414,-3.4414,-3.4414,-3.4113,-3.3157,-3.2506,-3.1856,-3.1044,-2.9883,-2.9051,-2.9051,-2.8624,-2.831,-2.8411,-2.8174,-2.7914,-2.7668,-2.7458,-2.7261,-2.6986,-2.743,-2.7642,-2.7565,-2.7774,-2.7852,-2.776,-2.7394,-2.719,-2.719,-2.719,-2.719,-2.719,-2.719,-2.719,-2.719,-2.719,-2.719,-2.9532,-2.9504,-2.9268,-2.8333,-2.8536,-2.8583,-2.7061,0.0,-2.7579,-2.72,0.0,-2.72,-2.7797,0.0,0.0,0.0,0.0,0.0,-2.9754,-3.1058,-3.2291,-3.3029,-3.4344,-3.511,-3.4989,-3.4968,-3.4939,-3.4854,-3.3742,-3.3203,-3.3542,-3.2984,-3.2873,-3.3312,-3.329,-3.3031,-3.2412,-3.2412,-3.2103,-3.1485,-3.1485,-3.1485,-3.1504,-3.1333,-3.1536,-3.212,-3.275,-3.3395,-3.4007,-3.4305,-3.4349,-3.4275,-3.5096,-3.4591,-3.3403,-3.3312,-3.329,-3.329,-3.329,-3.329,-3.329,-3.329,-3.329,-3.329,-3.329,-3.329,-3.329,-3.329,-3.3431,-3.357,-3.357,-3.3833,-3.4094,-3.4094,-3.423,-3.4414,-3.4414,-3.4414,-3.3977,-3.2506,-3.2146,-3.1856,-3.1044,-3.0215,-2.9691,-2.9691,-2.9202,-2.8976,-2.9541,-2.8425,-2.7742,-2.8172,-2.7403,-2.6861,-2.6824,-2.7366,-2.7523,-2.7121,-2.7587,-2.7719,-2.7313,-2.7231,-2.719,-2.719,-2.719,-2.719,-2.719,-2.719,-2.719,-2.719,-2.719,-2.719,-2.9812,-2.9713,-2.9563,-2.8953,-2.8683,-2.8355,-2.7414,-2.719,-2.7215,-2.7316,0.0,0.0,0.0,0.0,0.0,0.0,-2.8145,0.0,0.0,0.0,-3.0565,-3.24,0.0,0.0,-3.379,-3.406,-3.4219,-3.4219,-3.3719,-3.3465,-3.3591,-3.301,-3.2681,-3.2778,-3.244,-3.1963,-3.1283,-3.1283,-3.1007,-3.0403,-3.0403,-3.0403,-3.0389,-3.0298,-3.0701,-3.1501,-3.1752,-3.256,-3.3686,-3.3562,-3.3502,-3.3497,-3.405,-3.3854,-3.329,-3.329,-3.329,-3.329,-3.329,-3.329,-3.329,-3.329,-3.329,-3.329,-3.329,-3.329,-3.329,-3.329,-3.3431,-3.3605,-3.3605,-3.3868,-3.4094,-3.4094,-3.423,-3.4414,-3.4414,-3.4045,-3.352,-3.2861,-3.2024,-3.1304,-3.097,-3.0279,-2.9792,-2.9792,-2.9302,-2.89,-2.8921,-2.8075,-2.742,-2.7174,-2.6766,-2.6408,-2.6191,-2.6671,-2.6936,-2.6727,-2.7186,-2.7394,-2.7231,-2.719,-2.719,-2.719,-2.719,-2.719,-2.719,-2.7342,-2.7371,-2.7371,-2.7371,-2.7371,-2.9905,-2.9808,-2.9685,-2.923,-2.8685,-2.8111,-2.7569,-2.7244,-2.7171,-2.7608,-2.7505,0.0,0.0,0.0,-2.7389,-2.7652,0.0,-2.7753,0.0,-2.839,0.0,0.0,0.0,0.0,0.0,-3.3063,-3.3312,-3.3704,-3.3369,-3.3311,-3.3646,-3.2922,-3.2466,-3.2398,-3.1808,-3.1176,-3.0498,-3.0498,-3.0189,-2.9602,-2.9602,-2.9602,-2.9602,-2.9727,-3.0221,-3.097,-3.0984,-3.1822,-3.3095,-3.252,-3.2422,-3.2707,-3.2622,-3.2801,-3.3087,-3.322,-3.329,-3.329,-3.329,-3.329,-3.329,-3.329,-3.329,-3.329,-3.329,-3.3361,-3.3361,-3.3326,-3.3501,-3.3744,-3.3675,-3.3937,-3.4162,-3.4162,-3.4312,-3.4346,-3.4113,-3.3624,-3.3073,-3.2635,-3.1659,-3.082,-3.062,-3.0126,-2.9792,-2.9792,-2.9313,-2.8847,-2.8541,-2.798,-2.7394,-2.6818,-2.6613,-2.643,-2.6129,-2.6462,-2.6668,-2.6668,-2.7024,-2.719,-2.719,-2.719,-2.719,-2.719,-2.719,-2.7231,-2.726,-2.7441,-2.7522,-2.7522,-2.7563,-2.7615,-2.9761,-2.9808,-2.9586,-2.8656,-2.8397,-2.8123,-2.7072,-2.7273,-2.7681,-2.7695,-2.8202,-2.8651,-2.8665,-2.8665,-2.8419,-2.7797,-2.7695,0.0,0.0,-2.8694,0.0,0.0,0.0,0.0,0.0,-3.1944,-3.2104,0.0,-3.2292,-3.2248,-3.3796,-3.2697,-3.2132,-3.2384,-3.1808,-3.1176,-3.0498,-3.0498,-3.0189,-2.9602,-2.9602,-2.9602,-2.9602,-3.0083,-3.0282,-3.0342,-3.0792,-3.1307,-3.1683,-3.0762,-3.099,-3.1833,-3.0941,-3.1345,-3.2511,-3.3066,-3.329,-3.329,-3.329,-3.329,-3.329,-3.329,-3.329,-3.329,-3.329,-3.3431,-3.3536,-3.3361,-3.3695,-3.4059,-3.3917,-3.4157,-3.438,-3.438,-3.4414,-3.4196,-3.3402,-3.3213,-3.2741,-3.1254,-3.0932,-3.0683,-2.9972,-2.983,-2.9792,-2.9792,-2.9404,-2.9106,-2.9067,-2.8395,-2.7874,-2.7834,-2.7429,-2.7185,-2.7133,-2.7156,-2.7167,-2.7167,-2.7179,-2.719,-2.719,-2.719,-2.719,-2.719,-2.719,-2.7301,-2.7482,-2.7522,-2.7522,-2.7522,-2.7748,-2.7893,0.0,0.0,-2.9671,-2.9187,-2.8656,-2.8096,-2.7525,-2.7482,-2.7586,-2.7668,-2.812,-2.8525,-2.8681,-2.8709,-2.8636,-2.839,-2.8361,-2.8289,0.0,-2.8419,0.0,0.0,-3.0248,-3.0974,0.0,0.0,0.0,-3.2121,-3.2179,0.0,-3.2762,-3.2421,-3.1929,-3.1358,-3.0828,-3.0372,-2.9912,-2.9992,-2.9893,-2.9602,-2.9602,-2.9602,-2.9602,-2.9758,-2.9991,-3.0312,-3.0463,-3.0792,-3.1175,-3.0553,-3.0502,-3.0825,-3.0602,-3.1036,-3.1878,-3.2483,-3.2974,-3.329,-3.329,-3.329,-3.329,-3.329,-3.329,-3.329,-3.329,-3.3431,-3.3605,-3.3536,-3.3744,-3.3951,-3.3917,-3.404,-3.4196,-3.4196,-3.4312,-3.4182,-3.3367,-3.2826,-3.2182,-3.1106,-3.0266,-2.9613,-2.9365,-2.9104,-2.9155,-2.9714,-2.9378,-2.9013,-2.8749,-2.8231,-2.776,-2.7476,-2.7313,-2.719,-2.719,-2.719,-2.719,-2.719,-2.719,-2.719,-2.719,-2.719,-2.719,-2.719,-2.719,-2.7231,-2.7301,-2.7441,-2.7522,-2.7522,-2.7788,-2.7893,-2.9777,-2.9808,0.0,-2.9386,-2.8884,-2.8369,-2.7761,-2.7732,-2.7835,-2.7918,-2.8424,-2.8901,-2.9146,-2.9305,-2.9276,-2.8986,-2.8986,-2.8869,0.0,-2.8956,-2.9537,-2.9914,-3.0321,-3.0598,-3.0598,-3.0598,-3.0843,-3.1437,-3.1886,-3.2257,0.0,-3.2155,-3.1728,-3.1254,-3.0492,-2.9958,-2.9682,-2.9761,-2.973,-2.9602,-2.9602,-2.9602,-2.9602,-2.9602,-2.9758,-3.0052,-3.0052,-3.0312,-3.0703,-3.0251,-3.0144,-3.0294,-3.0227,-3.0586,-3.1246,-3.2089,-3.2792,-3.329,-3.329,-3.329,-3.329,-3.329,-3.329,-3.329,-3.329,-3.3431,-3.3605,-3.3501,-3.3675,-3.3896,-3.3896,-3.4005,-3.4128,-3.4196,-3.4312,-3.4182,-3.3367,-3.2613,-3.1819,-3.0882,-2.9819,-2.9052,-2.8895,-2.8669,-2.8709,-2.9234,-2.8946,-2.859,-2.8311,-2.7921,-2.7557,-2.7231,-2.719,-2.719,-2.719,-2.719,-2.719,-2.719,-2.719,-2.719,-2.719,-2.719,-2.719,-2.719,-2.719,-2.7219,-2.7301,-2.7441,-2.7522,-2.7522,-2.7788,-2.7841]},{"header":{"parameterUnit":"m.s-1","parameterCategory":1,"la1":30.6,"la2":29.2853,"lo1":-89.7004,"lo2":-87.6739,"dy":0.0162,"dx":0.0183,"nx":112,"ny":82,"refTime":"2024-06-21T12:00:00:Z","depth":0,"parameterNumber":3,"parameterNumberName":"V-component_of_WINDS"},"data":[0.0,0.0,0.0,0.0,0.0,0.0,0.0,0.0,0.0,0.0,0.0,0.0,0.0,0.0,0.0,0.0,0.0,0.0,0.0,0.0,0.0,0.0,0.0,0.0,0.0,0.0,0.0,0.0,0.0,0.0,0.0,0.0,0.0,0.0,0.0,0.0,0.0,0.0,0.0,0.0,0.0,0.0,0.0,0.0,0.0,0.0,0.0,0.0,0.0,0.0,0.0,0.0,0.0,0.0,0.0,0.0,0.0,0.0,0.0,0.0,0.0,0.0,0.0,0.0,0.0,0.0,0.0,0.0,0.0,0.0,0.0,0.0,0.0,0.0,0.0,0.0,0.0,0.0,0.0,0.0,0.0,0.0,0.0,0.0,0.0,0.0,0.0,0.0,0.0,0.0,-2.5334,-2.602,-2.6843,-2.7357,-2.7489,-2.8204,-2.7558,-2.5061,0.0,0.0,0.0,0.0,0.0,0.0,0.0,0.0,0.0,0.0,0.0,0.0,0.0,0.0,0.0,0.0,0.0,0.0,0.0,0.0,0.0,0.0,0.0,0.0,0.0,0.0,0.0,0.0,0.0,0.0,0.0,0.0,0.0,0.0,0.0,0.0,0.0,0.0,0.0,0.0,0.0,0.0,0.0,0.0,0.0,0.0,0.0,0.0,0.0,0.0,0.0,0.0,0.0,0.0,0.0,0.0,0.0,0.0,0.0,0.0,0.0,0.0,0.0,0.0,0.0,0.0,0.0,0.0,0.0,0.0,0.0,0.0,0.0,0.0,0.0,0.0,0.0,0.0,0.0,0.0,0.0,0.0,0.0,0.0,0.0,0.0,0.0,0.0,0.0,0.0,0.0,0.0,0.0,0.0,0.0,0.0,0.0,0.0,0.0,0.0,0.0,0.0,0.0,0.0,-2.5264,-2.6926,-2.7226,-2.7631,-2.8398,-2.825,-2.7723,-2.6761,0.0,0.0,0.0,0.0,0.0,0.0,0.0,0.0,0.0,0.0,0.0,0.0,0.0,0.0,0.0,0.0,0.0,0.0,0.0,0.0,0.0,0.0,0.0,0.0,0.0,0.0,0.0,0.0,0.0,0.0,0.0,0.0,0.0,0.0,0.0,0.0,0.0,0.0,0.0,0.0,0.0,0.0,0.0,0.0,0.0,0.0,0.0,0.0,0.0,0.0,0.0,0.0,0.0,0.0,0.0,0.0,0.0,0.0,0.0,0.0,0.0,0.0,0.0,0.0,0.0,0.0,0.0,0.0,0.0,0.0,0.0,0.0,0.0,0.0,0.0,0.0,0.0,0.0,0.0,0.0,0.0,0.0,0.0,0.0,0.0,0.0,0.0,0.0,0.0,0.0,0.0,0.0,0.0,0.0,0.0,0.0,0.0,0.0,0.0,0.0,0.0,0.0,0.0,-2.4674,-2.5523,-2.7133,-2.7762,-2.8222,-2.8678,-2.9218,-2.8812,-2.7201,-2.6756,0.0,0.0,0.0,0.0,0.0,0.0,0.0,0.0,0.0,0.0,0.0,0.0,0.0,0.0,0.0,0.0,0.0,0.0,0.0,0.0,0.0,0.0,0.0,0.0,0.0,0.0,0.0,0.0,0.0,0.0,0.0,0.0,0.0,0.0,0.0,0.0,0.0,0.0,0.0,0.0,0.0,0.0,0.0,0.0,0.0,0.0,0.0,0.0,0.0,0.0,0.0,0.0,0.0,0.0,0.0,0.0,0.0,0.0,0.0,0.0,0.0,0.0,0.0,0.0,0.0,0.0,0.0,0.0,0.0,0.0,0.0,0.0,0.0,0.0,0.0,0.0,0.0,0.0,0.0,0.0,0.0,0.0,0.0,0.0,0.0,0.0,0.0,0.0,0.0,0.0,0.0,0.0,0.0,0.0,0.0,0.0,0.0,0.0,0.0,0.0,0.0,0.0,-2.5722,-2.634,-2.7505,-2.8491,-2.913,-2.936,-3.0138,-2.9803,-2.7852,-2.7348,0.0,0.0,0.0,0.0,0.0,0.0,0.0,0.0,0.0,0.0,0.0,0.0,0.0,0.0,0.0,0.0,0.0,0.0,0.0,0.0,0.0,0.0,0.0,0.0,0.0,0.0,0.0,0.0,0.0,0.0,0.0,0.0,0.0,0.0,0.0,0.0,0.0,0.0,0.0,0.0,0.0,0.0,0.0,0.0,0.0,0.0,0.0,0.0,0.0,0.0,0.0,0.0,0.0,0.0,0.0,0.0,0.0,0.0,0.0,0.0,0.0,0.0,0.0,0.0,0.0,0.0,0.0,0.0,0.0,0.0,0.0,0.0,0.0,0.0,0.0,0.0,0.0,0.0,0.0,0.0,0.0,0.0,0.0,0.0,0.0,0.0,0.0,0.0,0.0,0.0,0.0,0.0,0.0,0.0,0.0,0.0,0.0,0.0,0.0,0.0,0.0,0.0,-2.648,-2.8021,-2.853,-2.9486,-3.0441,-3.1303,-3.0558,-2.9942,-2.9621,-2.7697,0.0,0.0,0.0,0.0,0.0,0.0,0.0,0.0,0.0,0.0,0.0,0.0,0.0,0.0,0.0,0.0,0.0,0.0,0.0,0.0,0.0,0.0,0.0,0.0,0.0,0.0,0.0,0.0,0.0,0.0,0.0,0.0,0.0,0.0,0.0,0.0,0.0,0.0,0.0,0.0,0.0,0.0,0.0,0.0,0.0,0.0,0.0,0.0,0.0,0.0,0.0,0.0,0.0,0.0,0.0,0.0,0.0,0.0,0.0,0.0,0.0,0.0,0.0,0.0,0.0,0.0,0.0,0.0,0.0,0.0,0.0,0.0,0.0,0.0,0.0,0.0,0.0,0.0,0.0,0.0,0.0,0.0,0.0,0.0,0.0,0.0,0.0,0.0,0.0,0.0,0.0,0.0,0.0,0.0,0.0,0.0,0.0,0.0,0.0,0.0,0.0,0.0,-2.6454,-2.7822,-2.9465,-3.0486,-3.1214,-3.1581,-3.1174,-3.0558,-2.9867,0.0,0.0,0.0,0.0,0.0,0.0,0.0,0.0,0.0,0.0,0.0,0.0,0.0,0.0,0.0,0.0,0.0,0.0,0.0,0.0,0.0,0.0,0.0,0.0,0.0,0.0,0.0,0.0,0.0,0.0,0.0,0.0,0.0,0.0,0.0,0.0,0.0,0.0,0.0,0.0,0.0,0.0,0.0,0.0,0.0,0.0,0.0,0.0,0.0,0.0,0.0,0.0,0.0,0.0,0.0,0.0,0.0,0.0,0.0,0.0,0.0,0.0,0.0,0.0,0.0,0.0,0.0,0.0,0.0,0.0,0.0,0.0,0.0,0.0,0.0,0.0,0.0,0.0,0.0,0.0,0.0,0.0,0.0,0.0,0.0,0.0,0.0,0.0,0.0,0.0,0.0,0.0,0.0,0.0,0.0,0.0,0.0,0.0,0.0,0.0,0.0,0.0,-2.5639,-2.7023,-2.8537,-3.0436,-3.1448,-3.1989,-3.2077,-3.1447,-3.0591,-2.9591,0.0,0.0,0.0,0.0,0.0,0.0,0.0,0.0,0.0,0.0,0.0,0.0,0.0,0.0,0.0,0.0,0.0,0.0,0.0,0.0,0.0,0.0,0.0,0.0,0.0,0.0,0.0,0.0,0.0,0.0,0.0,0.0,0.0,0.0,0.0,0.0,0.0,0.0,0.0,0.0,0.0,0.0,0.0,0.0,0.0,0.0,0.0,0.0,0.0,0.0,0.0,0.0,0.0,0.0,0.0,0.0,0.0,0.0,0.0,0.0,0.0,0.0,0.0,0.0,0.0,0.0,0.0,0.0,0.0,0.0,0.0,0.0,0.0,0.0,0.0,0.0,0.0,0.0,0.0,0.0,0.0,0.0,0.0,0.0,0.0,0.0,0.0,0.0,0.0,0.0,0.0,0.0,0.0,0.0,0.0,0.0,0.0,0.0,0.0,0.0,0.0,0.0,-2.5744,-2.8412,-3.0489,-3.1517,-3.2264,-3.2797,-3.3068,-3.1319,-2.9818,0.0,0.0,0.0,0.0,0.0,0.0,0.0,0.0,0.0,0.0,0.0,0.0,0.0,0.0,0.0,0.0,0.0,0.0,0.0,0.0,0.0,0.0,0.0,0.0,0.0,0.0,0.0,0.0,0.0,0.0,0.0,0.0,0.0,0.0,0.0,0.0,0.0,0.0,0.0,0.0,0.0,0.0,0.0,0.0,0.0,0.0,0.0,0.0,0.0,0.0,0.0,0.0,0.0,0.0,0.0,0.0,0.0,0.0,0.0,0.0,0.0,0.0,0.0,0.0,0.0,0.0,0.0,0.0,0.0,0.0,0.0,0.0,0.0,0.0,0.0,0.0,0.0,0.0,0.0,0.0,0.0,0.0,0.0,0.0,0.0,0.0,0.0,0.0,0.0,0.0,0.0,0.0,0.0,0.0,0.0,0.0,0.0,0.0,0.0,0.0,0.0,0.0,0.0,-2.6681,-2.8522,-3.0276,-3.1991,-3.2344,-3.2519,-3.2605,-3.1664,-3.0373,-2.8773,0.0,0.0,0.0,0.0,0.0,0.0,0.0,0.0,0.0,0.0,0.0,0.0,0.0,0.0,0.0,0.0,0.0,0.0,0.0,0.0,0.0,0.0,0.0,0.0,0.0,0.0,0.0,0.0,0.0,0.0,0.0,0.0,0.0,0.0,0.0,0.0,0.0,0.0,0.0,0.0,0.0,0.0,0.0,0.0,0.0,0.0,0.0,0.0,0.0,0.0,0.0,0.0,0.0,0.0,0.0,0.0,0.0,0.0,0.0,0.0,0.0,0.0,0.0,0.0,0.0,0.0,0.0,0.0,0.0,0.0,0.0,0.0,0.0,0.0,0.0,0.0,0.0,0.0,0.0,0.0,0.0,0.0,0.0,0.0,0.0,0.0,0.0,0.0,0.0,0.0,0.0,0.0,0.0,0.0,0.0,0.0,0.0,0.0,0.0,0.0,0.0,0.0,-2.7079,-2.9023,-3.0767,-3.2234,-3.23,-3.2344,-3.2649,-3.1813,-3.0588,-2.9051,0.0,0.0,0.0,0.0,0.0,0.0,0.0,0.0,0.0,0.0,0.0,0.0,0.0,0.0,0.0,0.0,0.0,0.0,0.0,0.0,0.0,0.0,0.0,0.0,0.0,0.0,0.0,0.0,0.0,0.0,0.0,0.0,0.0,0.0,0.0,0.0,0.0,0.0,0.0,0.0,0.0,0.0,0.0,0.0,0.0,0.0,0.0,0.0,0.0,0.0,0.0,0.0,0.0,0.0,0.0,0.0,0.0,0.0,0.0,0.0,0.0,0.0,0.0,0.0,0.0,0.0,0.0,0.0,0.0,0.0,0.0,0.0,0.0,0.0,0.0,0.0,0.0,0.0,0.0,0.0,0.0,0.0,0.0,0.0,0.0,0.0,0.0,0.0,0.0,0.0,0.0,0.0,0.0,0.0,0.0,0.0,0.0,0.0,0.0,0.0,0.0,0.0,-2.7207,-2.9733,-3.1697,-3.2438,-3.2251,-3.2345,-3.3036,-3.1826,-3.0555,-2.9487,0.0,0.0,0.0,0.0,0.0,0.0,0.0,0.0,0.0,0.0,0.0,0.0,0.0,0.0,0.0,0.0,0.0,0.0,0.0,0.0,0.0,0.0,0.0,0.0,0.0,0.0,0.0,0.0,0.0,0.0,0.0,0.0,0.0,0.0,0.0,0.0,0.0,0.0,0.0,0.0,0.0,0.0,0.0,0.0,0.0,0.0,0.0,0.0,0.0,0.0,0.0,0.0,0.0,0.0,0.0,0.0,0.0,0.0,0.0,0.0,-2.291,-2.2314,0.0,0.0,0.0,0.0,0.0,0.0,0.0,0.0,0.0,0.0,0.0,0.0,0.0,0.0,0.0,0.0,0.0,0.0,0.0,0.0,0.0,0.0,0.0,0.0,0.0,0.0,0.0,0.0,0.0,0.0,0.0,0.0,0.0,0.0,0.0,0.0,0.0,0.0,0.0,0.0,-2.84,-3.0396,-3.2101,-3.3301,-3.2967,-3.2688,-3.2867,-3.1928,-3.0599,-2.891,-2.7794,0.0,0.0,0.0,0.0,0.0,0.0,0.0,0.0,0.0,0.0,0.0,0.0,0.0,0.0,0.0,0.0,0.0,0.0,0.0,0.0,0.0,0.0,0.0,0.0,0.0,0.0,0.0,0.0,0.0,0.0,0.0,0.0,0.0,0.0,0.0,0.0,0.0,0.0,0.0,0.0,0.0,0.0,0.0,0.0,0.0,0.0,0.0,0.0,0.0,0.0,0.0,0.0,0.0,0.0,0.0,0.0,0.0,0.0,0.0,-2.4308,-2.3711,0.0,0.0,0.0,0.0,0.0,0.0,0.0,0.0,0.0,0.0,0.0,0.0,0.0,0.0,0.0,0.0,0.0,0.0,0.0,0.0,0.0,0.0,0.0,0.0,0.0,0.0,0.0,0.0,0.0,0.0,0.0,0.0,0.0,0.0,0.0,0.0,0.0,0.0,0.0,0.0,-2.8662,-3.0698,-3.2416,-3.3597,-3.3402,-3.319,-3.3127,-3.2433,-3.1357,-3.0004,-2.8634,0.0,0.0,0.0,0.0,0.0,0.0,0.0,0.0,0.0,0.0,0.0,0.0,0.0,0.0,0.0,0.0,0.0,0.0,0.0,0.0,0.0,0.0,0.0,0.0,0.0,0.0,0.0,0.0,0.0,0.0,0.0,0.0,0.0,0.0,0.0,0.0,0.0,0.0,0.0,0.0,0.0,0.0,0.0,0.0,0.0,0.0,0.0,0.0,0.0,0.0,0.0,0.0,0.0,-2.5912,-2.5964,-2.6115,-2.6269,-2.6568,-2.6858,-2.574,-2.5241,-2.5176,-2.4126,0.0,0.0,0.0,0.0,0.0,0.0,0.0,0.0,0.0,0.0,0.0,0.0,0.0,0.0,0.0,0.0,0.0,0.0,0.0,0.0,0.0,0.0,-2.8016,-2.6943,-2.7582,-2.7826,-2.5492,0.0,0.0,0.0,0.0,0.0,0.0,0.0,0.0,0.0,0.0,0.0,-2.8987,-3.1241,-3.3019,-3.3933,-3.3959,-3.3838,-3.375,-3.3067,-3.2265,-3.1413,-2.9671,-2.8148,0.0,0.0,0.0,0.0,0.0,0.0,0.0,0.0,0.0,0.0,0.0,0.0,0.0,0.0,0.0,0.0,0.0,0.0,0.0,0.0,0.0,0.0,0.0,0.0,0.0,0.0,0.0,0.0,0.0,0.0,0.0,0.0,-1.9996,-2.0829,0.0,0.0,0.0,0.0,0.0,0.0,0.0,0.0,0.0,0.0,0.0,0.0,0.0,-2.597,-2.5485,-2.7123,-2.7733,-2.7375,-2.7909,-2.8204,-2.8216,-2.8255,-2.8286,-2.8338,-2.8152,0.0,-2.5476,-2.5516,0.0,0.0,0.0,0.0,0.0,0.0,0.0,0.0,0.0,0.0,0.0,0.0,0.0,0.0,0.0,0.0,0.0,0.0,0.0,0.0,0.0,0.0,-3.0722,-2.9646,-2.9395,-2.9302,-2.8923,-2.6848,-2.5201,-2.5707,-2.5345,-2.5034,0.0,0.0,0.0,0.0,0.0,0.0,-3.0771,-3.2852,-3.4527,-3.5359,-3.4969,-3.4632,-3.4644,-3.3503,-3.2439,-3.1596,-3.0219,-2.8842,-2.7458,-2.6791,0.0,0.0,0.0,0.0,0.0,0.0,0.0,0.0,0.0,0.0,0.0,0.0,0.0,0.0,0.0,0.0,0.0,0.0,0.0,0.0,0.0,0.0,0.0,0.0,0.0,0.0,0.0,0.0,0.0,-2.0473,-2.1038,-2.1245,-2.1474,-2.1343,0.0,0.0,0.0,0.0,0.0,0.0,0.0,0.0,0.0,-2.5949,-2.6542,-2.7143,-2.7751,-2.8553,-2.8887,-2.879,-2.8799,-2.8853,-2.9001,-2.9001,-2.9145,-2.9373,-2.9114,-2.8396,-2.7329,-2.6599,-2.5995,-2.5451,0.0,0.0,0.0,0.0,-2.3742,-2.3678,-2.4861,-2.4904,-2.446,-2.4559,0.0,0.0,0.0,0.0,0.0,0.0,0.0,-2.7309,-2.7973,-2.9464,-3.0696,-3.0254,-3.0297,-3.0334,-2.9903,-2.9206,-2.8398,-2.774,-2.7319,-2.6978,-2.6612,-2.623,0.0,0.0,0.0,-2.9902,-3.1598,-3.3365,-3.482,-3.5615,-3.5479,-3.5154,-3.4816,-3.3939,-3.3044,-3.2139,-3.0933,-2.983,-2.9013,-2.8111,-2.7131,0.0,0.0,0.0,0.0,0.0,0.0,0.0,0.0,0.0,0.0,0.0,0.0,0.0,0.0,0.0,0.0,0.0,0.0,0.0,0.0,0.0,0.0,0.0,0.0,0.0,0.0,0.0,0.0,-2.1607,-2.2192,-2.1984,-2.2876,-2.2929,0.0,0.0,0.0,0.0,0.0,0.0,-2.6125,-2.612,-2.6537,-2.7583,-2.7769,-2.84,-2.9494,-2.9611,-2.9693,-2.9764,-2.944,-2.9308,-2.9477,-2.9477,-2.9673,-2.9973,-2.9632,-2.9302,-2.8921,-2.7648,-2.7086,-2.6857,-2.5616,-2.5207,-2.53,-2.491,-2.465,-2.4635,-2.592,-2.6267,-2.6162,-2.6312,-2.6233,-2.5956,-2.5347,0.0,0.0,0.0,0.0,-2.7746,-2.8455,-2.9582,-3.0478,-3.0221,-3.0483,-3.0678,-3.0099,-3.0405,-3.0417,-2.9366,-2.9151,-2.8843,-2.7936,-2.7589,0.0,-2.7704,-2.8992,-3.0487,-3.2009,-3.3601,-3.4806,-3.5318,-3.5548,-3.5426,-3.49,-3.4172,-3.345,-3.2676,-3.1495,-3.0646,-3.01,-2.9301,-2.849,-2.7725,0.0,0.0,0.0,0.0,0.0,0.0,0.0,0.0,0.0,0.0,0.0,0.0,0.0,0.0,0.0,0.0,0.0,0.0,0.0,0.0,0.0,0.0,0.0,0.0,0.0,0.0,0.0,0.0,0.0,-2.4011,-2.5115,0.0,0.0,0.0,0.0,-2.5427,-2.5523,-2.633,-2.8161,-2.8025,-2.8313,-2.9257,-2.9884,-3.0076,-2.9709,-3.0118,-3.0235,-2.9963,-2.9942,-2.9942,-2.9953,-2.9953,-2.9973,-2.9994,-2.9973,-2.9704,-2.9259,-2.8731,-2.8354,-2.8134,-2.8301,-2.839,-2.8307,-2.7417,-2.7133,-2.7081,-2.6734,-2.6308,-2.6087,-2.7256,-2.6735,-2.6017,-2.7592,-2.6928,0.0,0.0,-2.9042,-2.9802,-3.034,-3.0808,-3.0917,-3.0033,-2.9933,-3.0075,-3.0011,-2.9754,-2.9728,-3.047,-3.06,-3.047,-3.0016,0.0,-2.9508,-2.9656,-3.0703,-3.1649,-3.2136,-3.3704,-3.4723,-3.4566,-3.5063,-3.5345,-3.5114,-3.4006,-3.3248,-3.2987,-3.1904,-3.0908,-3.0113,-3.0048,-2.9474,-2.8394,-2.7745,0.0,0.0,0.0,0.0,0.0,0.0,0.0,0.0,0.0,0.0,0.0,0.0,0.0,0.0,0.0,0.0,0.0,0.0,0.0,0.0,0.0,0.0,0.0,0.0,0.0,0.0,0.0,0.0,-2.5612,-2.6659,0.0,-2.6151,-2.6666,-2.7183,-2.7401,-2.7936,-2.8676,-2.9447,-2.9501,-2.9682,-3.0051,-3.013,-3.0068,-2.9912,-3.0068,-3.0099,-2.9994,-2.9994,-2.9994,-2.9994,-2.9994,-2.9994,-2.9994,-2.9994,-2.9901,-2.9735,-2.957,-2.927,-2.8838,-2.8351,-2.8173,-2.809,-2.7537,-2.7123,-2.6931,-2.7535,-2.7802,-2.811,-2.9476,-2.9571,-2.9386,-3.0466,-2.9947,-2.9147,-3.0003,-3.0082,-2.9984,-3.0011,-3.0676,-3.12,-3.0813,-3.0738,-3.0752,-3.0595,-3.0393,-3.0216,-3.0075,-3.0302,-3.0468,-3.0322,-3.0302,-3.037,-3.0534,-3.1267,-3.1988,-3.2513,-3.3329,-3.3882,-3.3804,-3.3991,-3.4072,-3.3993,-3.3273,-3.2518,-3.1944,-3.1154,-3.0516,-3.0113,-3.01,-2.9771,-2.9009,-2.8386,-2.7393,0.0,0.0,0.0,0.0,0.0,0.0,0.0,0.0,0.0,0.0,0.0,0.0,0.0,0.0,0.0,0.0,0.0,0.0,0.0,0.0,0.0,0.0,0.0,0.0,0.0,-2.4553,-2.5672,-2.6594,-2.7762,-2.8178,-2.7474,-2.813,-2.8683,-2.8818,-2.9554,-3.008,-3.0185,-3.0337,-3.0339,-3.0297,-3.0099,-2.9994,-2.9994,-2.9994,-2.9994,-2.9994,-2.9994,-2.9994,-2.9994,-2.9994,-2.9994,-2.9994,-2.9994,-2.9994,-2.9994,-2.9994,-2.9818,-2.9477,-2.8866,-2.8618,-2.8566,-2.8121,-2.7807,-2.7585,-2.8063,-2.8705,-2.9441,-3.0343,-3.0948,-3.139,-3.1947,-3.1518,-3.0931,-3.1124,-3.0823,-3.0416,-3.0311,-3.0834,-3.1339,-3.1215,-3.1312,-3.1367,-3.1043,-3.0919,-3.0714,-3.0228,-3.0508,-3.0743,-3.0527,-3.0778,-3.1069,-3.1285,-3.1598,-3.1964,-3.2428,-3.2841,-3.3048,-3.2957,-3.313,-3.3249,-3.3184,-3.2602,-3.2036,-3.1514,-3.0727,-3.0233,-3.01,-2.9918,-2.9666,-2.9323,-2.9156,-2.8616,-2.7713,0.0,0.0,0.0,0.0,0.0,0.0,0.0,0.0,0.0,0.0,0.0,0.0,0.0,0.0,0.0,0.0,0.0,0.0,0.0,0.0,0.0,0.0,0.0,-2.3815,-2.5704,-2.6991,-2.7022,-2.8422,-2.9006,-2.7809,-2.8953,-2.974,-2.9719,-3.0139,-3.0391,-3.0391,-3.0401,-3.0318,-3.0015,-3.0036,-3.0046,-3.0036,-3.0025,-3.0015,-3.0015,-3.0005,-2.9994,-2.9994,-2.9994,-2.9994,-2.9994,-2.9994,-2.9994,-2.9994,-2.9994,-2.9994,-2.9994,-2.9994,-2.9984,-2.9922,-2.9466,-2.9301,-2.9156,-2.8305,-2.8808,-2.9829,-2.992,-3.0729,-3.1699,-3.1911,-3.1568,-3.1174,-3.1392,-3.1322,-3.1187,-3.1395,-3.1408,-3.1351,-3.1162,-3.1587,-3.1879,-3.1263,-3.1162,-3.1164,-3.1042,-3.1312,-3.1424,-3.0811,-3.1187,-3.1683,-3.1853,-3.172,0.0,-3.1853,-3.2201,-3.2359,-3.2065,-3.2605,-3.287,-3.2673,-3.2123,-3.1771,-3.1745,-3.0688,-3.0074,-3.01,-2.9588,-2.9323,-2.9371,-3.0021,-3.0715,-3.1467,0.0,0.0,0.0,0.0,0.0,0.0,0.0,0.0,0.0,0.0,0.0,0.0,0.0,0.0,0.0,0.0,0.0,0.0,0.0,0.0,0.0,-2.3712,-2.5037,-2.5285,-2.6433,-2.7735,-2.9074,-2.9785,-3.0174,-3.0213,-3.0351,-3.043,-3.0202,-3.0317,-3.0339,-3.0141,-3.041,-3.0597,-3.0501,-3.0822,-3.1106,-3.1301,-3.0764,-3.0597,-3.0799,-3.0255,-2.9994,-2.9994,-2.9994,-2.9994,-2.9994,-2.9994,-2.9994,-2.9994,-2.9994,-2.9994,-2.9994,-2.9994,-2.9787,-2.9477,-2.9352,-2.9094,-2.8963,-3.0229,-3.0618,-3.079,-3.228,-3.2716,-3.2716,-3.2972,-3.2698,-3.2308,-3.2562,-3.2511,-3.2295,-3.1992,-3.2421,-3.2692,-3.1997,-3.2088,-3.2298,-3.2133,-3.1645,-3.1202,-3.1164,-3.1147,-3.1099,-3.0962,-3.1299,-3.1609,-3.1683,-3.1522,-3.1397,-3.1471,-3.1418,-3.1373,-3.1297,-3.1428,-3.1533,-3.1457,-3.1313,-3.1039,-3.0596,-2.9915,-2.9693,-3.0074,-2.9588,-2.9729,-3.0645,-3.0092,-3.0104,0.0,0.0,0.0,0.0,0.0,0.0,0.0,0.0,0.0,0.0,0.0,0.0,0.0,0.0,0.0,0.0,0.0,0.0,0.0,0.0,0.0,0.0,-2.4933,-2.6407,-2.6941,-2.7655,-2.8559,-2.9614,-3.0015,-3.0349,-3.0661,-3.0568,-3.0412,-3.0245,-3.0245,-3.0276,-3.0422,-3.0586,-3.0824,-3.1119,-3.1345,-3.148,-3.1644,-3.1221,-3.0982,-3.0934,-3.0514,-3.018,-2.9994,-2.9994,-2.9994,-2.9994,-2.9994,-2.9994,-2.9994,-2.9994,-2.9994,0.0,0.0,0.0,0.0,0.0,-2.9982,-2.9817,-3.1464,-3.1796,-3.1642,-3.2779,-3.3219,-3.3296,-3.3355,-3.3303,-3.3303,-3.3433,-3.3292,-3.3113,-3.2964,-3.2968,-3.2982,-3.2494,-3.2431,-3.2376,-3.2126,-3.1647,-3.1206,-3.0977,-3.083,0.0,-3.0748,-3.1061,-3.1373,-3.1447,-3.1323,-3.1198,-3.1272,-3.1123,-3.0986,-3.0986,-3.0986,-3.0986,-3.0986,-3.0986,0.0,0.0,0.0,-2.968,-2.9771,-2.9457,0.0,0.0,0.0,0.0,0.0,0.0,0.0,0.0,-3.3888,-3.4261,0.0,0.0,0.0,0.0,0.0,0.0,0.0,0.0,0.0,0.0,0.0,0.0,0.0,0.0,0.0,0.0,-2.5916,-2.7241,-2.8514,-2.9094,-2.9384,-2.9435,-2.9746,-2.9994,-3.0047,-2.9994,-2.9994,-2.9994,-3.0098,-3.0401,-3.102,-3.0942,0.0,0.0,0.0,-3.1581,-3.1581,-3.1488,-3.1249,-3.0886,-3.0731,-3.0419,-3.0077,-3.0015,-2.9994,-2.9994,-2.9994,-2.9994,-2.9994,-2.9994,-2.9994,-2.9994,-2.9994,-2.9994,-3.0141,-3.1187,-3.1352,-3.113,-3.2377,0.0,0.0,-3.2412,-3.2885,-3.3467,-3.3305,-3.3535,-3.3949,-3.4041,-3.3903,-3.3728,-3.3958,-3.3293,-3.262,-3.2762,-3.256,-3.2209,-3.1706,-3.1452,-3.1167,-3.0678,-3.0481,-3.0406,-3.0406,-3.071,-3.1061,-3.1235,-3.1099,-3.1061,-3.1235,-3.1099,-3.0986,-3.0986,0.0,0.0,-3.0986,-3.0986,-3.0986,-3.0986,-3.0516,-2.9967,-2.9392,-2.948,-3.0449,-3.2466,-3.2481,-3.3518,-3.5609,-3.6207,-3.6552,-3.6656,-3.4801,-3.5138,0.0,0.0,0.0,0.0,0.0,0.0,0.0,0.0,0.0,0.0,0.0,0.0,0.0,0.0,0.0,-2.5732,-2.7191,-2.8442,-2.9073,-2.957,-2.9964,-3.0151,-3.0089,-3.0099,-3.0287,-3.0141,-2.9994,-2.9994,-3.0537,-3.0851,-3.0784,-3.1655,-3.2093,-3.1965,-3.2271,-3.2581,-3.2864,-3.1909,-3.1626,-3.2162,-3.0764,0.0,-3.0543,-3.016,-2.9994,-2.9994,-2.9994,-2.9994,-2.9994,-2.9994,-2.9994,-2.9994,-2.9994,-2.9994,-3.0141,-3.1187,-3.152,-3.1737,-3.3681,-3.3923,-3.3421,-3.3836,-3.3646,-3.3273,-3.3488,-3.3435,0.0,-3.44,-3.446,-3.4228,-3.4027,-3.3559,-3.3032,-3.2644,-3.2204,-3.1901,-3.2166,-3.1484,-3.091,-3.1179,-3.0786,-3.0406,-3.0406,-3.071,-3.1024,-3.1061,-3.1024,-3.1024,-3.1061,-3.1024,-3.0986,-3.0986,-3.0986,-3.0986,-3.0986,-3.0986,-3.0986,-3.0986,-3.0882,-3.0568,-2.9957,-3.0411,-3.1432,-3.2996,-3.3045,-3.4131,-3.6297,-3.6432,-3.7015,-3.8003,-3.7075,-3.7176,0.0,0.0,0.0,0.0,0.0,0.0,0.0,0.0,0.0,0.0,0.0,-2.293,-2.3695,0.0,-2.6352,-2.7256,-2.826,-2.9125,-2.9591,-2.9849,-3.0047,-3.0193,-3.0099,-3.0047,-3.0193,-3.0099,-2.9994,-2.9994,-3.0673,-3.1146,-3.1225,-3.2057,-3.2549,-3.2611,-3.267,-3.268,-3.2611,-3.1996,-3.1643,-3.1579,-3.0774,-3.0336,-3.0336,-3.0098,-2.9994,-2.9994,-2.9994,-2.9994,-2.9994,-2.9994,-2.9994,-3.0047,-3.0588,-3.0785,-3.094,-3.1993,-3.2728,-3.3426,-3.4896,-3.4954,-3.437,-3.4078,-3.3735,-3.3378,-3.3104,-3.315,-3.3426,-3.4186,-3.4294,-3.4244,-3.4366,-3.3861,-3.3224,-3.2959,-3.2307,-3.1749,-3.1981,-3.1393,-3.0863,-3.1038,-3.0733,-3.0418,-3.042,-3.071,-3.0986,-3.0986,-3.0986,-3.0986,-3.0986,-3.0986,-3.0986,-3.0986,-3.0986,-3.0986,-3.0986,-3.0986,-3.0986,-3.0986,-3.0986,-3.1029,-3.1116,-3.1383,-3.2232,-3.3734,-3.4068,-3.5,-3.6492,-3.7135,-3.7764,-3.8392,-3.8407,-3.8586,0.0,0.0,0.0,0.0,0.0,0.0,0.0,-2.2604,-2.2762,-2.2795,-2.3504,-2.4418,-2.5338,-2.6553,-2.7638,-2.8497,-2.9012,-2.9466,-2.9932,-2.9994,-2.9994,-2.9994,-2.9994,-2.9994,-2.9994,-2.9994,-3.0036,-3.0118,-3.0725,-3.1335,-3.1782,-3.2235,-3.271,-3.3058,-3.2851,-3.2452,-3.1988,-3.1895,-3.1547,-3.0822,-3.0636,-3.0398,-3.0129,-3.0036,-2.9994,-2.9994,-2.9994,-2.9994,-2.9994,-2.9994,-2.9994,-3.0036,-3.1084,-3.1626,-3.188,-3.3039,-3.3993,-3.4836,-3.5656,-3.5635,-3.5024,-3.4052,-3.3669,-3.3419,-3.2825,-3.2875,-3.3248,-3.3753,-3.385,-3.397,-3.4486,-3.3909,-3.3164,-3.3272,-3.25,-3.1705,-3.1705,-3.1296,-3.0851,-3.0601,-3.0542,-3.0434,-3.0292,-3.0672,-3.0986,-3.0986,-3.0986,-3.0986,-3.0986,-3.0986,-3.0986,-3.0986,-3.0986,-3.0986,-3.0986,-3.0986,-3.1039,-3.1143,-3.1156,-3.1483,-3.2182,-3.2353,-3.3101,-3.445,-3.5149,-3.5962,-3.6851,-3.7883,-3.8467,-3.8601,-3.9155,-3.9388,-2.2464,-2.3102,-2.3809,-2.47,-2.4202,-2.3808,0.0,-2.4774,-2.4457,-2.478,-2.5423,-2.6074,-2.6631,-2.7201,-2.7856,-2.8696,-2.9106,-2.9466,-2.9932,-2.9994,-2.9994,-2.9994,-2.9994,-2.9994,-2.9994,-2.9994,-3.016,-3.0584,-3.0913,-3.1374,-3.1975,-3.2291,-3.2598,-3.2773,-3.2737,-3.2452,-3.1988,-3.165,-3.1402,-3.1288,-3.047,-3.0263,-3.0594,-3.018,-2.9994,-2.9994,-2.9994,-2.9994,-2.9994,-2.9994,-2.9879,-2.9764,-3.0826,-3.1677,-3.2476,-3.3784,-3.4337,-3.4544,-3.5356,-3.5427,-3.5101,-3.4506,-3.3891,-3.3319,-3.3212,-3.2911,-3.2695,-3.3224,-3.3368,-3.3489,-3.3946,-3.3368,-3.2707,-3.3176,-3.25,-3.1705,-3.1705,-3.1296,-3.0754,-3.0266,-3.0351,-3.0355,-2.9843,-3.047,-3.0986,-3.0986,-3.0986,-3.0986,-3.0986,-3.0986,-3.0986,-3.0986,-3.0986,-3.0986,-3.0986,-3.0986,-3.1196,-3.168,-3.1706,-3.1967,-3.262,-3.3331,-3.4114,-3.4995,-3.5791,-3.6858,-3.8182,-3.8317,-3.8706,-3.9305,-3.9394,-3.9388,-2.3051,-2.3676,-2.428,-2.4643,-2.5099,-2.5554,-2.5757,-2.5759,-2.5788,-2.6126,-2.6097,-2.6419,-2.7675,-2.8056,-2.8478,-2.9394,-2.9653,-2.9777,-2.9973,-2.9994,-2.9994,-2.9994,-2.9994,-2.9994,-2.9994,-2.9994,-3.0191,-3.0646,-3.0934,-3.128,-3.1619,-3.1926,-3.2135,-3.2313,-3.2075,-3.1847,-3.165,-3.1205,-3.0843,-3.0563,-3.018,-3.0098,-3.0284,-3.0087,-2.9994,-2.9994,-2.9994,-2.9994,-2.9994,-2.9994,-2.9942,-2.9931,-3.0836,-3.179,-3.2739,-3.3784,-3.4544,-3.5102,-3.532,-3.5271,-3.509,-3.4401,-3.3945,-3.3621,-3.3008,-3.2671,-3.2551,-3.2767,-3.2827,-3.2947,-3.3464,-3.3056,-3.2563,-3.2779,-3.2226,-3.1705,-3.1705,-3.1536,-3.117,-3.0579,-3.0527,-3.049,-3.0151,-3.0394,-3.071,-3.0949,-3.0986,-3.0986,-3.0986,-3.0986,-3.0986,-3.0986,-3.0986,-3.1117,-3.1457,-3.1483,-3.1731,-3.2293,-3.2333,-3.2854,-3.4044,-3.441,-3.5178,-3.6399,-3.7169,-3.7812,-3.8392,-3.8796,-3.914,-3.9388,-3.9388,-3.9388,-2.3489,-2.4133,-2.4736,-2.4788,-2.5744,-2.6591,-2.6217,-2.6285,-2.6523,-2.6682,-2.6391,-2.6517,-2.7976,-2.8452,-2.8876,-2.9673,-2.9911,-2.9994,-2.9994,-2.9994,-2.9994,-2.9994,-2.9994,-2.9994,-2.9994,-2.9994,-3.0191,-3.0646,-3.0777,-3.0954,-3.1394,-3.1464,-3.16,-3.1847,-3.1547,-3.1319,-3.1184,-3.0853,-3.045,-2.9994,-2.9994,-2.9994,-2.9994,-2.9994,-2.9994,-2.9994,-2.9994,-2.9994,-2.9994,-2.9994,-2.9889,-2.9827,-3.0733,-3.1637,-3.26,-3.3449,-3.4507,-3.5464,-3.5175,-3.5078,-3.5017,-3.4426,-3.4114,-3.3826,-3.2984,-3.2623,-3.2466,-3.231,-3.2274,-3.2394,-3.2935,-3.2671,-3.231,-3.2466,-3.207,-3.1705,-3.1705,-3.1705,-3.1528,-3.0906,-3.0837,-3.0824,-3.0481,-3.0522,-3.0701,-3.0975,-3.0986,-3.0986,-3.0986,-3.0986,-3.0986,-3.0986,-3.113,-3.1392,-3.1771,-3.1941,-3.2319,-3.2908,-3.3159,-3.3881,-3.5224,-3.5714,-3.6467,-3.7594,-3.8316,-3.8676,-3.8676,-3.917,-3.9388,-3.9388,-3.9388,-3.9388,-2.3688,-2.446,-2.5408,-2.5925,-2.6093,-2.6209,-2.6578,-2.6535,-2.6351,-2.626,-2.6423,-2.675,-2.7258,-2.8017,-2.8773,-2.9249,-2.9704,-2.9994,-2.9994,-2.9994,-2.9994,-2.9994,-2.9994,-2.9994,-2.9994,-2.9994,-3.0191,-3.0646,-3.0274,-3.0408,-3.1329,-3.0957,-3.0915,-3.1381,-3.1381,-3.1164,-3.0708,-3.0698,-3.045,-2.9994,-2.9994,-2.9994,-2.9994,-2.9994,-2.9994,-2.9994,-2.9994,-2.9994,-2.9994,-2.9994,-2.9669,-2.9237,-3.037,-3.1135,-3.1779,-3.2839,-3.4066,-3.5175,-3.4932,-3.4823,-3.4823,-3.4763,-3.4402,-3.3898,-3.3416,-3.2911,-3.2382,-3.1886,-3.1729,-3.1862,-3.2382,-3.2106,-3.1874,-3.237,-3.207,-3.1705,-3.1705,-3.1705,-3.1548,-3.0995,-3.1229,-3.1267,-3.0613,-3.0861,-3.1151,-3.1027,-3.0986,-3.0986,-3.0986,-3.0986,-3.0986,-3.0986,-3.1483,-3.1784,-3.1797,-3.2346,-3.2921,-3.3522,-3.4313,-3.5018,-3.5668,-3.7228,-3.8144,-3.8182,-3.895,-3.9394,-3.9394,-3.9373,-3.9388,-3.9388,-3.9388,-3.9388,-2.3839,-2.4589,-2.5432,-2.5961,-2.6093,-2.6212,-2.6716,-2.6363,-2.6017,-2.6267,-2.5988,-2.6009,-2.7112,-2.7613,-2.8173,-2.9126,-2.9528,-2.9774,-2.9994,-2.9994,-2.9994,-2.9994,-2.9994,-2.9994,-2.9994,-2.9994,-3.0191,-3.0646,-3.0263,-3.0263,-3.0884,-3.0481,-3.0439,-3.0905,-3.0626,-3.0532,-3.0688,-3.0377,-3.0149,-2.9994,-2.9994,-2.9994,-2.9994,-2.9994,-2.9994,-2.9994,-2.9994,-2.9994,-2.9994,-2.9994,-2.9774,-2.9501,-3.0432,-3.1227,-3.1971,-3.2889,-3.3967,-3.4932,-3.4835,-3.4775,-3.4775,-3.4775,-3.4426,-3.3898,-3.344,-3.2923,-3.2382,-3.1862,-3.1705,-3.1753,-3.1901,-3.1849,-3.1753,-3.1946,-3.1849,-3.1705,-3.1705,-3.1994,-3.2058,-3.1548,-3.1829,-3.204,-3.1685,-3.1442,-3.1207,-3.1017,-3.0986,-3.0986,-3.0986,-3.1313,-3.151,-3.151,-3.2058,-3.2568,-3.2973,-3.3182,-3.3535,-3.4097,-3.4942,-3.5731,-3.6464,-3.7591,-3.8464,-3.901,-3.9265,-3.9388,-3.9388,-3.9388,-3.9388,-3.9388,-3.9388,-3.9388,-2.4085,-2.4743,-2.5348,-2.5661,-2.5781,-2.5961,-2.6502,-2.6193,-2.5825,-2.6088,-2.5765,-2.5711,-2.6615,-2.6996,-2.7555,-2.8857,-2.9229,-2.9475,-2.9921,-2.9994,-2.9994,-2.9994,-3.0139,-3.0243,-3.0243,-3.0387,-3.0543,-3.0677,-3.0408,-3.0367,-3.0667,-3.0243,-3.0129,-3.0429,-3.0149,-3.0139,-3.0439,-3.0149,-2.9994,-2.9994,-2.9994,-2.9994,-2.9994,-2.9994,-2.9994,-2.9994,-2.9994,-2.9994,-2.9994,-2.9994,-2.9774,-2.9448,-3.0015,-3.0867,-3.1931,-3.2437,-3.356,-3.4775,-3.4775,-3.4775,-3.4775,-3.4775,-3.4426,-3.3898,-3.344,-3.2923,-3.2382,-3.1862,-3.1705,-3.1705,-3.1705,-3.1705,-3.1705,-3.1705,-3.1705,-3.1705,-3.1705,-3.2106,-3.2394,-3.2034,-3.2385,-3.2694,-3.2496,-3.2095,-3.1687,-3.1355,-3.147,-3.1522,-3.1313,-3.1575,-3.1876,-3.2084,-3.2659,-3.3169,-3.3561,-3.377,-3.4031,-3.4384,-3.5494,-3.6346,-3.688,-3.8008,-3.8885,-3.9388,-3.9388,-3.9388,-3.9388,-3.9388,-3.9388,-3.9388,-3.9388,-3.9388,-2.4383,-2.4886,-2.5276,-2.5147,-2.5218,-2.5444,-2.5937,-2.5969,-2.5858,-2.5694,-2.5801,-2.5877,-2.5851,-2.6201,-2.6972,-2.8332,-2.8747,-2.9167,-2.988,-2.9994,-3.0005,-3.0025,-3.0419,-3.0698,-3.0719,-3.1143,-3.1236,-3.0791,-3.0708,-3.0688,-3.0688,-3.0243,-2.9994,-2.9994,-2.9994,-2.9994,-2.9994,-2.9994,-2.9994,-2.9994,-2.9994,-2.9994,-2.9994,-2.9994,-2.9994,-2.9994,-2.9994,-2.9994,-2.9994,-2.9994,-2.9669,-2.9132,-2.9185,-3.0203,-3.1626,-3.1677,-3.3001,-3.4775,-3.4775,-3.4775,-3.4775,-3.4775,-3.4402,-3.3862,-3.344,-3.2899,-3.2346,-3.1862,-3.1705,-3.1705,-3.1705,-3.1705,-3.1705,-3.1705,-3.1705,-3.1705,-3.1705,-3.2106,-3.2503,-3.2548,-3.2942,-3.3249,-3.3095,-3.2911,-3.2542,-3.1941,-3.2346,-3.2489,-3.1876,-3.185,-3.2098,-3.2672,-3.3273,-3.3639,-3.3639,-3.411,-3.4439,-3.4481,-3.5989,-3.6919,-3.6958,-3.8546,-3.9388,-3.9388,-3.9388,-3.9388,-3.9388,-3.9388,-3.9388,-3.9388,-3.9388,-3.9388,-2.4225,-2.4696,-2.5276,-2.5276,-2.5276,-2.5348,-2.548,-2.5722,-2.5754,-2.5234,-2.536,-2.5562,-2.5394,-2.594,-2.6802,-2.7909,-2.8646,-2.9264,-2.9921,-2.9994,-3.0118,-3.047,-3.0615,-3.0822,-3.1174,-3.1609,-3.1826,-3.1702,-3.1071,-3.0688,-3.0688,-3.0243,-2.9994,-2.9994,-2.9994,-2.9994,-2.9994,-2.9994,-2.9994,-2.9994,-2.9994,-2.9994,-2.9994,-2.9994,-2.9994,-2.9994,-2.9994,-2.9994,-2.9994,-2.9994,-2.9774,-2.9554,-3.012,-3.097,-3.1971,-3.2588,-3.3659,-3.4775,-3.4775,-3.4775,-3.4775,-3.4775,-3.4222,-3.3452,-3.3332,-3.2635,-3.1898,-3.1753,-3.1705,-3.1705,-3.1705,-3.1705,-3.1705,-3.1705,-3.1705,-3.1705,-3.1705,-3.2106,-3.2581,-3.293,-3.3619,-3.4172,-3.4107,-3.3682,-3.3156,-3.2568,-3.2594,-3.2489,-3.1876,-3.2567,-3.3195,-3.3352,-3.3862,-3.4188,-3.4188,-3.4319,-3.4675,-3.5345,-3.6346,-3.7204,-3.7834,-3.8833,-3.9388,-3.9388,-3.9388,-3.9388,-3.9388,-3.9388,-3.9388,-3.9388,-3.9388,-3.9388,-2.4507,-2.4873,-2.5276,-2.5241,-2.5276,-2.5312,-2.5312,-2.5658,-2.5716,-2.4691,-2.4887,-2.5081,-2.4432,-2.4997,-2.5914,-2.7087,-2.8016,-2.8855,-2.9723,-2.9942,-3.016,-3.0626,-3.0971,-3.1327,-3.1619,-3.2197,-3.2513,-3.2513,-3.1747,-3.1278,-3.1278,-3.0657,-3.0294,-3.0294,-3.0098,-2.9994,-2.9994,-2.9994,-2.9994,-2.9994,-2.9994,-2.9994,-2.9994,-2.9994,-2.9994,-2.9994,-2.9994,-2.9994,-2.9994,-2.9994,-2.9827,-2.9659,-3.012,-3.097,-3.2072,-3.2538,-3.356,-3.4775,-3.4775,-3.4775,-3.4775,-3.4775,-3.4126,-3.3284,-3.3284,-3.2527,-3.1705,-3.1705,-3.1705,-3.1705,-3.1705,-3.1705,-3.1705,-3.1705,-3.1705,-3.1705,-3.1705,-3.2106,-3.2672,-3.3365,-3.425,-3.491,-3.4839,-3.4582,-3.4136,-3.3535,-3.3443,-3.3247,-3.2672,-3.3182,-3.3679,-3.3927,-3.4214,-3.4397,-3.4397,-3.4758,-3.5196,-3.5669,-3.6791,-3.7706,-3.8165,-3.8958,-3.9388,-3.9388,-3.9388,-3.9388,-3.9388,-3.9388,-3.9388,-3.9388,-3.9388,-3.9388,-2.5123,-2.5313,-2.5385,-2.5254,-2.5313,-2.5384,-2.524,-2.5589,-2.5545,-2.41,-2.4384,-2.4514,-2.343,-2.3894,-2.4871,-2.6393,-2.735,-2.8299,-2.9484,-2.9827,-3.0191,-3.0719,-3.1394,-3.1887,-3.2141,-3.2839,-3.325,-3.325,-3.258,-3.2106,-3.2043,-3.1236,-3.0781,-3.0781,-3.0387,-3.0149,-3.0087,-3.0149,-3.0118,-2.9994,-3.0056,-3.0056,-2.9994,-2.9994,-2.9994,-2.9994,-2.9994,-2.9994,-2.9994,-2.9994,-2.9931,-2.9816,-2.9754,-3.0764,-3.2224,-3.2174,-3.33,-3.4775,-3.4775,-3.4775,-3.4775,-3.4775,-3.4174,-3.338,-3.3308,-3.2587,-3.1801,-3.1729,-3.1705,-3.1705,-3.1705,-3.1705,-3.1705,-3.1705,-3.1705,-3.1705,-3.1705,-3.209,-3.2755,-3.3626,-3.4553,-3.5241,-3.5383,-3.5338,-3.5116,-3.4593,-3.4515,-3.4319,-3.377,-3.3705,-3.3875,-3.4345,-3.4397,-3.4439,-3.4551,-3.5264,-3.579,-3.6016,-3.7414,-3.824,-3.8352,-3.9031,-3.9388,-3.9388,-3.9388,-3.9388,-3.9388,-3.9388,-3.9388,-3.9388,-3.9388,-3.9388,-2.5805,-2.5925,-2.5961,-2.5925,-2.5925,-2.5733,-2.482,-2.4873,-2.4751,-2.3575,-2.372,-2.396,-2.3535,-2.3961,-2.5018,-2.6855,-2.7596,-2.8401,-2.9755,-2.9994,-3.0315,-3.1153,-3.1592,-3.2122,-3.2926,-3.331,-3.3512,-3.3512,-3.3222,-3.2843,-3.2455,-3.1712,-3.1257,-3.1257,-3.1184,-3.0957,-3.0574,-3.0946,-3.076,-3.0005,-3.0387,-3.0367,-2.9994,-2.9994,-2.9994,-2.9994,-2.9994,0.0,-2.9994,-2.9994,-3.0339,-3.0877,-3.0681,-3.1688,-3.3289,-3.3051,-3.3758,-3.4775,-3.4775,-3.4775,-3.4775,-3.4775,-3.4366,-3.3837,-3.3416,-3.2851,-3.2262,-3.1837,-3.1705,-3.1705,-3.1705,-3.1705,-3.1705,-3.1705,-3.1705,-3.1705,-3.1705,-3.2054,-3.2702,-3.3683,-3.3949,-3.4405,-3.5722,-3.5587,-3.526,-3.5155,-3.5142,-3.4933,-3.4332,-3.4254,-3.4293,-3.4384,-3.4397,-3.4675,-3.5426,-3.5629,-3.6294,-3.7682,-3.8037,-3.8516,-3.9156,-3.9352,-3.9388,-3.9388,-3.9388,-3.9388,-3.9388,-3.9388,-3.9388,-3.9388,-3.9388,-3.9388,-2.5949,-2.5901,-2.5745,-2.6021,-2.5889,-2.5552,-2.5047,-2.5028,-2.4759,-2.3505,-2.3596,-2.3616,-2.2656,-2.3355,-2.4515,-2.5807,-2.6797,-2.7842,-2.9229,-2.9539,-3.0067,-3.1236,-3.1808,-3.2384,-3.3109,-3.3579,-3.3861,-3.3861,-3.3579,-3.3258,-3.2868,-3.2138,-3.1619,-3.1381,-3.1381,-3.1153,-3.0688,-3.0905,-3.0677,-2.9994,-3.0222,-3.0212,-2.9994,-2.9994,-2.9994,-2.9994,-2.9994,-2.9994,-2.9994,-2.9994,-3.0245,-3.0588,-3.0888,-3.179,-3.3001,-3.33,-3.4005,-3.4775,-3.4775,-3.4775,-3.4775,-3.4775,-3.4294,-3.3609,-3.3368,-3.2719,-3.2054,-3.1789,-3.1705,-3.1705,-3.1705,-3.1705,-3.1705,-3.1705,-3.1705,-3.1705,-3.1705,-3.2081,-3.2549,-3.3015,-3.3687,-3.4427,-3.5197,-3.5297,-3.5391,-3.5678,-3.5482,-3.5195,-3.4907,-3.4868,-3.475,-3.4437,-3.4397,-3.4758,-3.5629,-3.6082,-3.6869,-3.8127,-3.8575,-3.901,-3.9388,-3.9388,-3.9388,-3.9388,-3.9388,-3.9388,-3.9388,-3.9388,-3.9388,-3.9388,-3.9388,-3.9388,-2.5949,-2.5793,-2.5612,-2.6142,-2.5961,-2.5588,-2.5395,-2.5289,-2.4825,-2.347,-2.3407,-2.3229,-2.1999,-2.2772,-2.3941,-2.5027,-2.6091,-2.7247,-2.8758,-2.9157,-2.9787,-3.1071,-3.1799,-3.2452,-3.3075,-3.3695,-3.4142,-3.4199,-3.3794,-3.3466,-3.3193,-3.2554,-3.2033,-3.1681,-3.1567,-3.1298,-3.0833,-3.0833,-3.0553,-2.9994,-3.0098,-3.0087,-2.9994,-2.9994,-2.9994,-2.9994,-2.9994,-2.9994,-2.9994,-2.9994,-3.0088,-3.0349,-3.1135,-3.1942,-3.2762,-3.356,-3.4262,-3.4775,-3.4775,-3.4775,-3.4775,-3.4775,-3.4282,-3.3573,-3.3356,-3.2695,-3.2006,-3.1765,-3.1705,-3.1705,-3.1705,-3.1705,-3.1705,-3.1705,-3.1705,-3.1705,-3.1705,-3.1981,-3.23,-3.2463,-3.3463,-3.4369,-3.4714,-3.5085,-3.5443,-3.5874,-3.5665,-3.5378,-3.5142,-3.5221,-3.5064,-3.4463,-3.4397,-3.4827,-3.5856,-3.6543,-3.7333,-3.8389,-3.9046,-3.9388,-3.9388,-3.9388,-3.9388,-3.9388,-3.9388,-3.9388,-3.9388,-3.9388,-3.9388,-3.9388,-3.9388,-3.9388,-2.5949,-2.6057,-2.6154,-2.6681,-2.6777,-2.6563,-2.5766,-2.5228,-2.4545,-2.3138,-2.267,-2.2579,-2.2726,-2.2849,-2.3665,-2.6063,-2.6336,-2.6955,-2.9002,-2.9301,-2.9663,-3.0636,-3.1383,-3.215,-3.2878,-3.366,-3.4199,-3.4468,-3.3907,-3.3466,-3.3193,-3.2867,-3.2597,-3.2602,-3.2142,-3.1764,-3.1319,-3.1319,-3.0874,-3.0005,-3.0419,-3.0398,-2.9994,-2.9994,-2.9994,-2.9994,-2.9994,-2.9994,0.0,-2.9994,-3.0443,-3.1187,-3.1953,-3.275,-3.3598,-3.436,-3.4726,-3.4775,-3.4775,-3.4775,-3.4775,-3.4775,-3.4715,-3.4511,-3.3573,-3.3224,-3.2935,-3.1982,-3.1705,-3.1705,-3.1705,-3.1705,-3.1705,-3.1705,-3.1705,-3.1705,-3.1705,-3.1705,-3.2013,-3.2785,-3.3038,-3.3584,-3.4981,-3.5256,-3.5312,-3.5365,-3.5744,-3.5652,-3.462,-3.4959,-3.5064,-3.4463,-3.4397,-3.506,-3.6646,-3.6855,-3.7601,-3.9192,-3.9337,-3.9388,-3.9388,-3.9388,-3.9388,-3.9388,-3.9388,-3.9388,-3.9388,-3.9388,-3.9388,-3.9388,-3.9388,-3.9388,-2.6021,-2.5973,-2.5865,-2.6843,-2.6745,-2.6359,-2.6153,-2.5828,-2.5283,-2.4066,-2.3682,-2.3454,-2.325,-2.3227,-2.3766,-2.5477,-2.5809,-2.6433,-2.8206,-2.8711,-2.9239,-3.016,-3.1185,-3.203,-3.2604,-3.3359,-3.3861,-3.3963,-3.3314,-3.2875,-3.2773,-3.2752,-3.2669,-3.2669,-3.2225,-3.1826,-3.1381,-3.1102,-3.0636,-2.9994,-3.018,-3.017,-2.9994,-2.9994,-2.9994,-2.9994,-2.9994,-2.9994,0.0,-2.9994,-3.0484,-3.1289,-3.2106,-3.2901,-3.3697,-3.4519,-3.4775,-3.4775,-3.4775,-3.4775,-3.4775,-3.4775,-3.4775,-3.4583,-3.3597,-3.3068,-3.2659,-3.1922,-3.1705,-3.1705,-3.1705,-3.1705,-3.1705,-3.1705,-3.1705,-3.1793,-3.2069,-3.2125,-3.2288,-3.2914,-3.3245,-3.362,-3.4246,-3.4582,-3.4881,-3.5247,-3.5482,-3.5574,-3.5443,-3.5351,-3.5208,-3.4959,-3.462,-3.5101,-3.6763,-3.688,-3.7639,-3.9301,-3.9388,-3.9388,-3.9388,-3.9388,-3.9388,-3.9388,-3.9388,-3.9388,-3.9388,-3.9388,-3.9388,-3.9388,-3.9388,-3.9388,-2.6117,-2.6057,-2.6033,-2.7211,-2.7075,-2.6674,-2.6797,-2.6603,-2.6068,-2.4842,-2.4485,-2.4167,-2.3529,-2.3515,-2.3931,-2.4931,-2.5416,-2.6198,-2.7689,-2.8317,-2.8959,-2.988,-3.0777,-3.151,-3.2227,-3.3106,-3.3515,-3.3423,-3.2836,-3.2427,-3.229,-3.2326,-3.2333,-3.2333,-3.1878,-3.1485,-3.1174,-3.0708,-3.0315,-2.9994,-2.9994,-2.9994,-2.9994,-2.9994,-2.9994,-2.9994,-2.9994,-2.9994,0.0,-2.9994,-3.0339,-3.094,-3.2004,-3.2762,-3.335,-3.4421,-3.4775,-3.4775,-3.4775,-3.4775,-3.4775,-3.4775,-3.4775,-3.4583,-3.3597,-3.3032,-3.2587,-3.191,-3.1705,-3.1705,-3.1705,-3.1705,-3.1705,-3.1705,-3.1705,-3.1805,-3.2125,-3.2213,-3.2332,-3.2914,-3.3245,-3.3586,-3.3839,-3.4189,-3.4541,-3.4959,-3.5182,-3.5365,-3.5574,-3.5417,-3.5221,-3.5051,-3.4884,-3.5372,-3.6763,-3.7127,-3.7881,-3.9301,-3.9388,-3.9388,-3.9388,-3.9388,-3.9388,-3.9388,-3.9388,-3.9388,-3.9388,-3.9388,-3.9388,-3.9388,-3.9388,-3.9388,-2.6262,-2.6553,-2.6931,-2.8011,-2.8116,-2.7969,-2.7841,-2.7471,-2.6731,-2.5131,-2.4641,-2.431,-2.3619,-2.3742,-2.4135,-2.4791,-2.5472,-2.6351,-2.7728,-2.8317,-2.8959,-2.988,-3.0005,-3.0473,-3.1713,-3.2916,-3.3434,-3.2965,-3.2656,-3.229,-3.1829,-3.1545,-3.1391,-3.1391,-3.0946,-3.0698,-3.0698,-3.0232,-3.0005,-2.9994,-2.9994,-2.9994,-2.9994,-2.9994,-2.9994,-2.9994,-2.9994,-2.9994,0.0,-2.9994,-2.9994,-3.0151,-3.1761,-3.242,-3.2611,-3.4225,-3.4775,-3.4775,-3.4775,-3.4775,-3.4775,-3.4775,-3.4775,-3.4583,-3.3597,-3.3284,-3.3056,-3.2006,-3.1705,-3.1705,-3.1705,-3.1705,-3.1705,-3.1705,-3.1705,-3.1705,-3.1717,-3.1705,-3.1969,-3.2815,-3.2988,-3.3288,-3.423,-3.4397,-3.4397,-3.441,-3.492,-3.509,-3.4489,-3.4933,-3.5064,-3.4463,-3.5196,-3.6016,-3.6841,-3.7706,-3.8538,-3.9352,-3.9388,-3.9388,-3.9388,-3.9388,-3.9388,-3.9388,-3.9388,-3.9388,-3.9388,-3.9388,-3.9388,-3.9388,-3.9388,-3.9388,-2.5588,-2.6179,-2.6831,-2.7309,-2.7533,-2.7594,-2.7332,-2.7311,-2.6978,-2.5526,-2.4964,-2.463,-2.4176,-2.3979,-2.4239,-2.5574,-2.5736,-2.6311,-2.8113,-2.8524,-2.8835,-2.9446,-3.0087,-3.0762,-3.1472,-3.185,-3.202,-3.1874,-3.1517,-3.1212,-3.1067,-3.0658,-3.0729,-3.136,-3.0926,-3.0688,-3.0688,-3.0222,-2.9994,-2.9994,-2.9994,-2.9994,-2.9994,-2.9994,-2.9994,-2.9994,-2.9994,-2.9994,-2.9994,-2.9994,-3.0339,-3.0888,-3.1392,-3.2246,-3.33,-3.3808,-3.4311,-3.4775,-3.4775,-3.4775,-3.4775,-3.4775,-3.4534,-3.4114,-3.3489,-3.3284,-3.3068,-3.2018,-3.1705,-3.1705,-3.1705,-3.1705,-3.1705,-3.1705,-3.1705,-3.1805,-3.2125,-3.2169,-3.2332,-3.2914,-3.3245,-3.3586,-3.3882,-3.4189,-3.4397,-3.4397,-3.4554,-3.4763,-3.4986,-3.4816,-3.4763,-3.4986,-3.59,-3.6621,-3.688,-3.7706,-3.8538,-3.9352,-3.9388,-3.9388,-3.9388,-3.9388,-3.9388,-3.9388,-3.9388,-3.9388,-3.9388,-3.9388,-3.9388,-3.9388,-3.9388,-3.9388,-2.5881,-2.6439,-2.701,-2.7352,-2.7519,-2.7459,-2.6808,-2.6883,-2.6728,-2.5271,-2.4948,-2.4814,-2.4388,-2.4173,-2.4435,-2.5523,-2.5706,-2.6285,-2.7893,-2.84,-2.8783,-2.9249,-3.0118,-3.0729,-3.0843,-3.1174,-3.1309,-3.1133,-3.0853,-3.0605,-3.0439,-3.0149,-3.0263,-3.0833,-3.0574,-3.0429,-3.0429,-3.0139,-2.9994,-2.9994,-2.9994,-2.9994,-2.9994,-2.9994,-2.9994,-2.9994,-2.9994,-2.9994,0.0,-2.9994,-3.0297,-3.0795,-3.1084,-3.1993,-3.3201,-3.3499,-3.4115,-3.4775,-3.4775,-3.4775,-3.4751,-3.4546,-3.3994,-3.3404,-3.3092,-3.2851,-3.2584,-3.1898,-3.1705,-3.1705,-3.1705,-3.1705,-3.1705,-3.1705,-3.1705,-3.1793,-3.2069,-3.2257,-3.2519,-3.2914,-3.3373,-3.3755,-3.3924,-3.423,-3.4397,-3.4397,-3.4397,-3.4541,-3.4907,-3.4912,-3.5014,-3.5398,-3.6595,-3.7372,-3.7372,-3.8188,-3.8848,-3.9373,-3.9388,-3.9388,-3.9388,-3.9388,-3.9388,-3.9388,-3.9388,-3.9388,-3.9388,-3.9388,-3.9388,-3.9388,-3.9388,-3.9388,0.0,-2.7137,-2.7394,-2.7871,-2.7875,-2.7483,-2.6433,-2.6354,0.0,-2.4736,-2.4712,-2.4832,-2.437,-2.442,-2.4638,-2.503,-2.5554,-2.6324,-2.7309,-2.8162,-2.8866,-2.9301,-3.0118,-3.0523,-3.0088,-3.0824,-3.1156,-3.072,-3.0636,-3.045,-3.0015,-2.9994,-2.9994,-2.9994,-2.9994,-2.9994,-2.9994,-2.9994,-2.9994,-2.9994,-2.9994,-2.9994,-2.9994,-2.9994,-2.9994,-2.9994,-2.9994,-2.9994,-2.9994,-2.9994,-2.9994,-3.0088,-3.0836,-3.1575,-3.2353,-3.3143,-3.3934,-3.4618,-3.4667,-3.4667,-3.4583,-3.4054,-3.3238,-3.2491,-3.2454,-3.2082,-3.1705,-3.1705,-3.1705,-3.1705,-3.1705,-3.1705,-3.1705,-3.1705,-3.1705,-3.1705,-3.1749,-3.2069,-3.2519,-3.2914,-3.3373,-3.3839,-3.4272,-3.4397,-3.4397,-3.4397,-3.4397,-3.4397,-3.4397,-3.5155,-3.5709,-3.5709,-3.7208,-3.8202,-3.8202,-3.8922,-3.9388,-3.9388,-3.9388,-3.9388,-3.9388,-3.9388,-3.9388,-3.9388,-3.9388,-3.9388,-3.9388,-3.9388,-3.9388,-3.9388,-3.9388,-3.9388,-2.6615,0.0,-2.7241,-2.6952,-2.7168,-2.7337,0.0,-2.6871,-2.6555,-2.5932,-2.5264,-2.4804,-2.4956,-2.4903,-2.5228,-2.6553,-2.6579,-2.7019,-2.8597,-2.9311,-2.9715,-2.9818,-3.0224,-3.0412,-3.0308,-3.0496,-3.058,-3.0465,-3.0255,-3.0108,-3.0005,-3.0193,-3.0193,-2.9994,-3.0193,-3.0193,-2.9994,-2.9994,-2.9994,-2.9994,-2.9994,-2.9994,-2.9994,-2.9994,-2.9994,-2.9994,-2.9994,-2.9994,-2.9994,-2.9994,-2.9994,-2.9994,-3.0193,-3.0531,-3.1022,-3.1799,-3.2386,-3.2889,-3.3445,-3.3645,-3.3561,-3.3032,-3.2695,-3.2418,-3.1985,-3.1813,-3.1705,-3.1705,-3.1705,-3.1705,-3.1705,-3.1705,-3.1705,-3.1705,-3.1705,-3.1805,-3.2169,-3.23,-3.2519,-3.2914,-3.3373,-3.3755,-3.3852,-3.4134,-3.4397,-3.4397,-3.4397,-3.4397,-3.4397,-3.5155,-3.5709,-3.5709,-3.7208,-3.8202,-3.8202,-3.8922,-3.9388,-3.9388,-3.9388,-3.9388,-3.9388,-3.9388,-3.9388,-3.9388,-3.9388,-3.9388,-3.9388,-3.9388,-3.9388,-3.9388,-3.9388,-3.9388,-2.6499,-2.7077,-2.7595,-2.7329,-2.7444,-2.754,-2.704,-2.6564,-2.6005,-2.5355,-2.4895,-2.4745,-2.5142,-2.5101,-2.5472,-2.6755,-2.6957,-2.7506,-2.9073,-2.9518,-2.9756,-2.9973,-3.0141,-3.0245,-3.0391,-3.0391,-3.0391,-3.0391,-3.0297,-3.0141,-2.9994,-3.0151,-3.0047,-2.9684,-2.9829,-2.9933,-2.9994,-2.9994,-2.9994,-2.9994,-2.9994,-2.9994,-2.9994,-2.9994,-2.9994,-2.9994,-2.9994,-2.9994,-2.9994,-2.9994,-2.987,-2.9684,-2.9684,-2.9895,-3.0223,-3.0619,-3.136,-3.2241,-3.2641,-3.2884,-3.2887,-3.2599,-3.2322,-3.2058,-3.1801,-3.1705,-3.1705,-3.1705,-3.1705,-3.1705,-3.1705,-3.1705,-3.1705,-3.1705,-3.1837,-3.2069,-3.2356,-3.2723,-3.3056,-3.33,-3.3713,-3.4008,-3.4008,-3.423,-3.4397,-3.4397,-3.4397,-3.4397,-3.4397,-3.5467,-3.6255,-3.6241,-3.7744,-3.8738,-3.8738,-3.9156,-3.9388,-3.9388,-3.9388,-3.9388,-3.9388,-3.9388,-3.9388,-3.9388,-3.9388,-3.9388,-3.9388,-3.9388,-3.9388,-3.9388,-3.9388,-3.9388,-2.67,-2.7519,-2.8298,-2.8047,-2.7987,-2.7779,-2.6863,0.0,0.0,0.0,0.0,-2.4662,-2.5189,-2.5388,-2.573,-2.663,-2.7268,-2.7976,-2.9145,-2.9363,-2.9559,-2.9953,-3.0047,-3.0141,-3.0391,-3.0391,-3.0391,-3.0391,-3.0339,-3.0214,-2.9891,-2.9943,-2.9725,-2.9208,-2.9248,-2.9435,-2.9777,-2.9787,-2.9787,-2.9787,-2.986,-2.9891,-2.9891,-2.9963,-2.9953,-2.9891,-2.9891,0.0,-2.9787,-2.9787,-2.9559,-2.9197,-2.9197,-2.931,-2.953,-2.9628,-3.0496,-3.1632,-3.1867,-3.2156,-3.237,-3.237,-3.2058,-3.1705,-3.1705,-3.1705,-3.1705,-3.1705,-3.1705,-3.1705,-3.1705,-3.1705,-3.1705,-3.1705,-3.2069,-3.2431,-3.2475,-3.3142,-3.3713,-3.3797,-3.4147,-3.4397,-3.4397,-3.4397,-3.4397,-3.4397,-3.4397,-3.44,-3.4432,-3.5882,-3.6919,-3.6947,-3.8413,-3.9388,-3.9388,-3.9388,-3.9388,-3.9388,-3.9388,-3.9388,-3.9388,-3.9388,-3.9388,-3.9388,-3.9388,-3.9388,-3.9388,-3.9388,-3.9388,-3.9388,-3.9388,-3.9388,-2.7595,-2.8674,-2.9189,-2.777,-2.7558,-2.7613,-2.7466,-2.6194,0.0,0.0,0.0,0.0,-2.5627,-2.6103,-2.6662,-2.7562,-2.8431,-2.9063,-2.927,-2.9642,-2.9911,-2.9984,-3.0193,-3.0339,-3.0391,-3.0391,-3.0391,-3.0391,-3.0193,-2.987,-2.9435,-2.9609,-2.9441,-2.8731,-2.8911,-2.8992,-2.8825,-2.8825,-2.8825,-2.8835,-2.9228,-2.9415,-2.9425,-2.9818,-2.9777,-2.9415,0.0,-2.9187,-2.8825,-2.8825,-2.8783,-2.8721,-2.8721,-2.8491,-2.8272,-2.8871,-2.9066,-2.9162,-3.04,-3.126,-3.1837,-3.1837,-3.1777,-3.1705,-3.1705,-3.1705,-3.1705,-3.1705,-3.1705,-3.1705,-3.1705,-3.1705,-3.1705,-3.1705,-3.2069,-3.2475,-3.2828,-3.3343,-3.3797,-3.423,-3.4356,-3.4397,-3.4397,-3.4397,-3.4397,-3.4397,-3.4397,-3.4462,-3.4633,-3.5963,-3.6967,-3.7131,-3.8494,-3.9388,-3.9388,-3.9388,-3.9388,-3.9388,-3.9388,-3.9388,-3.9388,-3.9388,-3.9388,-3.9388,-3.9388,-3.9388,-3.9388,-3.9388,-3.9388,-3.9388,-3.9388,-3.9388,-2.7115,-2.8247,-2.9139,-2.836,-2.8897,-2.9619,-2.9414,-2.7876,-2.6529,0.0,0.0,-2.5461,-2.6123,-2.6677,-2.7372,-2.8483,-2.9032,-2.9394,-2.9642,-2.986,-2.9994,-2.9994,-3.0099,-3.0245,-3.0391,-3.0391,-3.0286,-3.0034,-2.9921,-2.9568,-2.8959,-2.9029,-2.8811,-2.8255,-2.8333,-2.8268,-2.7883,-2.7883,-2.8131,-2.8618,-2.8825,-2.8928,-2.8938,-2.9156,-2.9135,-2.8928,0.0,-2.8804,-2.8618,-2.8618,-2.8473,-2.8245,-2.8245,-2.7966,-2.7658,-2.8412,-2.8791,-2.9174,-3.0216,-3.1071,-3.1705,-3.1705,-3.1705,-3.1705,-3.1705,-3.1705,-3.1705,-3.1705,-3.1705,-3.1705,-3.1705,-3.1705,-3.1705,-3.1705,-3.2232,-3.2754,-3.2957,-3.3586,-3.4147,-3.4356,-3.4397,-3.4397,-3.4397,-3.4397,-3.4397,-3.4397,-3.4397,-3.4624,-3.5183,-3.6219,-3.6963,-3.72,-3.8197,-3.8721,-3.8362,-3.8332,-3.8482,-3.8841,-3.8856,-3.8706,-3.8347,-3.8676,-3.8856,-3.8856,-3.923,-3.9388,-3.9388,-3.9388,-3.9388,-3.9388,-3.9388,-3.9388,-2.6813,-2.777,-2.8725,-2.8824,-2.9623,-3.0544,-3.0822,-2.8974,-2.7253,-2.7514,-2.6753,-2.6144,-2.6553,-2.7175,-2.7986,-2.9259,-2.9466,-2.9591,-2.9942,-2.9994,-2.9994,-2.9994,-2.9994,-3.0057,-3.014,-3.013,-2.9942,-2.9471,-2.9429,-2.913,-2.8473,-2.8452,-2.8245,-2.7779,-2.7769,-2.7603,-2.7309,-2.7309,-2.7662,-2.8297,-2.8499,-2.8601,-2.865,-2.8854,-2.8893,-2.8799,-2.8799,-2.8676,-2.8434,-2.8434,-2.8139,-2.7672,-2.7672,-2.7417,-2.7167,-2.7736,-2.842,-2.9152,-2.9977,-3.0746,-3.1383,-3.1617,-3.1705,-3.1705,-3.1705,-3.1705,-3.1705,-3.1705,-3.1705,-3.1705,-3.1705,-3.1705,-3.1705,-3.1849,-3.2438,-3.3031,-3.3116,-3.3797,-3.4397,-3.4397,-3.4397,-3.4397,-3.4397,-3.4397,-3.4397,-3.4397,-3.4397,-3.4746,-3.5625,-3.642,-3.6982,-3.7201,-3.792,-3.8123,-3.7464,-3.7404,-3.7569,-3.7928,-3.8078,-3.7943,-3.7434,-3.7883,-3.8227,-3.8392,-3.8901,-3.926,-3.9388,-3.9388,-3.9388,-3.9388,-3.9388,-3.9388,-2.7708,-2.8072,-2.8213,-2.8553,-2.8115,-2.8193,-3.0397,-2.8038,-2.5904,-2.7774,-2.7288,-2.6573,-2.6604,-2.7634,-2.8825,-2.9787,-2.9942,-2.9953,-2.9994,-2.9994,-2.9994,-2.9994,-2.9994,-2.9829,-2.9394,-2.9404,-2.9156,-2.869,-2.8659,-2.8462,-2.7997,-2.7976,-2.7769,-2.7372,-2.7351,-2.734,-2.7309,-2.7309,-2.734,-2.7403,-2.8263,-2.8705,-2.8715,-2.9591,-2.9742,-2.9356,-2.9356,-2.8821,-2.8046,-2.8046,-2.762,-2.6951,-2.6951,-2.6825,-2.6544,-2.664,-2.7088,-2.7872,-2.8852,-2.9669,-3.0453,-3.1383,-3.1705,-3.1705,-3.1705,-3.1705,-3.1705,-3.1705,-3.1705,-3.1705,-3.1705,-3.1705,-3.1805,-3.2257,-3.2667,-3.3116,-3.3543,-3.405,-3.4397,-3.4397,-3.4397,-3.4397,-3.4397,-3.4397,-3.4397,-3.4397,-3.4397,-3.4751,-3.5763,-3.649,-3.7001,-3.7357,-3.7983,-3.8123,-3.7464,-3.7404,-3.718,-3.6656,-3.7165,-3.7464,-3.7404,-3.7464,-3.7764,-3.8377,-3.8437,-3.8781,-3.9388,-3.9388,-3.9388,-3.9388,-3.9388,-3.9388,-2.7002,-2.7833,-2.8512,-2.8082,-2.7851,0.0,-2.9659,-2.8656,-2.7742,-2.9114,-2.8556,-2.7841,-2.7841,-2.8504,-2.9156,-2.9508,-2.9808,-2.9994,-2.9994,-2.9994,-2.9891,-2.9601,-2.957,-2.9384,-2.8918,-2.8876,-2.868,-2.8214,-2.8183,-2.7986,-2.7541,-2.751,-2.7486,-2.7309,-2.7309,-2.7441,-2.7715,-2.7715,-2.7904,-2.8175,-2.8215,-2.8406,-2.8726,-2.9052,-2.9125,-2.895,-2.895,-2.8618,-2.7998,-2.7998,-2.7668,-2.7129,-2.6948,-2.6747,-2.6496,-2.6496,-2.6955,-2.7731,-2.8749,-2.9578,-3.0351,-3.1383,-3.1705,-3.1705,-3.1705,-3.1705,-3.1705,-3.1705,-3.1705,-3.1705,-3.1705,-3.1937,-3.2169,-3.2344,-3.2927,-3.3458,-3.367,-3.405,-3.4397,-3.4397,-3.4397,-3.4397,-3.4397,-3.4397,-3.4397,-3.4397,-3.4397,-3.4898,-3.6339,-3.674,-3.7025,-3.7367,-3.6926,-3.6492,-3.6252,-3.6222,-3.6133,-3.5893,-3.6477,-3.6641,-3.6252,-3.6626,-3.6956,-3.7195,-3.7584,-3.8108,-3.8781,-3.8781,-3.899,-3.9388,-3.9388,-3.9388,-2.6751,-2.767,-2.8475,-2.7839,0.0,0.0,-2.9001,-2.8749,-2.8621,-2.9872,-2.9225,-2.8483,-2.8783,-2.897,-2.9187,-2.9477,-2.9673,-2.9777,-2.9777,-2.9653,-2.9446,-2.9125,-2.9083,-2.8897,-2.8442,-2.839,-2.8204,-2.7748,-2.7717,-2.7583,-2.732,-2.7309,-2.7309,-2.7309,-2.7441,-2.7678,-2.7998,-2.8434,-2.876,-2.8967,-2.92,-2.92,-2.8967,-2.9095,-2.9187,-2.9187,-2.9187,-2.891,-2.8456,-2.8456,-2.8045,-2.7357,-2.6832,-2.6544,-2.6352,-2.6255,-2.663,-2.7268,-2.8294,-2.9165,-3.0034,-3.1015,-3.1528,-3.1705,-3.1705,-3.1705,-3.1705,-3.1705,-3.1805,-3.1937,-3.1937,-3.2169,-3.2431,-3.255,-3.3172,-3.3755,-3.3882,-3.4176,-3.4397,-3.4397,-3.4397,-3.4397,-3.4397,-3.4397,-3.4397,-3.4397,-3.4397,-3.5019,-3.6685,-3.6712,-3.6739,-3.7069,-3.6148,-3.5504,-3.5504,-3.5504,-3.5504,-3.5504,-3.5923,-3.5968,-3.5534,-3.5938,-3.6267,-3.6492,-3.6911,-3.7539,-3.8392,-3.8392,-3.8736,-3.9388,-3.9388,-3.9388,-2.7268,-2.7682,-2.8051,-2.7843,-2.7434,-2.7337,-2.847,-2.7998,-2.7846,-2.9802,-2.896,-2.8224,-2.9135,-2.8928,-2.8928,-2.9839,-2.9601,-2.9301,-2.9301,-2.8907,-2.8618,-2.8607,-2.8607,-2.8421,-2.7966,-2.7865,-2.7738,-2.734,-2.7309,-2.7309,-2.7309,-2.7309,-2.7309,-2.7309,-2.7762,-2.7998,-2.8034,-2.9418,-2.9932,-2.9566,-3.1364,-3.1276,-2.9531,-3.0034,-3.0216,-3.0216,-3.0216,-2.9943,-2.9485,-2.9485,-2.8746,-2.7489,-2.6476,-2.6091,-2.6052,-2.583,-2.5868,-2.6235,-2.7258,-2.8247,-2.9268,-3.0295,-3.1116,-3.1705,-3.1705,-3.1705,-3.1705,-3.1705,-3.2025,-3.24,-3.24,-3.2388,-3.2519,-3.2914,-3.3373,-3.3839,-3.4314,-3.4397,-3.4397,-3.4397,-3.4397,-3.4397,-3.4397,-3.4397,-3.4397,-3.4384,-3.4384,-3.5019,-3.6671,-3.6332,-3.6059,-3.6443,-3.5893,-3.5504,-3.5504,-3.5504,-3.5504,-3.5504,-3.5504,-3.5504,-3.5504,-3.5504,-3.5804,-3.6462,-3.6477,-3.7105,-3.8362,-3.8377,-3.8736,-3.9394,-3.9373,-3.9388,-2.6839,-2.767,-2.8487,-2.7839,-2.8968,-2.9975,-2.8951,-2.8195,-2.8177,-2.9719,-2.9723,-2.9363,-2.9311,-2.9466,-2.957,-2.9518,-2.9394,-2.9301,-2.9301,-2.8907,-2.8493,-2.8173,-2.8131,-2.7955,-2.75,-2.7458,-2.7455,-2.732,-2.7309,-2.7309,-2.7309,-2.7309,-2.7309,-2.7309,-2.7441,-2.7957,-2.8847,-2.9681,-3.05,-3.135,-3.2308,-3.2147,-3.1003,-3.1821,-3.1821,-3.1181,-3.1181,-3.0554,-2.9485,-2.9106,-2.8409,-2.7584,-2.7251,-2.6822,-2.6352,-2.6304,-2.6304,-2.6534,-2.7515,-2.8445,-2.9268,-3.0295,-3.1116,-3.1705,-3.1705,-3.1705,-3.1705,-3.1705,-3.2025,-3.24,-3.24,-3.2853,-3.3343,-3.3458,-3.3839,-3.423,-3.4356,-3.4397,-3.4397,-3.4397,-3.4397,-3.4397,-3.4397,-3.4397,-3.4267,-3.3888,-3.4285,-3.5039,-3.6268,-3.6343,-3.6355,-3.6488,-3.5893,-3.5504,-3.5504,-3.5504,-3.5504,-3.5504,-3.5504,-3.5504,-3.5504,-3.5504,-3.5594,-3.5789,-3.5804,-3.6207,-3.7045,-3.7479,-3.7808,-3.8033,-3.894,-3.9155,-2.7794,-2.8674,-2.9537,-2.945,-3.0531,-3.1246,-2.9897,-2.8991,-2.8763,-2.9787,-2.9704,-2.9415,-2.9321,-2.9228,-2.9135,-2.9052,-2.8876,-2.8752,-2.8752,-2.8359,-2.7976,-2.7696,-2.7655,-2.7552,-2.733,-2.7309,-2.7309,-2.7309,-2.7309,-2.7441,-2.7857,-2.7489,-2.75,-2.7943,-2.8014,-2.8485,-2.9286,-3.0501,-3.1284,-3.1768,-3.2841,-3.2831,-3.1822,-3.2247,-3.214,-3.1581,-3.1226,-3.0566,-2.976,-2.9244,-2.8642,-2.8055,-2.7726,-2.7214,-2.6651,-2.6544,-2.6554,-2.6784,-2.7668,-2.8538,-2.9417,-3.0295,-3.1116,-3.1705,-3.1705,-3.1705,-3.1749,-3.1937,-3.2288,-3.268,-3.2884,-3.3428,-3.3924,-3.3755,-3.405,-3.4397,-3.4397,-3.4397,-3.4397,-3.4397,-3.4397,-3.4397,-3.4397,-3.4214,-3.4076,-3.4059,-3.4778,-3.5405,-3.574,-3.6212,-3.6387,-3.6118,-3.5744,-3.5504,-3.5504,-3.5504,-3.5504,-3.5504,-3.5504,-3.5504,-3.5504,-3.5504,-3.5504,-3.5504,-3.5504,-3.5833,-3.6492,-3.6866,-3.7165,-3.7434,-3.8242,-3.8542,-2.9415,-3.0118,-3.0796,-3.1876,-3.1835,-3.1439,-3.106,-3.0059,-2.9384,-2.9891,-2.929,-2.8804,-2.9228,-2.8587,-2.8121,-2.8545,-2.8224,-2.7924,-2.7924,-2.7541,-2.7309,-2.7309,-2.7309,-2.7309,-2.7309,-2.7357,-2.7404,-2.7441,-2.7489,-2.7882,-2.8659,-2.7934,-2.7932,-2.8968,-2.9133,-2.9306,-2.9636,-3.1542,-3.213,-3.1395,-3.3079,-3.3331,-3.2239,-3.1908,-3.1709,-3.1536,-3.0611,-3.0216,-3.017,-2.976,-2.9301,-2.8803,-2.7998,-2.7404,-2.6948,-2.6699,-2.6747,-2.7034,-2.7715,-2.8595,-2.9623,-3.0306,-3.1026,-3.1705,-3.1705,-3.1705,-3.1849,-3.2257,-3.2711,-3.3159,-3.3586,-3.4063,-3.4314,-3.3894,-3.4105,-3.4397,-3.4397,-3.4397,-3.4397,-3.4397,-3.4397,-3.4384,-3.4332,-3.3914,-3.3859,-3.452,-3.5381,-3.5759,-3.5299,-3.5921,-3.6178,-3.5564,-3.5504,-3.5504,-3.5504,-3.5504,-3.5504,-3.5504,-3.5504,-3.5504,-3.5504,-3.5504,-3.5504,-3.5504,-3.5504,-3.5804,-3.6402,-3.6462,-3.6746,-3.724,-3.736,-3.7704,-2.8925,-2.9528,-3.0231,-3.1298,-3.1259,-3.1078,-3.1435,-3.0111,-2.9001,-2.9829,-2.9549,-2.9187,-2.929,-2.8845,-2.8504,-2.8597,-2.8224,-2.7924,-2.7924,-2.7541,-2.7309,-2.7309,-2.7309,-2.7309,-2.7309,-2.7831,-2.8243,-2.8409,-2.8956,-2.9192,-2.8937,-2.8892,-2.8878,-2.8827,-2.9039,-2.9606,-3.0593,-3.1502,-3.2215,-3.2698,-3.3524,-3.3769,-3.35,-3.3214,-3.2536,-3.1536,-3.0611,-3.0216,-3.017,-3.008,-2.976,-2.9301,-2.8689,-2.8175,-2.7715,-2.7309,-2.7167,-2.7214,-2.7404,-2.8373,-2.9531,-2.9669,-3.0623,-3.1705,-3.1705,-3.1937,-3.2257,-3.2344,-3.297,-3.3586,-3.367,-3.4063,-3.4356,-3.4272,-3.4314,-3.4397,-3.4397,-3.4397,-3.4397,-3.4397,-3.4397,-3.4267,-3.3835,-3.3679,-3.3728,-3.4173,-3.4014,-3.4209,-3.5304,-3.5615,-3.5669,-3.5519,-3.5504,-3.5504,-3.5504,-3.5504,-3.5504,-3.5504,-3.5504,-3.5504,-3.5504,-3.5504,-3.5504,-3.5504,-3.5504,-3.5579,-3.5714,-3.6237,-3.6297,-3.5938,-3.6941,-3.7225,-2.9114,-2.9942,-3.0884,-3.2252,-3.2059,-3.1657,-3.2219,-3.0775,-2.9441,-2.9939,-2.9312,-2.8649,-2.8649,-2.8266,-2.7966,-2.7966,-2.7759,-2.7603,-2.7603,-2.7455,-2.7226,-2.7009,-2.7248,-2.7351,-2.714,-2.775,-2.8205,-2.8318,-2.8668,-2.9001,-2.9274,-2.912,-2.9277,-2.9789,-2.9922,-3.0328,-3.1021,-3.1678,-3.2199,-3.268,-3.2955,-3.3014,-3.2824,-3.2564,-3.1872,-3.0805,-3.0157,-2.9871,-2.9894,-3.0124,-2.9943,-2.9485,-2.9198,-2.8642,-2.7998,-2.7726,-2.7726,-2.7878,-2.8233,-2.9106,-3.0068,-3.0442,-3.1071,-3.1705,-3.1705,-3.1893,-3.2157,-3.2593,-3.3,-3.3458,-3.3924,-3.423,-3.4397,-3.4397,-3.4397,-3.4397,-3.4397,-3.4397,-3.4319,-3.4071,-3.4018,-3.3835,-3.326,-3.3238,-3.338,-3.3631,-3.369,-3.4172,-3.5359,-3.5504,-3.5504,-3.5504,-3.5504,-3.5504,-3.5504,-3.5504,-3.5504,-3.5504,-3.5504,-3.5504,-3.5504,-3.5504,-3.5504,-3.5504,-3.5504,-3.5504,-3.5504,-3.5848,-3.5833,-3.5519,-3.6193,-3.6492,-2.934,-3.0495,-3.175,-3.3244,-3.2909,-3.2304,-3.2757,-3.1421,-3.0119,-3.0119,-2.895,-2.7924,-2.7924,-2.7562,-2.7309,-2.7309,-2.7237,-2.7185,-2.7185,-2.7123,-2.6973,-2.6681,-2.7122,-2.7381,-2.7093,-2.7711,-2.8105,-2.8137,-2.8355,-2.89,-2.9744,-2.948,-2.9835,-3.093,-3.0983,-3.1124,-3.1381,-3.1936,-3.2218,-3.2218,-3.2218,-3.2045,-3.1781,-3.1378,-3.0769,-2.999,-2.9726,-2.9487,-2.9389,-2.9791,-2.9726,-2.933,-2.9283,-2.8707,-2.7974,-2.7919,-2.8102,-2.8488,-2.9128,-2.9897,-3.0713,-3.1294,-3.1617,-3.1705,-3.1837,-3.1865,-3.1998,-3.285,-3.303,-3.3166,-3.3973,-3.4138,-3.411,-3.411,-3.411,-3.4136,-3.4241,-3.4254,-3.4097,-3.3548,-3.3352,-3.313,-3.2633,-3.2623,-3.2795,-3.3122,-3.3734,-3.4442,-3.5392,-3.5504,-3.5504,-3.5504,-3.5504,-3.5504,-3.5504,-3.5504,-3.5504,-3.5504,-3.5504,-3.5504,-3.5504,-3.5504,-3.5504,-3.5504,-3.5504,-3.5504,-3.5504,-3.5504,-3.5504,-3.5504,-3.5504,-3.5804,-2.875,0.0,-3.1562,0.0,-3.205,-3.1701,-3.1773,-3.0966,-3.0194,-3.0194,-2.8946,-2.7924,-2.7924,-2.7562,-2.7309,-2.7309,-2.6967,-2.6708,-2.6708,-2.6366,-2.6267,-2.68,-2.6935,-2.7214,-2.7723,-2.8409,-2.8915,-2.9106,-3.0247,-3.0806,-3.0483,-3.1067,-3.1345,-3.1178,-3.1389,-3.1696,-3.2059,-3.2146,-3.2218,-3.2218,-3.2218,-3.2186,-3.2108,-3.1292,-3.0617,-3.0008,-2.9965,-2.9479,-2.8804,-2.8873,-2.8864,-2.8767,-2.8365,-2.8134,-2.795,-2.7531,-2.782,-2.8395,-2.8488,-2.9439,-3.0623,-3.0713,-3.116,-3.1793,-3.2407,-3.2473,-3.255,-3.3256,-3.3206,-3.3027,-3.3146,-3.3067,-3.2921,-3.2921,-3.2921,-3.3064,-3.3587,-3.3705,-3.3522,-3.2934,-3.2411,-3.2006,-3.1928,-3.1546,-3.171,-3.2981,-3.3283,-3.3851,-3.5326,-3.5504,-3.5504,-3.5504,-3.5504,-3.5504,-3.5504,-3.5504,-3.5504,-3.5504,-3.5504,-3.5504,-3.5504,-3.5504,-3.5504,-3.5504,-3.5504,-3.5504,-3.5504,-3.5504,-3.5504,-3.5504,-3.5504,-3.5549,-2.9301,-3.0124,-3.0811,0.0,-3.2222,-3.2001,-3.2364,-3.1669,-3.108,-3.1323,-3.0399,-2.9453,-2.9253,-2.9449,-2.9556,-2.9304,-2.9,-2.8821,-2.8935,-2.8106,-2.751,-2.7679,-2.763,-2.762,-2.7676,-2.832,-2.8775,-2.8857,-2.9738,-3.0226,-3.0093,-3.0983,-3.1435,-3.1431,-3.174,-3.2023,-3.2218,-3.2218,-3.2218,-3.2218,-3.2218,-3.2218,-3.2182,-3.1813,-3.0968,-2.9819,-2.9637,-2.9076,-2.8322,-2.8586,-2.87,-2.868,-2.8461,-2.8066,-2.7575,-2.7374,-2.7449,-2.7677,-2.8039,-2.8879,-2.9893,-3.0575,-3.1047,-3.1441,-3.206,-3.2215,-3.2271,-3.2838,-3.2815,-3.2672,-3.2909,-3.2843,-3.2685,-3.2685,-3.2685,-3.2672,-3.262,-3.2868,-3.2921,-3.2333,-3.1757,-3.1466,-3.1878,-3.1776,-3.2123,-3.3581,-3.3837,-3.4225,-3.5359,-3.5504,-3.5504,-3.5504,-3.5504,-3.5504,-3.5504,-3.5504,-3.5504,-3.5504,-3.5504,-3.5504,-3.5504,-3.5504,-3.5504,-3.5504,-3.5504,-3.5504,-3.5504,-3.5504,-3.5504,-3.5504,-3.5504,-3.5504,0.0,0.0,-2.997,-3.1733,-3.2272,-3.2537,0.0,0.0,-3.2401,0.0,-3.2352,-3.1748,-3.1356,-3.1396,-3.1404,-3.1018,-3.0758,-3.0631,-3.0785,-2.9621,-2.8722,-2.8707,-2.8537,-2.8327,-2.8151,-2.8633,-2.8961,-2.8961,-2.9535,-2.9909,-3.0088,-3.0959,-3.1542,-3.1753,-3.2059,-3.2218,-3.2218,-3.2218,-3.2218,-3.2218,-3.2218,-3.2218,-3.2218,-3.2218,-3.1394,-2.9986,-2.9512,-2.886,-2.8138,-2.8257,-2.8322,-2.8344,-2.8331,-2.7903,-2.7272,-2.7261,-2.7304,-2.7393,-2.7963,-2.8775,-2.967,-3.0675,-3.1087,-3.1361,-3.1955,-3.2053,-3.2029,-3.2594,-3.2424,-3.2202,-3.2552,-3.2449,-3.2254,-3.2254,-3.2254,-3.2176,-3.1863,-3.2058,-3.2123,-3.1667,-3.1412,-3.1468,-3.2015,-3.2254,-3.2812,-3.4095,-3.4312,-3.461,-3.5392,-3.5504,-3.5504,-3.5504,-3.5504,-3.5504,-3.5504,-3.5504,-3.5504,-3.5504,-3.5504,-3.5504,-3.5504,-3.5504,-3.5504,-3.5504,-3.5504,-3.5504,-3.5504,-3.5504,-3.5504,-3.5504,-3.5504,-3.5504,0.0,-2.8172,0.0,-3.0266,-3.1688,-3.2975,0.0,0.0,-3.4259,-3.4314,-3.4605,-3.4729,-3.4259,-3.2716,-3.1492,-3.1448,-3.106,-3.0778,-3.0778,-2.9702,-2.9109,-2.9759,-2.9294,-2.9211,-2.9806,-3.0063,-3.0203,-3.0203,-3.0771,-3.1108,-3.1108,-3.1776,-3.2132,-3.2182,-3.2182,-3.2218,-3.2218,-3.2218,-3.2218,-3.2218,-3.2218,-3.2218,-3.2218,-3.2218,-3.169,-3.0782,-3.0024,-2.9209,-2.8391,-2.7603,-2.7259,-2.7275,-2.7259,-2.7269,-2.7197,-2.7206,-2.7645,-2.8268,-2.8571,-2.9501,-3.0658,-3.0935,-3.1402,-3.1955,-3.2633,-3.2449,-3.2143,-3.2866,-3.2377,-3.1652,-3.1652,-3.1378,-3.1078,-3.1078,-3.1078,-3.1209,-3.1693,-3.1444,-3.1065,-3.1039,-3.1593,-3.2051,-3.2074,-3.2684,-3.3422,-3.4177,-3.4312,-3.461,-3.5392,-3.5504,-3.5504,-3.5504,-3.5504,-3.5504,-3.5504,-3.5504,-3.5504,-3.5504,-3.5504,-3.5504,-3.5504,-3.5504,-3.5504,-3.5504,-3.5504,-3.5504,-3.5504,-3.5504,-3.5504,-3.5504,-3.5504,-3.5504,-2.6947,0.0,0.0,-2.95,-3.0573,-3.1434,-3.1925,-3.2968,-3.3849,-3.4012,-3.4466,-3.4853,-3.4867,-3.44,-3.3888,-3.3594,-3.3187,-3.2976,-3.3089,-3.2039,-3.141,-3.1792,-3.097,-3.0493,-3.0752,-3.0497,-3.0279,-3.0279,-3.0846,-3.1182,-3.1182,-3.1827,-3.2218,-3.2218,-3.2218,-3.2218,-3.2218,-3.2218,-3.2218,-3.2218,-3.2218,-3.2218,-3.2218,-3.2218,-3.2009,-3.1653,-3.0279,-2.9238,-2.8422,-2.7574,-2.719,-2.7242,-2.7842,-2.7531,-2.6819,-2.7383,-2.7554,-2.7595,-2.8134,-2.8991,-2.9953,-3.0829,-3.1267,-3.1587,-3.2257,-3.231,-3.2172,-3.2457,-3.2088,-3.1609,-3.1609,-3.1299,-3.0986,-3.0986,-3.0986,-3.1039,-3.1248,-3.113,-3.0986,-3.0986,-3.1603,-3.2254,-3.272,-3.3422,-3.4192,-3.4953,-3.5052,-3.5166,-3.5472,-3.5504,-3.5504,-3.5504,-3.5504,-3.5504,-3.5504,-3.5504,-3.5504,-3.5504,-3.5504,-3.5504,-3.5504,-3.5504,-3.5504,-3.5504,-3.5716,-3.5716,-3.5504,-3.5504,-3.5504,-3.5504,-3.5504,-3.5634,-2.6447,-2.6887,0.0,0.0,-2.9621,-3.0246,-3.1124,-3.2397,-3.3463,-3.3767,-3.4153,-3.4526,-3.4942,-3.4902,-3.4808,-3.4828,-3.4605,-3.4494,-3.4618,-3.379,-3.3181,-3.3344,-3.2553,-3.1967,-3.1771,-3.1457,-3.1143,-3.0947,-3.132,-3.1542,-3.1542,-3.1973,-3.2218,-3.2218,-3.2218,-3.2218,-3.2218,-3.2218,-3.2218,-3.2218,-3.2218,-3.2218,-3.2218,-3.2218,-3.2218,-3.2096,-3.0431,-2.9394,-2.8806,-2.7655,-2.719,-2.7313,-2.8155,-2.7782,-2.6857,-2.8011,-2.8068,-2.7683,-2.8481,-2.9227,-2.9999,-3.0908,-3.1344,-3.1616,-3.2059,-3.2218,-3.2218,-3.2218,-3.189,-3.1609,-3.1609,-3.1299,-3.0986,-3.0986,-3.0986,-3.0986,-3.0986,-3.0986,-3.0986,-3.0986,-3.1603,-3.22,-3.2492,-3.3508,-3.4422,-3.4786,-3.5225,-3.5504,-3.5504,-3.5504,-3.5504,-3.5504,-3.5504,-3.5504,-3.5504,-3.5504,-3.5504,-3.5504,-3.5504,-3.5504,-3.5504,-3.5504,-3.5569,-3.5651,-3.5893,-3.5893,-3.5683,-3.578,-3.578,-3.5651,-3.5651,-3.5748,0.0,0.0,0.0,-2.8354,0.0,0.0,-3.1146,0.0,-3.3183,-3.3704,-3.3801,-3.3991,-3.4573,-3.4065,-3.3883,-3.4887,-3.5046,-3.5059,-3.5072,-3.4593,-3.4233,-3.4246,-3.391,-3.3488,-3.2909,-3.3016,-3.2857,-3.2286,-3.2218,-3.2218,-3.2218,-3.2218,-3.2218,-3.2218,-3.2218,-3.2218,-3.2218,-3.2218,-3.2218,-3.2218,-3.2218,-3.2218,-3.2218,-3.2218,-3.2182,-3.2059,-3.0444,-2.9704,-2.9549,-2.7886,-2.719,-2.7301,-2.8195,-2.7995,-2.7423,-2.9121,-2.9238,-2.8688,-2.9679,-3.0443,-3.097,-3.1182,-3.1666,-3.2218,-3.2218,-3.2218,-3.2218,-3.2218,-3.189,-3.1609,-3.1609,-3.1299,-3.0986,-3.0986,-3.0986,-3.0986,-3.0986,-3.0986,-3.0986,-3.0986,-3.1603,-3.192,-3.1336,-3.293,-3.4109,-3.3613,-3.4653,-3.5504,-3.5504,-3.5504,-3.5504,-3.5504,-3.5504,-3.5504,-3.5504,-3.5504,-3.5504,-3.5504,-3.5504,-3.5504,-3.5504,-3.5504,-3.5651,-3.5973,-3.6005,-3.6005,-3.6005,-3.632,-3.6304,-3.5973,-3.6005,-3.5829,-2.488,0.0,0.0,0.0,0.0,0.0,0.0,0.0,-3.1229,-3.1522,-3.1917,-3.2204,-3.2086,-3.2324,-3.2735,-3.3476,-3.3926,-3.4322,-3.4553,-3.4611,-3.4682,-3.4846,-3.4513,-3.4255,-3.425,-3.3566,-3.3033,0.0,-3.2463,-3.2218,-3.2218,-3.2218,-3.2218,-3.2218,-3.2218,-3.2218,-3.2218,-3.2218,-3.2218,-3.2218,-3.2218,-3.2218,-3.2218,-3.2218,-3.185,-3.1206,-3.0152,-2.9355,-2.8727,-2.7655,-2.719,-2.7342,-2.8806,-2.8858,-2.8343,-2.9986,-3.0443,-3.0291,-3.0544,-3.1182,-3.185,-3.19,-3.2059,-3.2218,-3.2218,-3.2218,-3.2218,-3.2218,-3.189,-3.1535,-3.1261,-3.1061,-3.0986,-3.0986,-3.0986,-3.0986,-3.0986,-3.0986,-3.0986,-3.0986,-3.1603,-3.2063,-3.1951,-3.3237,-3.4276,-3.4243,-3.4959,-3.5504,-3.5504,-3.5504,-3.5504,-3.5504,-3.5504,-3.5504,-3.5504,-3.5504,-3.5504,-3.5504,-3.5504,-3.5504,-3.5504,-3.5504,-3.5537,-3.5619,-3.6115,-3.6367,-3.6367,-3.6195,-3.5957,-3.5651,-3.5893,-3.5941,-2.5128,-2.5722,-2.648,-2.6432,0.0,0.0,-2.7749,-2.8765,-2.9659,0.0,-3.0646,-3.0893,-3.0877,-3.1019,-3.1381,-3.1965,-3.2748,-3.3622,-3.4543,-3.4839,-3.5003,-3.5195,-3.509,-3.4954,-3.4816,-3.4204,-3.3593,-3.3142,-3.2775,-3.2477,-3.2218,-3.2218,-3.2218,-3.2218,-3.2218,-3.2218,-3.2218,-3.2218,-3.2218,-3.2218,-3.2218,-3.2218,-3.2218,-3.2218,-3.1726,-3.0857,-3.0037,-2.9238,-2.8422,-2.7574,-2.719,-2.7383,-2.9042,-2.9199,-2.874,-3.072,-3.1206,-3.097,-3.1331,-3.1776,-3.2218,-3.2218,-3.2218,-3.2218,-3.2218,-3.2218,-3.2218,-3.2218,-3.1963,-3.1633,-3.1336,-3.1174,-3.1123,-3.1123,-3.1061,-3.0986,-3.0986,-3.0986,-3.0986,-3.0986,-3.1603,-3.2027,-3.1826,-3.297,-3.3864,-3.3687,-3.4463,-3.507,-3.507,-3.5325,-3.5504,-3.5504,-3.5504,-3.5504,-3.5504,-3.5504,-3.5504,-3.5504,-3.5619,-3.5716,-3.5716,-3.5844,-3.5972,-3.6131,-3.6507,-3.6724,-3.6724,-3.6631,-3.646,-3.6131,-3.6178,-3.6195,-2.5949,-2.6131,-2.6583,-2.7177,-2.6837,0.0,-2.7307,-2.7799,-2.8329,0.0,-2.9459,-2.9646,-3.0162,-2.9931,-2.9846,-3.0397,-3.1542,-3.2968,-3.4646,-3.5006,-3.5154,-3.5399,-3.5562,-3.5426,-3.4951,-3.4829,-3.4355,-3.3373,-3.3169,-3.2843,-3.2246,-3.2218,-3.2218,-3.2218,-3.2218,-3.2218,-3.2218,-3.2218,-3.2218,-3.2218,-3.2218,-3.2218,-3.2218,-3.2151,-3.1596,-3.0691,-2.991,-2.9112,-2.8219,-2.751,-2.7272,-2.7505,-2.9081,-2.9316,-2.9042,-3.1357,-3.169,-3.1169,-3.1936,-3.2218,-3.2218,-3.2218,-3.2218,-3.2218,-3.2218,-3.2218,-3.2218,-3.2182,-3.2036,-3.1853,-3.1646,-3.1434,-3.131,-3.131,-3.1161,-3.0986,-3.0986,-3.0986,-3.1011,-3.1123,-3.164,-3.1969,-3.1512,-3.2608,-3.3329,-3.2788,-3.3722,-3.4533,-3.4608,-3.4996,-3.531,-3.5385,-3.5325,-3.528,-3.528,-3.5355,-3.5385,-3.5417,-3.5784,-3.6005,-3.6037,-3.6336,-3.6647,-3.6938,-3.6969,-3.7015,-3.7076,-3.7271,-3.7241,-3.6954,-3.6647,-3.6523,-2.6365,-2.6809,-2.7228,-2.6425,-2.6321,0.0,-2.6139,-2.6386,-2.6738,0.0,-2.6829,-2.6982,-2.74,-2.7894,-2.8404,-2.8987,-3.0483,-3.2044,-3.3461,-3.4486,-3.5154,-3.5399,-3.5277,-3.5318,-3.552,-3.4954,-3.4536,-3.4463,-3.3607,-3.2843,-3.2246,-3.2218,-3.2218,-3.2218,-3.2218,-3.2218,-3.2218,-3.2218,-3.2218,-3.2218,-3.2218,-3.2218,-3.2191,-3.168,-3.0764,-2.9501,-2.9151,-2.8238,-2.7049,-2.7169,-2.7615,-2.8343,-2.9316,-2.9999,-3.0594,-3.1776,-3.2096,-3.1973,-3.2132,-3.2218,-3.2218,-3.2218,-3.2218,-3.2218,-3.2218,-3.2218,-3.2182,-3.2,-3.1927,-3.1853,-3.1646,-3.1434,-3.131,-3.131,-3.1161,-3.0986,-3.0986,-3.0986,-3.1198,-3.1773,-3.2015,-3.2278,-3.2867,-3.3604,-3.412,-3.4099,-3.4319,-3.4681,-3.5235,-3.4472,-3.4098,-3.4653,-3.4203,-3.3888,-3.3888,-3.4367,-3.4808,-3.5091,-3.5685,-3.6132,-3.6398,-3.646,-3.6523,-3.6585,-3.6877,-3.7121,-3.7391,-3.6923,-3.6647,-3.6585,-3.6523,-3.6647,-2.7158,-2.735,-2.7524,-2.681,-2.66,0.0,0.0,-2.5807,-2.5875,-2.6314,-2.6177,-2.6107,-2.6601,-2.677,-2.7019,-2.7696,-2.9037,-3.0272,-3.104,-3.2837,-3.4153,-3.4366,-3.4326,-3.4487,-3.5049,-3.474,-3.4483,-3.4382,-3.3566,-3.2843,-3.2246,-3.2218,-3.2218,-3.2218,-3.2218,-3.2083,-3.1734,-3.1734,-3.1585,-3.13,-3.13,-3.13,-3.1287,-3.0988,-3.0024,-2.8583,-2.8572,-2.7885,-2.6751,-2.6898,-2.7878,-2.9264,-2.9575,-3.019,-3.1007,-3.19,-3.2218,-3.2218,-3.2218,-3.2218,-3.2218,-3.2218,-3.2218,-3.2218,-3.2218,-3.2218,-3.2182,-3.2073,-3.2036,-3.2036,-3.1927,-3.1669,-3.1434,-3.1434,-3.1211,-3.0986,-3.0986,-3.0986,-3.1222,-3.1942,-3.2398,-3.2905,-3.3705,-3.416,-3.4431,-3.4485,-3.4234,-3.4113,-3.4457,-3.3918,-3.3681,-3.4135,-3.3909,-3.3774,-3.391,-3.4577,-3.5018,-3.5202,-3.6014,-3.6585,-3.6754,-3.6892,-3.6984,-3.6984,-3.7165,-3.7331,-3.751,-3.7165,-3.6984,-3.6984,-3.6984,-3.7075,-2.8017,-2.7881,-2.7782,-2.735,-2.6965,-2.6524,0.0,0.0,0.0,-2.6052,-2.5811,-2.5667,0.0,0.0,0.0,-2.6459,0.0,0.0,0.0,-3.0619,0.0,-3.2846,-3.3073,-3.3445,-3.4057,-3.411,-3.3987,-3.3657,-3.3006,-3.2488,-3.2159,-3.2024,-3.206,-3.2218,-3.2218,-3.1897,-3.13,-3.13,-3.1002,-3.0405,-3.0405,-3.0405,-3.0405,-3.018,-2.9311,-2.7967,-2.7956,-2.7458,-2.6617,-2.6726,-2.8007,-2.9847,-2.9731,-3.0304,-3.1257,-3.1936,-3.2218,-3.2218,-3.2218,-3.2218,-3.2218,-3.2218,-3.2218,-3.2218,-3.2218,-3.2218,-3.2218,-3.2218,-3.2182,-3.2146,-3.2146,-3.1853,-3.1522,-3.1522,-3.1248,-3.0986,-3.0986,-3.0986,-3.1259,-3.216,-3.2791,-3.3422,-3.4177,-3.4528,-3.4698,-3.4698,-3.4113,-3.3739,-3.3858,-3.3726,-3.3713,-3.4091,-3.406,-3.4118,-3.4386,-3.503,-3.546,-3.552,-3.6443,-3.7045,-3.709,-3.7361,-3.751,-3.751,-3.751,-3.751,-3.751,-3.751,-3.751,-3.751,-3.751,-3.751,-2.8519,-2.8492,-2.8202,-2.7004,-2.6903,-2.6654,-2.4905,0.0,-2.4887,-2.4491,0.0,-2.4491,-2.5083,0.0,0.0,0.0,0.0,0.0,-2.6967,-2.8088,-2.946,-3.0935,-3.1816,-3.2455,-3.2699,-3.2751,-3.2724,-3.2644,-3.1603,-3.1235,-3.19,-3.1438,-3.1469,-3.2169,-3.2218,-3.1897,-3.13,-3.13,-3.1002,-3.0405,-3.0405,-3.0405,-3.0357,-2.9346,-2.852,-2.786,-2.7117,-2.6445,-2.5977,-2.6741,-2.794,-2.9339,-2.958,-3.0671,-3.2046,-3.2169,-3.2218,-3.2218,-3.2218,-3.2218,-3.2218,-3.2218,-3.2218,-3.2218,-3.2218,-3.2218,-3.2218,-3.2218,-3.2073,-3.1927,-3.1927,-3.1619,-3.131,-3.131,-3.1161,-3.0986,-3.0986,-3.0986,-3.1408,-3.2791,-3.3143,-3.3422,-3.4177,-3.4912,-3.5385,-3.5385,-3.4801,-3.4608,-3.5205,-3.4482,-3.4182,-3.4789,-3.4605,-3.4459,-3.4488,-3.5106,-3.5626,-3.5909,-3.6609,-3.7121,-3.7421,-3.748,-3.751,-3.751,-3.751,-3.751,-3.751,-3.751,-3.751,-3.751,-3.751,-3.751,-2.8538,-2.8444,-2.8177,-2.7058,-2.6747,-2.6326,-2.5011,-2.459,-2.4504,-2.4596,0.0,0.0,0.0,0.0,0.0,0.0,-2.5398,0.0,0.0,0.0,-2.7642,-2.9689,0.0,0.0,-3.1235,-3.1692,-3.1979,-3.1979,-3.1513,-3.1412,-3.1877,-3.1325,-3.1217,-3.1653,-3.1327,-3.0866,-3.0276,-3.0276,-2.9944,-2.936,-2.936,-2.936,-2.9347,-2.8878,-2.8132,-2.7203,-2.694,-2.6425,-2.5849,-2.6517,-2.7617,-2.8926,-2.9599,-3.0819,-3.2218,-3.2218,-3.2218,-3.2218,-3.2218,-3.2218,-3.2218,-3.2218,-3.2218,-3.2218,-3.2218,-3.2218,-3.2218,-3.2218,-3.2073,-3.189,-3.189,-3.1582,-3.131,-3.131,-3.1161,-3.0986,-3.0986,-3.1334,-3.1809,-3.2434,-3.3234,-3.3939,-3.4245,-3.4986,-3.5504,-3.5504,-3.4921,-3.4671,-3.5162,-3.4516,-3.4241,-3.4859,-3.4804,-3.4807,-3.4995,-3.5636,-3.6072,-3.6203,-3.6908,-3.7361,-3.748,-3.751,-3.751,-3.751,-3.751,-3.751,-3.751,-3.7375,-3.7329,-3.7329,-3.7329,-3.7329,-2.8441,-2.8287,-2.8048,-2.6961,-2.6458,-2.5985,-2.4987,-2.453,-2.4465,-2.4913,-2.4766,0.0,0.0,0.0,-2.4661,-2.4953,0.0,-2.5044,0.0,-2.5563,0.0,0.0,0.0,0.0,0.0,-3.0497,-3.0861,-3.1156,-3.0914,-3.1063,-3.179,-3.1106,-3.0877,-3.1287,-3.0717,-3.0106,-2.9515,-2.9515,-2.9217,-2.8587,-2.8587,-2.8587,-2.8587,-2.8457,-2.7875,-2.6981,-2.6994,-2.6584,-2.5973,-2.6629,-2.7508,-2.8495,-2.9502,-3.0722,-3.1951,-3.2151,-3.2218,-3.2218,-3.2218,-3.2218,-3.2218,-3.2218,-3.2218,-3.2218,-3.2218,-3.2146,-3.2146,-3.2182,-3.2,-3.1743,-3.1817,-3.1508,-3.1235,-3.1235,-3.1099,-3.1061,-3.1259,-3.17,-3.2218,-3.2635,-3.3581,-3.438,-3.461,-3.5118,-3.5504,-3.5504,-3.5167,-3.4994,-3.5245,-3.5019,-3.4984,-3.5428,-3.5558,-3.5718,-3.5963,-3.6421,-3.6706,-3.6706,-3.7196,-3.751,-3.751,-3.751,-3.751,-3.751,-3.751,-3.748,-3.7435,-3.7254,-3.7194,-3.7194,-3.7164,-3.715,-2.8365,-2.8287,-2.7954,-2.6489,-2.6136,-2.577,-2.4429,-2.4557,-2.4979,-2.4992,-2.5393,-2.5741,-2.5754,-2.5754,-2.5589,-2.5083,-2.4992,0.0,0.0,-2.578,0.0,0.0,0.0,0.0,0.0,-2.8826,-2.897,0.0,-2.914,-2.9421,-3.1516,-3.049,-3.0293,-3.1273,-3.0717,-3.0106,-2.9515,-2.9515,-2.9217,-2.8587,-2.8587,-2.8587,-2.8587,-2.8052,-2.7809,-2.7743,-2.7242,-2.6679,-2.6292,-2.7335,-2.7842,-2.804,-2.9107,-3.0269,-3.1395,-3.2001,-3.2218,-3.2218,-3.2218,-3.2218,-3.2218,-3.2218,-3.2218,-3.2218,-3.2218,-3.2073,-3.1963,-3.2146,-3.1767,-3.1347,-3.1559,-3.1299,-3.1024,-3.1024,-3.0986,-3.1198,-3.1905,-3.2074,-3.2528,-3.3959,-3.4279,-3.4528,-3.5326,-3.5472,-3.5504,-3.5504,-3.575,-3.5943,-3.5975,-3.6507,-3.6906,-3.6937,-3.7238,-3.7417,-3.7431,-3.7462,-3.7478,-3.7478,-3.7494,-3.751,-3.751,-3.751,-3.751,-3.751,-3.751,-3.7405,-3.7224,-3.7194,-3.7194,-3.7194,-3.7075,-3.7015,0.0,0.0,-2.8034,-2.6921,-2.6431,-2.5972,-2.4947,-2.4908,-2.5112,-2.5022,-2.5542,-2.5967,-2.5824,-2.5793,-2.5728,-2.5563,-2.5537,-2.5471,0.0,-2.5589,0.0,0.0,-2.7236,-2.7889,0.0,0.0,0.0,-2.8922,-2.8974,0.0,-3.0219,-2.9839,-2.9709,-2.9888,-2.9255,-2.8885,-2.8885,-2.8774,-2.8679,-2.8587,-2.8587,-2.8587,-2.8587,-2.8425,-2.8151,-2.7776,-2.761,-2.7242,-2.6803,-2.751,-2.7828,-2.7938,-2.904,-2.9971,-3.0785,-3.1368,-3.1843,-3.2218,-3.2218,-3.2218,-3.2218,-3.2218,-3.2218,-3.2218,-3.2218,-3.2073,-3.189,-3.1963,-3.1743,-3.1522,-3.1559,-3.1397,-3.1198,-3.1198,-3.1099,-3.1185,-3.1942,-3.247,-3.3108,-3.4095,-3.4894,-3.5527,-3.5782,-3.602,-3.6004,-3.5569,-3.5797,-3.6068,-3.6304,-3.6708,-3.709,-3.7301,-3.7421,-3.751,-3.751,-3.751,-3.751,-3.751,-3.751,-3.751,-3.751,-3.751,-3.751,-3.751,-3.751,-3.748,-3.7405,-3.7254,-3.7194,-3.7194,-3.7044,-3.7015,-2.832,-2.8287,0.0,-2.7224,-2.6817,-2.6339,-2.5327,-2.5301,-2.5506,-2.5415,-2.5875,-2.6367,-2.6591,-2.6502,-2.636,-2.6214,-2.6156,-2.5994,0.0,-2.6073,-2.6537,-2.6935,-2.7301,-2.749,-2.749,-2.749,-2.7771,-2.8368,-2.8773,-2.9236,0.0,-2.9465,-2.9265,-2.9401,-2.8559,-2.8243,-2.8476,-2.8365,-2.8398,-2.8587,-2.8587,-2.8587,-2.8587,-2.8587,-2.8425,-2.8085,-2.8085,-2.7776,-2.7343,-2.7842,-2.7987,-2.7881,-2.881,-2.9536,-3.0174,-3.0988,-3.1667,-3.2218,-3.2218,-3.2218,-3.2218,-3.2218,-3.2218,-3.2218,-3.2218,-3.2073,-3.189,-3.2,-3.1817,-3.1609,-3.1609,-3.1434,-3.1272,-3.1198,-3.1099,-3.1185,-3.1942,-3.2684,-3.3457,-3.4298,-3.5302,-3.6037,-3.6163,-3.6367,-3.6336,-3.594,-3.6147,-3.6429,-3.6647,-3.6969,-3.7241,-3.748,-3.751,-3.751,-3.751,-3.751,-3.751,-3.751,-3.751,-3.751,-3.751,-3.751,-3.751,-3.751,-3.751,-3.7464,-3.7405,-3.7254,-3.7194,-3.7194,-3.7044,-3.703]}]]